     2.10           OBSERVATION DATA    G (GPS)             RINEX VERSION / TYPE
teqc 2005Sep1 20060522 11:05:59UTC                          PGM / RUN BY / DATE
MSXP|IAx86-PII|bcc32 5.0|MSWin95->XP|486/DX+                COMMENT
teqc 2005Sep1 20060522 11:03:17UTC                          COMMENT
BIT 2 OF LLI FLAGS DATA COLLECTED UNDER A/S CONDITION       COMMENT
SNR is mapped to RINEX snr flag value [1-9]                 COMMENT
L1: 3 -> 1; 8 -> 5; 40 -> 9                                 COMMENT
L2: 1 -> 1; 5 -> 5; 60 -> 9                                 COMMENT
2058                                                        MARKER NAME
2058                                                        MARKER NUMBER
-Unknown- -Unknown-                                         OBSERVER / AGENCY
2058 TRIMBLE 4000SSI NP 7.19 / SP 3.04                      REC # / TYPE / VERS
0 -Unknown-                                                 ANT # / TYPE
  1582774.8334 -1932980.0661  5848890.1353                  APPROX POSITION XYZ
        0.0000        0.0000        0.0000                  ANTENNA: DELTA H/E/N
     1     1                                                WAVELENGTH FACT L1/2
     6    L1    L2    C1    P2    P1    D1                  # / TYPES OF OBSERV
    30.0000                                                 INTERVAL
Forced Modulo Decimation to 30 seconds                      COMMENT
teqc windowed: start @ 2006 Apr 21 09:57:00.000             COMMENT
  2006     4    21     9    57    0.0000000     GPS         TIME OF FIRST OBS
                                                            END OF HEADER
 06  4 21  9 57  0.0000000  0  9G 9G11G14G17G19G20G22G24G28
    -13593.94346     -8010.09446  23241700.2344   23241703.2704
       230.4844
    103885.23548     61414.68747  20666512.0394   20666512.7194
     -1792.1874
    -45196.50845    -31585.20745  24154377.7974   24154379.7544
       780.3594
    -88849.30547    -53773.41247  22078107.7194   22078109.4654
      1538.2974
    280195.30945    218333.05246  24114044.1884   24114044.9264
     -4818.8444
   -142455.39845    -82402.14845  24084742.0394   24084745.2274
      2467.3134
    240379.26745    174379.44745  24532046.8134   24532048.7584
     -4138.9224
   -138527.70245    -80138.55245  24066885.5234   24066890.0594
      2400.2504
    133489.32948     69951.83847  21267105.0474   21267106.2074
     -2303.0004
 06  4 21  9 57 30.0000000  0  9G 9G11G14G17G19G20G22G24G28
    -20419.79946    -13328.97046  23240400.7344   23240404.7074
       224.5004
    157691.99448    103342.00947  20676751.0004   20676751.7154
     -1795.0474
    -68594.40245    -49817.24645  24149925.1954   24149927.1884
       779.4224
   -135068.15947    -89788.11247  22069312.7034   22069314.5434
      1542.8594
    424593.87645    330851.35246  24141521.7424   24141523.2894
     -4807.8284
   -216617.22145   -140190.55045  24070629.3984   24070632.7974
      2476.7034
    364485.20245    271084.99145  24555663.8834   24555664.1174
     -4134.8754
   -210688.53245   -136367.73945  24053152.7974   24053157.0274
      2410.3754
    202626.53148    123824.95947  21280261.6254   21280262.9144
     -2306.2344
 06  4 21  9 58  0.0000000  0  9G 9G11G14G17G19G20G22G24G28
    -27042.30246    -18489.37346  23239141.1724   23239144.5234
       216.8284
    211606.39248    145353.23247  20687010.8444   20687011.6294
     -1799.4534
    -91940.84345    -68009.15145  24145484.8204   24145487.8444
       776.8284
   -181399.66047   -125890.56847  22060495.8754   22060497.6334
      1545.7194
    568683.44345    443128.86446  24168941.2734   24168942.6334
     -4798.3284
   -291036.89045   -198179.90445  24056467.3444   24056470.1804
      2484.4224
    488488.03245    367710.35345  24579261.6644   24579261.9454
     -4132.1564
   -283129.11545   -192814.92045  24039367.8364   24039372.1254
      2418.8284
    271882.91148    177790.95747  21293440.3444   21293441.8444
     -2311.0314
 06  4 21  9 58 30.0000000  0  9G 9G11G14G17G19G20G22G24G28
    -33413.12046    -23453.44046  23237928.7344   23237932.1334
       207.7504
    265673.95448    187483.81147  20697299.2734   20697300.1524
     -1805.1874
   -115187.96945    -86123.83145  24141059.9384   24141061.5084
       772.8444
   -227795.64847   -162043.16347  22051667.0234   22051668.5704
      1547.2034
    712508.71345    555200.44646  24196310.6414   24196312.4574
     -4790.1564
   -365665.21445   -256331.81045  24042265.8754   24042269.7774
      2490.6564
    612431.78945    464289.81945  24602847.6094   24602849.4614
     -4130.8124
   -355800.98645   -249442.33545  24025538.9614   24025543.4964
      2425.8284
    341304.16148    231885.43547  21306651.0394   21306652.3634
     -2317.1564
 06  4 21  9 59  0.0000000  0  9G 9G11G14G17G19G20G22G24G28
    -39497.15246    -28194.10946  23236771.2274   23236774.3324
       197.6414
    319927.01848    229758.90847  20707623.0004   20707623.7734
     -1811.8914
   -138300.18645   -104133.42745  24136662.3364   24136665.4774
       767.7664
   -274221.67047   -198219.19047  22042832.5004   22042834.0944
      1547.6724
    856101.33045    667090.74446  24223634.7344   24223637.2074
     -4782.8754
   -440465.71645   -314617.87745  24028031.5394   24028034.9144
      2495.8444
    736347.12445    560847.35945  24626427.9774   24626430.9534
     -4130.3284
   -428668.97145   -306222.49945  24011672.4064   24011676.8834
      2431.8284
    410922.37548    286133.38547  21319899.0314   21319900.0514
     -2324.2504
 06  4 21  9 59 30.0000000  0  9G 9G11G14G17G19G20G22G24G28
    -45255.27346    -32680.90546  23235676.2814   23235679.1644
       186.1884
    374402.58748    272207.39047  20717989.5164   20717990.4774
     -1819.8754
   -161236.89945   -122006.20345  24132296.0314   24132297.4384
       761.2814
   -320638.19947   -234387.93147  22033999.4454   22034001.4964
      1546.7034
    999496.96745    778827.54246  24250923.1644   24250924.8754
     -4776.8754
   -515398.33045   -373006.89945  24013772.3594   24013776.5314
      2499.5944
    860267.96245    657408.67245  24650008.7814   24650009.8244
     -4131.1094
   -501693.68845   -363124.90545  23997776.9774   23997780.2344
      2436.4224
    480774.73948    340563.79047  21333191.2194   21333192.4964
     -2332.6254
 06  4 21 10  0  0.0000000  0  9G 9G11G14G17G19G20G22G24G28
    -50656.36246    -36889.56646  23234647.8364   23234650.2974
       173.8134
    429129.78148    314851.94247  20728403.9694   20728404.9304
     -1828.6874
   -183966.15645   -139717.22145  24127972.0164   24127975.7304
       753.9224
   -367013.25447   -270524.35247  22025174.5474   22025176.1174
      1544.8754
   1142724.19245    890433.13146  24278177.0634   24278178.7854
     -4771.6724
   -590429.93345   -431473.08145  23999494.8754   23999498.0744
      2502.4384
    984223.07046    753997.16845  24673597.3754   24673600.5864
     -4132.6564
   -574843.21645   -420124.60245  23983858.1254   23983861.6764
      2440.1254
    550890.30348    395199.28347  21346533.9064   21346535.2424
     -2341.8124
 06  4 21 10  0 30.0000000  0  9G 9G11G14G17G19G20G22G24G28
    -55667.95446    -40794.74646  23233693.9774   23233696.9184
       159.9694
    484138.28848    357715.72747  20738871.8364   20738872.8444
     -1838.8754
   -206455.69445   -157241.66045  24123692.5474   24123694.6564
       745.0164
   -413313.92947   -306602.74647  22016363.6484   22016365.3244
      1541.5314
   1285812.01445   1001930.06946  24305406.5394   24305408.4024
     -4767.8444
   -665527.43245   -489990.54445  23985203.3524   23985207.0204
      2503.7344
   1108240.77446    850634.74745  24697196.7664   24697198.3134
     -4135.5624
   -648084.94445   -477196.00745  23969920.1884   23969923.0944
      2442.3444
    621298.91248    450063.14047  21359932.3204   21359933.4224
     -2352.4064
 06  4 21 10  1  0.0000000  0  9G 9G11G14G17G19G20G22G24G28
    -60252.04746    -44367.04346  23232821.4224   23232824.2584
       145.6564
    539463.96648    400826.63447  20749399.6484   20749400.5274
     -1849.4694
   -228665.37445   -174547.85445  24119466.4144   24119467.9384
       735.6724
   -459501.81547   -342593.20747  22007574.2504   22007576.3484
      1537.7034
   1428795.53545   1113345.75646  24332615.8054   24332617.9384
     -4764.3594
   -740650.88645   -548528.23045  23970908.8364   23970911.7194
      2504.5164
   1232353.95245    947346.89145  24720814.7974   24720815.9344
     -4138.6564
   -721380.08745   -534309.01245  23955973.3054   23955976.0474
      2444.0314
    692036.54148    505183.38047  21373392.9454   21373394.1294
     -2363.3914
 06  4 21 10  1 30.0000000  0  9G 9G11G14G17G19G20G22G24G28
    -64391.67646    -47592.83046  23232033.3594   23232037.0274
       130.2664
    595120.72748    444195.53847  20759990.8524   20759991.8014
     -1861.0624
   -250578.86045   -191623.12345  24115295.4064   24115298.4654
       725.1724
   -505560.47847   -378483.14847  21998809.6724   21998811.4774
      1532.7814
   1571688.02945   1224690.47246  24359806.6644   24359808.5044
     -4761.8754
   -815782.92545   -607072.66445  23956611.0234   23956614.5864
      2504.1884
   1356574.24345   1044141.68145  24744451.9694   24744453.3754
     -4142.7974
   -794711.91545   -591450.73745  23942017.9454   23942021.6724
      2444.6724
    763117.48048    560571.16247  21386919.1484   21386920.6484
     -2375.3914
 06  4 21 10  2  0.0000000  0  9G 9G11G14G17G19G20G22G24G28
    -68069.49946    -50458.61546  23231333.4454   23231336.7624
       114.6884
    651124.39648    487834.73547  20770648.2664   20770649.0984
     -1872.7034
   -272177.84645   -208453.45945  24111184.8524   24111187.3364
       714.5634
   -551471.23548   -414257.71947  21990073.5704   21990075.2584
      1527.7344
   1714503.92445   1335975.51846  24386983.7344   24386985.7734
     -4759.3754
   -890904.20145   -665608.67045  23942316.1024   23942319.0314
      2503.6884
   1480917.33345   1141032.78145  24768114.2344   24768116.6484
     -4146.8754
   -868062.37845   -648606.88145  23928059.4774   23928062.4774
      2445.1564
    834556.40548    616237.85147  21400513.8754   21400515.2704
     -2387.3914
 06  4 21 10  2 30.0000000  0  9G 9G11G14G17G19G20G22G24G28
    -71268.35746    -52951.37646  23230725.1724   23230728.7464
        98.2344
    707489.05848    531755.24147  20781373.7424   20781374.6684
     -1885.2344
   -293444.70245   -225024.98345  24107139.7734   24107143.4064
       702.9064
   -597217.43148   -449904.12047  21981368.5234   21981370.4454
      1521.6884
   1857256.72245   1447211.40645  24414147.6334   24414150.5514
     -4757.7664
   -965996.72145   -724122.28045  23928026.1334   23928028.0904
      2502.1724
   1605393.99345   1238027.63245  24791800.8754   24791801.9774
     -4151.8914
   -941414.13145   -705764.03045  23914101.2504   23914103.9344
      2444.6414
    906367.70948    672194.67147  21414178.9844   21414180.3554
     -2400.3284
 06  4 21 10  3  0.0000000  0  9G 9G11G14G17G19G20G22G24G28
    -73971.50446    -55057.85046  23230210.6644   23230214.6024
        81.6884
    764229.02148    575968.17647  20792171.3914   20792172.3404
     -1897.7034
   -314361.82545   -241324.01745  24103158.7584   24103160.7504
       691.2814
   -642781.66247   -485408.67147  21972697.5864   21972699.5904
      1515.6414
   1999960.03445   1558408.73146  24441304.2664   24441306.6214
     -4756.0474
  -1041042.23145   -782599.24545  23913745.5164   23913748.8324
      2500.5944
   1730017.26445   1335136.24445  24815517.1484   24815518.5554
     -4156.6094
  -1014750.01245   -762908.90245  23900145.2424   23900148.6994
      2444.1254
    978566.09248    728453.15747  21427917.6954   21427919.2074
     -2413.1564
 06  4 21 10  3 30.0000000  0  9G 9G11G14G17G19G20G22G24G28
    -76164.92646    -56766.88946  23229793.6094   23229798.2154
        64.4844
    821355.90148    620482.64847  20803042.1564   20803043.0354
     -1910.7974
   -334914.72845   -257339.20545  24099247.4844   24099249.9574
       678.8594
   -688149.61748   -520760.24547  21964064.2584   21964066.0164
      1508.8444
   2142625.04845   1669576.21645  24468452.6564   24468455.7854
     -4754.9694
  -1116025.22445   -841027.51345  23899477.9844   23899480.6454
      2498.2194
   1854796.70945   1432366.32145  24839261.9614   24839263.7774
     -4162.0624
  -1088055.30445   -820029.90745  23886196.0164   23886199.6484
      2442.8444
   1051163.05448    785022.26547  21441732.7114   21441733.9654
     -2426.6564
 06  4 21 10  4  0.0000000  0  9G 9G11G14G17G19G20G22G24G28
    -77841.63846    -58073.40446  23229473.8134   23229477.7384
        47.1254
    878874.28848    665302.17347  20813987.8134   20813988.6454
     -1923.8914
   -355095.64045   -273064.51445  24095407.7274   24095410.3634
       666.3754
   -733314.08648   -555953.29747  21955469.4694   21955471.3794
      1501.9844
   2285255.84345   1780717.03045  24495593.9224   24495596.2664
     -4753.8444
  -1190937.20145   -899400.42545  23885222.6644   23885224.6914
      2495.7664
   1979737.95345   1529723.34745  24863036.7344   24863035.9614
     -4167.4064
  -1161322.44745   -877121.08145  23872253.1094   23872257.9024
      2441.5004
   1124163.30548    841905.57547  21455624.0554   21455625.5434
     -2440.1414
 06  4 21 10  4 30.0000000  0  9G 9G11G14G17G19G20G22G24G28
    -78986.34446    -58965.37246  23229256.0864   23229259.9304
        29.2034
    936797.22448    710436.91547  20825009.9454   20825010.6374
     -1937.5784
   -374888.82645   -288487.70145  24091640.4924   24091642.9414
       653.2034
   -778259.09348   -590975.29847  21946916.9304   21946918.6994
      1494.4064
   2427864.56345   1891840.66445  24522731.9304   24522734.5434
     -4753.3284
  -1265761.91445   -957705.34345  23870983.4774   23870985.7854
      2492.5944
   2104850.55845   1627213.93145  24886844.2814   24886846.8834
     -4173.3284
  -1234536.12145   -934170.71545  23858321.9064   23858325.7854
      2439.4694
   1197579.63848    899113.09947  21469594.6644   21469596.0944
     -2454.2034
 06  4 21 10  5  0.0000000  0  9G 9G11G14G17G19G20G22G24G28
    -79584.62346    -59431.32346  23229141.6884   23229145.4614
        10.8284
    995136.70848    755896.23247  20836111.4774   20836112.4614
     -1951.5784
   -394278.83945   -303596.82645  24087950.0084   24087953.1374
       639.5944
   -822969.48448   -625814.54947  21938408.7814   21938410.2114
      1486.4384
   2570462.65045   2002956.01845  24549867.1174   24549869.2034
     -4753.0784
  -1340483.04945  -1015929.54445  23856764.3674   23856767.1804
      2489.0004
   2230145.02945   1724846.13945  24910687.2734   24910688.7274
     -4179.5004
  -1307680.53645   -991166.17945  23844402.2344   23844406.5704
      2437.0004
   1271424.15048    956654.27647  21483646.9144   21483648.1914
     -2468.5944
 06  4 21 10  5 30.0000000  0  9G 9G11G14G17G19G20G22G24G28
    -79634.13746    -59469.84846  23229132.7974   23229136.5704
        -7.3594
   1053893.76548    801680.96147  20847292.6804   20847293.6644
     -1965.3594
   -413261.42245   -318388.41545  24084339.8524   24084342.0904
       626.0944
   -867441.87248   -660468.29147  21929945.8754   21929947.6564
      1478.5784
   2713050.31845   2114063.24145  24577001.9304   24577003.2074
     -4752.5784
  -1415095.89745  -1074069.40045  23842565.5474   23842569.6844
      2485.4064
   2355619.90645   1822618.71545  24934563.9384   24934566.1994
     -4185.3594
  -1380752.55045  -1048105.36745  23830497.6804   23830501.3484
      2434.6564
   1345697.83948   1014529.87447  21497780.5394   21497781.9454
     -2482.7664
 06  4 21 10  6  0.0000000  0  9G 9G11G14G17G19G20G22G24G28
    -79128.73446    -59076.04646  23229228.7504   23229233.1094
       -26.3124
   1113070.76848    847792.88547  20858553.3984   20858554.1724
     -1979.7974
   -431831.18845   -332858.26245  24080805.0634   24080807.1604
       611.8594
   -911670.71348   -694932.35347  21921529.3834   21921530.9884
      1469.9694
   2855629.84345   2225164.11145  24604133.3054   24604135.7544
     -4752.7344
  -1489594.00745  -1132119.85545  23828388.9454   23828391.8524
      2481.0944
   2481276.89845   1920533.09445  24958477.0474   24958477.4344
     -4191.8124
  -1453746.36745  -1104983.68245  23816608.5084   23816611.3674
      2431.5474
   1420403.28948   1072741.87547  21511996.6884   21511998.2234
     -2497.6094
 06  4 21 10  6 30.0000000  0  9G 9G11G14G17G19G20G22G24G28
    -78051.83346    -58236.97846  23229434.1724   23229438.3674
       -45.4534
   1172683.47048    894244.37047  20869897.3754   20869898.2424
     -1994.3594
   -449969.73545   -346992.12445  24077352.8444   24077355.0594
       597.3754
   -955637.72548   -729192.37147  21913163.1024   21913164.8244
      1461.1564
   2998215.68445   2336269.93745  24631265.5944   24631267.7384
     -4752.9844
  -1563958.15645  -1190065.89645  23814237.2974   23814240.1804
      2476.5164
   2607129.50945   2018599.89645  24982426.8284   24982428.6684
     -4198.3594
  -1526643.64745  -1161786.74245  23802736.0234   23802738.9774
      2428.2664
   1495555.64048   1131302.08047  21526297.8204   21526299.0394
     -2512.5474
 06  4 21 10  7  0.0000000  0  9G 9G11G14G17G19G20G22G24G28
    -76396.12446    -56947.03146  23229747.9614   23229751.0664
       -64.9374
   1232736.13148    941038.64347  20881325.0944   20881326.0904
     -2009.1414
   -467670.17645   -360784.69645  24073984.7504   24073986.8244
       582.5944
   -999335.48848   -763242.49847  21904847.4614   21904848.9494
      1452.0164
   3140811.52945   2447383.49545  24658402.0004   24658404.4734
     -4753.4064
  -1638179.98445  -1247901.04946  23800113.4774   23800116.4414
      2471.5944
   2733180.54445   2116821.03645  25006413.2734   25006415.3014
     -4205.1094
  -1599437.06045  -1218508.87345  23788883.2664   23788886.8054
      2424.6414
   1571158.96648   1190213.67147  21540684.5004   21540685.9184
     -2527.7034
 06  4 21 10  7 30.0000000  0  8G 9G11G14G17G19G20G24G28
    -74149.68046    -55196.53546  23230175.4534   23230179.4264
       -84.6724
   1293238.39048    988183.25947  20892838.3204   20892839.2704
     -2024.1414
   -484918.92945   -374225.15845  24070702.6024   24070705.2384
       567.4844
  -1042751.57048   -797073.16447  21896585.7344   21896587.1054
      1442.5784
   3283426.76845   2558512.19845  24685540.2034   24685542.7464
     -4754.0624
  -1712245.83245  -1305614.69946  23786020.1804   23786022.4184
      2466.3134
  -1672114.10745  -1275140.32745  23775052.7114   23775057.2114
      2420.7034
   1647223.84548   1249484.93047  21555159.1334   21555160.4344
     -2543.0784
 06  4 21 10  8  0.0000000  0  8G 9G11G14G17G19G20G24G28
    -71309.95446    -52983.49446  23230716.8284   23230720.2274
      -104.7664
   1354190.18648   1035678.14747  20904437.3834   20904438.3674
     -2039.4374
   -501713.32545   -387311.74145  24067506.1804   24067507.7384
       551.9844
  -1085883.10648   -830682.12047  21888377.7974   21888379.4024
      1432.7344
   3426061.09945   2669655.82145  24712682.8834   24712682.8594
     -4755.0164
  -1786151.94046  -1363203.81746  23771956.1414   23771959.1644
      2460.5944
  -1744671.66945  -1331678.70645  23761245.5164   23761249.9924
      2416.3444
   1723749.16048   1309114.75547  21569722.0704   21569723.3954
     -2558.7664
 06  4 21 10  8 30.0000000  0  8G 9G11G14G17G19G20G24G28
    -67873.94946    -50306.04646  23231371.0314   23231374.1024
      -124.5004
   1415593.00148   1083524.48947  20916121.7034   20916122.5824
     -2054.2664
   -518048.85145   -400040.72245  24064396.1174   24064398.4494
       536.8444
  -1128726.03648   -864066.27747  21880225.2664   21880226.7074
      1423.2814
   3568714.87345   2780814.53245  24739829.3284   24739830.2544
     -4755.4224
  -1859893.09646  -1420664.43246  23757923.6644   23757926.3594
      2455.2504
  -1817105.30245  -1388120.46845  23747461.6644   23747466.0594
      2412.3444
   1800737.33448   1369105.51247  21584372.5634   21584373.7344
     -2574.0004
 06  4 21 10  9  0.0000000  0  8G 9G11G14G17G19G20G24G28
    -63840.71846    -47163.24046  23232137.9384   23232141.7464
      -144.4374
   1477445.25148   1131721.04247  20927891.6884   20927892.9184
     -2069.2504
   -533923.74545   -412410.63745  24061376.5944   24061378.7624
       521.4534
  -1171278.23948   -897223.86147  21872127.8204   21872129.2854
      1413.5314
   3711386.13545   2891986.85545  24766978.6804   24766979.9344
     -4756.0164
  -1933466.54946  -1477994.37246  23743922.7424   23743925.3914
      2449.5944
  -1889413.63745  -1444464.65145  23733701.4534   23733704.7114
      2408.1254
   1878186.11848   1429455.17047  21599110.1334   21599111.6914
     -2589.2974
 06  4 21 10  9 30.0000000  0  8G 9G11G14G17G19G20G24G28
    -59203.43846    -43549.64746  23233020.2974   23233023.7544
      -164.8444
   1539751.22948   1180271.12847  20939748.2344   20939749.1954
     -2084.6094
   -549331.22145   -424416.44345  24058444.2584   24058447.5984
       505.5944
  -1213533.05748   -930149.64247  21864086.8524   21864088.4694
      1403.3284
   3854079.11945   3003176.22645  24794131.9384   24794133.6604
     -4756.9844
  -2006864.04846  -1535187.19746  23729955.8054   23729958.3834
      2443.4384
  -1961589.06946  -1500705.21946  23719968.4384   23719971.9884
      2403.3914
   1956100.08948   1490167.31747  21613936.9774   21613938.5704
     -2605.0624
 06  4 21 10 10  0.0000000  0  8G 9G11G14G17G19G20G24G28
    -53953.33346    -39458.78846  23234019.9064   23234022.9884
      -185.0944
   1602518.39748   1229180.61047  20951692.2894   20951693.4844
     -2099.7814
   -564260.69945   -436049.77545  24055603.5554   24055605.6174
       489.7974
  -1255480.45448   -962835.95447  21856104.8204   21856106.2734
      1393.2344
   3996800.21445   3114387.40845  24821292.4924   24821293.6524
     -4757.7034
  -2080074.65746  -1592234.42746  23716024.2814   23716026.8954
      2437.3444
  -2033621.24746  -1556834.17446  23706260.8754   23706265.2814
      2398.7974
   2034486.18948   1551247.20147  21628853.5634   21628855.1914
     -2620.6094
 06  4 21 10 10 30.0000000  0  8G 9G11G14G17G19G20G24G28
    -48090.78146    -34890.42746  23235135.1414   23235138.6214
      -205.7814
   1665743.50748   1278446.94347  20963723.6484   20963724.5864
     -2115.2664
   -578712.56745   -447310.92745  24052854.3364   24052856.8204
       473.5944
  -1297120.03948   -995282.37947  21848180.7894   21848182.3244
      1382.6884
   4139545.75345   3225617.61745  24848456.4384   24848456.3444
     -4758.7504
  -2153097.53846  -1649135.36846  23702128.9844   23702132.1024
      2430.7974
  -2105510.51546  -1612851.66646  23692581.1094   23692585.3754
      2393.7814
   2113341.41148   1612692.84947  21643858.7584   21643860.4804
     -2636.4534
 06  4 21 10 11  0.0000000  0  8G 9G11G14G17G19G20G24G28
    -41611.04246    -29841.26146  23236368.2664   23236372.4844
      -226.2814
   1729429.00548   1328071.90547  20975842.5704   20975843.9184
     -2130.5314
   -592680.60745   -458195.16945  24050195.0634   24050197.2074
       457.5004
  -1338446.13448  -1027484.49647  21840316.6804   21840318.1334
      1372.2814
   4282318.54845   3336869.10945  24875625.2974   24875624.5824
     -4759.5314
  -2225925.56046  -1705884.46446  23688269.2504   23688272.2034
      2424.3134
  -2177251.27846  -1668753.59846  23678928.9694   23678932.6724
      2388.8444
   2192668.38348   1674506.03147  21658954.7734   21658956.1684
     -2652.1094
 06  4 21 10 11 30.0000000  0  8G 9G11G14G17G19G20G24G28
    -34507.56946    -24306.20346  23237719.5784   23237722.6724
      -247.2504
   1793580.11548   1378059.68047  20988050.3444   20988051.2584
     -2146.1874
   -606157.06045   -468696.32545  24047630.3594   24047632.0474
       440.9384
  -1379450.83348  -1059436.15247  21832513.6644   21832515.1054
      1361.3914
   4425122.60445   3448144.93745  24902798.8444   24902797.5084
     -4760.6724
  -2298549.99646  -1762474.91546  23674449.6334   23674452.9024
      2417.3134
  -2248835.21946  -1724533.27446  23665306.2974   23665310.1644
      2383.4384
   2272471.77148   1736690.36747  21674140.6884   21674142.0704
     -2668.1094
 06  4 21 10 12  0.0000000  0  8G 9G11G14G17G19G20G24G28
    -26775.26946    -18281.08446  23239191.0004   23239194.6914
      -268.1874
   1858199.04148   1428412.10147  21000346.9064   21000347.9964
     -2161.7194
   -619136.92645   -478810.47245  24045161.7814   24045164.6524
       424.3754
  -1420129.41148  -1091133.70947  21824772.8054   21824774.4344
      1350.5164
   4567959.56445   3559446.38945  24929979.6254   24929980.0594
     -4761.7344
  -2370964.57146  -1818901.80046  23660669.4144   23660672.2034
      2410.3284
  -2320257.32246  -1780186.84846  23651715.2274   23651719.5514
      2378.0314
   2352754.07647   1799248.11347  21689417.2894   21689419.0944
     -2684.0164
 06  4 21 10 12 30.0000000  0  8G 9G11G14G17G19G20G24G28
    -18412.98146    -11764.97346  23240782.3444   23240785.4844
      -289.3284
   1923285.18148   1479128.55047  21012732.3594   21012733.3794
     -2177.3754
   -631617.37245   -488535.42645  24042785.5784   24042787.9804
       407.6094
  -1460479.27448  -1122575.13747  21817094.5164   21817096.0984
      1339.4384
   4710828.88944   3670773.13545  24957166.5864   24957167.1134
     -4762.8754
  -2443166.05446  -1875162.68446  23646930.6024   23646933.4384
      2403.0474
  -2391514.65346  -1835712.07846  23638156.1174   23638159.7734
      2372.4064
   2433514.46448   1862178.42147  21704785.6094   21704787.4144
     -2700.0164
 06  4 21 10 13  0.0010000  0  8G 9G11G14G17G19G20G24G28
     -9409.45146     -4749.25446  23242496.4274   23242500.1534
      -310.8444
   1988849.36748   1530217.54247  21025208.8564   21025209.5714
     -2193.3594
   -643587.58045   -497862.88345  24040509.0834   24040511.9664
       390.4064
  -1500490.04448  -1153752.35647  21809480.9504   21809482.6264
      1327.9064
   4853743.15943   3782134.81045  24984361.6694   24984363.1464
     -4764.3444
  -2515143.88846  -1931249.29746  23633233.2004   23633235.5564
      2395.3284
  -2462597.98146  -1891101.66846  23624628.9114   23624632.6144
      2366.3754
   2514764.06448   1925489.90847  21720247.2004   21720248.5014
     -2716.3754
 06  4 21 10 13 30.0010000  0  8G 9G11G14G17G19G20G24G28
       236.63946      2767.22346  23244332.6854   23244335.9664
      -332.2344
   2054887.11848   1581675.55547  21037775.7004   21037776.4384
     -2209.1564
   -655043.72546   -506789.81845  24038330.2944   24038331.0674
       373.2974
  -1540155.94248  -1184660.89747  21801932.8024   21801934.3964
      1316.4694
   4996693.02343   3893524.31245  25011564.3494   25011564.9584
     -4765.6254
  -2586889.41446  -1987154.88446  23619580.2864   23619582.7474
      2387.6564
  -2533499.66846  -1946349.81946  23611136.6854   23611139.5324
      2360.3754
   2596497.07248   1989177.77247  21735800.4274   21735801.9854
     -2732.5004
 06  4 21 10 14  0.0010000  0  8G 9G11G14G17G19G20G24G28
     10532.41146     10789.92246  23246291.2004   23246294.7984
      -354.0784
   2121405.42448   1633508.02147  21050433.5134   21050434.5324
     -2225.3444
   -665978.25645   -515310.26345  24036247.1464   24036249.7474
       355.6884
  -1579470.66548  -1215295.76547  21794451.2714   21794452.9934
      1304.5314
   5139687.47643   4004948.52645  25038775.1694   25038776.7284
     -4767.2974
  -2658396.12246  -2042874.37346  23605973.2554   23605975.8104
      2379.4694
  -2604214.10946  -2001451.93746  23597680.2714   23597683.4704
      2353.9534
   2678720.94547   2053248.16747  21751447.0214   21751448.6854
     -2749.0474
 06  4 21 10 14 30.0010000  0  7G 9G11G14G17G20G24G28
     21475.52046     19316.97546  23248373.2314   23248376.5244
      -375.5944
   2188400.15348   1685711.61147  21063182.0134   21063183.0444
     -2241.1254
   -676392.20245   -523424.97845  24034265.8644   24034269.0874
       338.4064
  -1618435.09948  -1245657.70947  21787036.7714   21787038.3064
      1292.9224
  -2729663.90446  -2098407.66346  23592411.5754   23592414.0134
      2371.5474
  -2674742.33846  -2056409.02946  23584258.8254   23584262.1064
      2347.7814
   2761432.24048   2117698.66047  21767186.7864   21767188.0754
     -2765.1724
 06  4 21 10 15  0.0010000  0  7G 9G11G14G17G20G24G28
     33074.42746     28355.06846  23250579.3254   23250582.9114
      -397.5944
   2255877.62048   1738291.43547  21076022.6614   21076023.7864
     -2257.2974
   -686276.87345   -531127.30245  24032384.8174   24032387.9814
       320.6094
  -1657040.18748  -1275739.56047  21779690.2004   21779692.0634
      1280.8134
  -2800682.92046  -2153747.11746  23578896.2714   23578899.3644
      2363.0944
  -2745074.88346  -2111213.57646  23570875.1384   23570879.4504
      2341.1254
   2844636.66848   2182533.47947  21783019.6854   21783021.1854
     -2781.7034
 06  4 21 10 15 30.0010000  0  7G 9G11G14G17G20G24G28
     45327.61846     37903.01046  23252912.5054   23252915.8564
      -419.4224
   2323834.05248   1791244.54747  21088954.4274   21088955.3064
     -2273.2664
   -695632.88246   -538417.68745  24030604.8644   24030606.9744
       302.9694
  -1695286.63848  -1305542.00647  21772412.1534   21772413.9814
      1268.7974
  -2871452.38946  -2208892.14346  23565429.7004   23565431.9854
      2354.7194
  -2815212.30846  -2165866.07246  23557528.3644   23557532.5134
      2334.5634
   2928330.43647   2247749.68947  21798945.4814   21798947.4504
     -2798.0004
 06  4 21 10 16  0.0010000  0  7G 9G11G14G17G20G24G28
     58235.87646     47961.44546  23255368.8494   23255372.2244
      -441.2194
   2392267.98748   1844569.72747  21101976.8174   21101977.7314
     -2289.1094
   -704458.36946   -545294.61745  24028925.0524   24028927.3134
       285.2814
  -1733172.61048  -1335063.57147  21765202.6854   21765204.5134
      1256.7974
  -2941969.47346  -2263840.49646  23552010.9584   23552013.5714
      2346.2974
  -2885152.84146  -2220365.14146  23544218.6534   23544222.8844
      2328.0164
   3012511.26048   2313345.02347  21814964.9114   21814966.5524
     -2814.1724
 06  4 21 10 16 30.0010000  0  7G 9G11G14G17G20G24G28
     71803.39246     58533.50046  23257950.6144   23257954.0604
      -463.4224
   2461181.74548   1898268.83647  21115090.4354   21115091.2434
     -2305.3124
   -712748.26245   -551754.08245  24027346.3964   24027347.8724
       267.1724
  -1770692.68048  -1364299.94047  21758062.8174   21758064.5754
      1244.3444
  -3012228.13646  -2318587.48746  23538641.2004   23538644.0134
      2337.4064
  -2954890.93046  -2274706.50946  23530948.0994   23530951.8254
      2320.9844
   3097181.78148   2379322.07847  21831077.7864   21831079.3804
     -2830.7034
 06  4 21 10 17  0.0010000  0  7G 9G11G14G17G20G24G28
     86031.27346     69619.85546  23260658.2944   23260661.3644
      -485.3914
   2530575.38048   1952341.88247  21128295.8104   21128296.7354
     -2321.2034
   -720500.01546   -557794.26645  24025872.6304   24025874.2944
       249.2974
  -1807844.25048  -1393249.26547  21750993.3024   21750995.0714
      1232.1254
  -3082224.34846  -2373129.94946  23525321.9504   23525323.7084
      2328.7034
  -3024423.32446  -2328887.45346  23517716.9744   23517721.3564
      2314.2194
   3182342.08448   2445680.78047  21847282.6694   21847284.4154
     -2846.9224
 06  4 21 10 17 30.0010000  0  7G 9G11G14G17G20G24G28
    100923.28046     81224.07246  23263491.9744   23263495.4784
      -507.4844
   2600448.96948   2006788.76847  21141592.5754   21141594.0754
     -2337.1094
   -727709.60645   -563412.01545  24024499.4814   24024501.9894
       231.2664
  -1844623.22948  -1421908.26347  21743994.4814   21743996.1104
      1219.7344
  -3151952.94946  -2427463.91346  23512052.5914   23512054.6534
      2319.7664
  -3093746.57346  -2382905.60246  23504525.1224   23504529.2354
      2307.2504
   3267992.58748   2512421.36347  21863581.5214   21863583.2674
     -2863.2034
 06  4 21 10 18  0.0010000  0  7G 9G11G14G17G20G24G28
    116481.49446     93347.35746  23266452.6304   23266456.3214
      -529.6414
   2670804.18148   2061610.95547  21154980.7004   21154981.2864
     -2353.0624
   -734373.61446   -568604.71045  24023232.1464   24023233.2944
       213.1094
  -1881025.78548  -1450273.86647  21737067.0134   21737068.7824
      1207.2344
  -3221409.21446  -2481585.65646  23498835.4584   23498838.3534
      2310.7344
  -3162856.15046  -2436757.10546  23491374.3804   23491378.0244
      2300.1724
   3354134.19648   2579544.78747  21879973.7634   21879975.2044
     -2879.4534
 06  4 21 10 18 30.0010000  0  7G 9G11G14G17G20G24G28
    132704.87346    105989.05446  23269539.4354   23269543.1494
      -551.9224
   2741637.04548   2116805.28047  21168459.5444   21168460.5874
     -2369.1094
   -740492.55546   -573372.77245  24022068.2474   24022070.2634
       194.8134
  -1917051.77248  -1478346.05947  21730211.7554   21730213.4544
      1194.5164
  -3290592.00346  -2535494.28346  23485670.3644   23485673.2474
      2301.4224
  -3231752.57346  -2490442.54946  23478263.4974   23478267.2474
      2292.8914
   3440763.17648   2647047.85947  21896458.8334   21896460.2044
     -2895.8124
 06  4 21 10 19  0.0010000  0  7G 9G11G14G17G20G24G28
    149593.48946    119149.14546  23272753.5054   23272756.9744
      -573.9694
   2812945.83548   2172370.54747  21182029.5604   21182030.2744
     -2384.8124
   -746065.64045   -577715.69345  24021007.0214   24021008.7554
       176.6884
  -1952700.64448  -1506124.53447  21723428.0444   21723429.7674
      1182.0474
  -3359499.58546  -2589188.48746  23472556.9354   23472560.0404
      2292.3914
  -3300434.42546  -2543960.79146  23465193.1144   23465197.1924
      2285.8594
   3527877.33347   2714929.08247  21913035.6924   21913037.3214
     -2911.8124
 06  4 21 10 19 30.0010000  0  7G 9G11G14G17G20G24G28
    167150.69246    132830.13546  23276094.5444   23276098.2944
      -596.1254
   2884733.08848   2228308.68347  21195690.1774   21195690.9624
     -2400.5944
   -751086.94345   -581628.31745  24020049.3024   24020051.6344
       158.4384
  -1987966.93148  -1533604.76847  21716717.2864   21716718.9624
      1169.4384
  -3428125.48446  -2642663.17446  23459498.3104   23459500.9584
      2283.0634
  -3368896.19146  -2597307.54346  23452165.5134   23452170.3414
      2278.6414
   3615478.85248   2783190.02047  21929705.8564   21929707.2744
     -2927.8914
 06  4 21 10 20  0.0010000  0  7G 9G11G14G17G20G24G28
    185378.71346    147033.83146  23279563.0054   23279566.7784
      -618.8754
   2956998.89148   2284619.69647  21209441.7394   21209442.3494
     -2416.9064
   -755553.64545   -585108.79345  24019201.7394   24019203.9544
       139.5164
  -2022847.23248  -1560784.24747  21710079.4424   21710081.4114
      1156.1254
  -3496464.99946  -2695914.72746  23446493.5994   23446496.1884
      2273.0944
  -3437134.34946  -2650480.09946  23439180.5674   23439184.7514
      2270.7664
   3703567.85548   2851830.74347  21946469.0284   21946470.3534
     -2944.4844
 06  4 21 10 20 30.0010000  0  7G 9G11G14G17G20G24G28
    204280.16846    161762.19446  23283159.8564   23283163.8064
      -641.2194
   3029743.83748   2341304.04847  21223284.5054   21223285.4784
     -2432.7664
   -759463.04746   -588155.30745  24018457.9274   24018461.0324
       121.0474
  -2057337.12248  -1587659.48547  21703516.4894   21703518.3994
      1143.1884
  -3564513.11246  -2748939.21246  23433543.2714   23433546.5634
      2263.4224
  -3505145.06146  -2703475.43746  23426239.2864   23426243.3174
      2263.2504
   3792144.75448   2920851.69147  21963324.5444   21963326.1614
     -2960.6414
 06  4 21 10 21  0.0010000  0  7G 9G11G14G17G20G24G28
    223856.97546    177016.86346  23286885.2554   23286888.8884
      -663.7194
   3102967.65848   2398361.54247  21237218.9974   21237219.7244
     -2448.6724
   -762811.26045   -590764.17645  24017820.5674   24017821.7984
       102.3284
  -2091434.12648  -1614228.63947  21697028.0524   21697029.8924
      1130.0784
  -3632265.79846  -2801733.46646  23420651.6614   23420654.4274
      2253.5474
  -3572925.18946  -2756291.12846  23413340.5214   23413344.4934
      2255.5634
   3881209.69247   2990252.94646  21980272.8644   21980274.5284
     -2976.8594
 06  4 21 10 21 30.0010000  0  7G 9G11G14G17G20G24G28
    244104.85646    192794.28746  23290738.1614   23290741.4194
      -686.1094
   3176664.64648   2455787.77147  21251243.0834   21251243.7744
     -2464.4844
   -765601.74845   -592938.68045  24017287.8254   24017291.6464
        83.6414
  -2125141.22748  -1640493.97147  21690613.8804   21690615.7904
      1117.0004
  -3699725.05846  -2854299.08946  23407814.4664   23407817.8294
      2243.6884
  -3640477.38846  -2808929.17846  23400485.3414   23400488.7984
      2247.8914
   3970756.21547   3060029.49146  21997312.7784   21997314.1264
     -2992.9374
 06  4 21 10 22  0.0010000  0  7G 9G11G14G17G20G24G28
    265026.82746    209097.08346  23294719.4894   23294723.8134
      -708.5474
   3250835.66748   2513583.32247  21265357.0674   21265357.8644
     -2480.1724
   -767831.06646   -594675.75345  24016866.1144   24016869.2674
        65.0004
  -2158454.03648  -1666451.98647  21684274.2714   21684276.1104
      1103.9064
  -3766885.97446  -2906632.21146  23395034.7554   23395037.2164
      2233.7504
  -3707797.58146  -2861386.44646  23387673.8254   23387677.4814
      2240.1884
   4060784.99547   3130181.78446  22014444.6144   22014446.0324
     -3008.9064
 06  4 21 10 22 30.0010000  0  7G 9G11G14G17G20G24G28
    286620.79146    225923.29146  23298829.2714   23298831.9424
      -731.1414
   3325477.23048   2571745.57847  21279560.9274   21279561.9354
     -2495.9694
   -769499.59345   -595975.89345  24016547.4744   24016550.0174
        46.1724
  -2191372.97048  -1692103.09947  21678010.1774   21678012.1814
      1090.6254
  -3833747.47046  -2958732.03046  23382311.0914   23382313.5404
      2223.6094
  -3774885.53446  -2913662.66846  23374907.9504   23374912.0054
      2232.2974
   4151292.57347   3200707.19246  22031667.5284   22031669.3564
     -3024.9694
 06  4 21 10 23  0.0010000  0  7G 9G11G14G17G20G24G28
    308895.75446    243280.53246  23303068.3884   23303073.4624
      -753.8444
   3400595.57648   2630279.38947  21293855.5604   21293856.2744
     -2511.9064
   -770598.32745   -596832.13345  24016338.6304   24016340.1534
        27.0944
  -2223888.42948  -1717439.81147  21671822.7004   21671824.6814
      1077.0634
  -3900298.85146  -3010590.21846  23369646.8334   23369649.4114
      2213.1254
  -3841731.97946  -2965750.88746  23362187.5284   23362191.0214
      2224.1414
   4242285.27447   3271610.58046  22048983.1854   22048984.8254
     -3041.1724
 06  4 21 10 23 30.0010000  0  7G 9G11G14G17G20G24G28
    331852.29746    261168.79246  23307436.3254   23307440.4034
      -776.3594
   3476191.31648   2689185.15747  21308240.8964   21308241.5634
     -2527.5624
   -771123.93645   -597241.77045  24016239.2394   24016242.6614
         8.1724
  -2255996.50148  -1742459.04047  21665712.7244   21665714.5174
      1063.7034
  -3966535.15046  -3062202.90546  23357041.8644   23357044.2784
      2202.8284
  -3908332.95246  -3017647.69446  23349514.0994   23349518.2714
      2216.1414
   4333763.25647   3342892.20546  22066390.9974   22066392.4154
     -3057.0944
 06  4 21 10 24  0.0010000  0  7G 9G11G14G17G20G24G28
    355482.62646    279581.82346  23311933.0834   23311936.4114
      -798.8754
   3552253.99748   2748454.78647  21322714.9744   21322716.0874
     -2543.0944
   -771084.13345   -597210.95945  24016246.7944   24016250.5214
       -10.6564
  -2287704.96348  -1767166.87247  21659678.5444   21659680.5484
      1050.3754
  -4032463.04046  -3113575.25746  23344496.1854   23344498.7284
      2192.5164
  -3974695.44046  -3069358.68146  23336886.0214   23336888.7044
      2208.2034
   4425715.76147   3414543.46646  22083888.7944   22083890.1424
     -3072.8594
 06  4 21 10 24 30.0010000  0  7G 9G11G14G17G20G24G28
    379794.13546    298526.01246  23316559.9034   23316562.6574
      -821.6874
   3628788.82748   2808092.28747  21337279.3724   21337280.2864
     -2558.9844
   -770470.45646   -596732.80345  24016364.4974   24016366.2314
       -30.0164
  -2319005.19648  -1791556.70747  21653722.5914   21653724.4074
      1036.5314
  -4098073.01846  -3164699.87346  23332011.5444   23332014.0754
      2181.7034
  -4040810.86146  -3120877.14046  23324304.7634   23324308.5014
      2199.7344
   4518147.59747   3486568.25246  22101477.9814   22101479.3994
     -3089.0004
 06  4 21 10 25  0.0010000  0  7G 9G11G14G17G20G24G28
    404784.42746    317998.96746  23321315.2084   23321319.2044
      -844.3754
   3705792.42148   2868095.08347  21351932.5444   21351933.4934
     -2574.6254
   -769283.99946   -595808.34545  24016590.0284   24016592.7594
       -49.0944
  -2349897.25048  -1815628.39347  21647843.8964   21647845.7244
      1022.8914
  -4163364.42346  -3215576.27146  23319586.8024   23319589.9894
      2170.9844
  -4106679.58546  -3172203.38346  23311769.6304   23311773.4624
      2191.4534
   4611055.59147   3558964.02646  22119158.0364   22119159.4894
     -3104.8914
 06  4 21 10 25 30.0010000  0  7G 9G11G14G17G20G24G28
    430450.99146    337999.19246  23326198.6064   23326202.5564
      -866.9064
   3783260.32248   2928459.58947  21366674.2314   21366675.4384
     -2590.0944
   -767526.78345   -594439.54645  24016924.0134   24016925.3964
       -68.2344
  -2380382.65548  -1839383.22547  21642042.9354   21642044.7164
      1009.2814
  -4228336.66346  -3266203.98546  23307223.1614   23307225.5994
      2160.2974
  -4172302.66246  -3223338.20446  23299282.0284   23299286.4354
      2183.2194
   4704435.12347   3631727.20446  22136927.4974   22136928.9854
     -3120.5784
 06  4 21 10 26  0.0010000  0  8G 1G 9G11G14G17G20G24G28
                                  25225356.0284
      1905.3444
    456797.98846    358529.25646  23331211.7784   23331215.7514
      -889.7034
   3861195.71148   2989188.45547  21381504.8254   21381506.0324
     -2605.7194
   -765191.87745   -592619.91445  24017368.4504   24017371.4624
       -87.5474
  -2410455.19148  -1862816.35747  21636320.2244   21636322.0174
       995.4064
  -4292982.88546  -3316577.62146  23294921.5054   23294924.0134
      2149.2974
  -4237673.62646  -3274276.57046  23286842.3564   23286845.4854
      2174.6884
   4798288.80047   3704859.90546  22154787.1534   22154788.4784
     -3136.4844
 06  4 21 10 26 30.0010000  0  8G 1G 9G11G14G17G20G24G28
    -55120.47645                  25214499.5754
      1896.2814
    483824.18246    379588.69846  23336354.9114   23336358.7554
      -912.2664
   3939595.34048   3050279.04447  21396423.8644   21396424.8964
     -2621.1094
   -762280.72646   -590351.53145  24017922.8494   24017924.0674
      -106.7194
  -2440114.71948  -1885927.71747  21630676.2474   21630678.0874
       981.6884
  -4357301.73046  -3366696.16046  23282681.6464   23282683.8964
      2138.4064
  -4302792.18746  -3325018.22346  23274451.0444   23274454.5134
      2166.3134
   4892613.45047   3778359.61746  22172736.5524   22172738.0404
     -3152.0474
 06  4 21 10 27  0.0010000  0  8G 1G 9G11G14G17G20G24G28
   -111869.18745     -1469.58945  25203700.0994   25203704.7984
      1887.0164
    511533.06146    401180.00146  23341628.6694   23341631.8334
      -934.9224
   4018461.00748   3111732.78547  21411431.6774   21411432.6494
     -2636.5164
   -758788.45146   -587630.25245  24018586.6774   24018589.1384
      -126.0314
  -2469356.10348  -1908713.21547  21625111.4894   21625113.5524
       967.8284
  -4421287.36146  -3416555.05346  23270505.3104   23270507.6774
      2127.3594
  -4367653.34846  -3375559.36846  23262108.5604   23262112.0174
      2157.8134
   4987410.72647   3852227.71246  22190776.0284   22190777.4234
     -3167.7034
 06  4 21 10 27 30.0010000  0  8G 1G 9G11G14G17G20G24G28
   -168337.33545    -45470.68845  25192955.8804   25192959.4194
      1877.5634
    539923.38246    423302.25846  23347030.9114   23347034.0054
      -957.7034
   4097789.68348   3173547.34047  21426527.1224   21426528.3534
     -2651.9844
   -754715.45345   -584456.48445  24019361.9504   24019364.5284
      -145.4694
  -2498179.12148  -1931172.71847  21619626.9034   21619629.0134
       953.7814
  -4484938.57146  -3466153.38746  23258393.6464   23258395.8604
      2116.0944
  -4432256.61746  -3425899.71246  23249815.3254   23249818.6424
      2149.1254
   5082677.86147   3926461.81046  22208904.6694   22208905.9464
     -3183.3754
 06  4 21 10 28  0.0010000  0  8G 1G 9G11G14G17G20G24G28
   -224524.20245    -89252.62645  25182264.6224   25182269.7434
      1868.0634
    568993.01146    445953.86146  23352562.5914   23352566.2004
      -980.3914
   4177578.00048   3235720.01647  21441710.1694   21441711.6694
     -2667.3594
   -750062.37345   -580830.67945  24020247.4034   24020250.3334
      -164.8914
  -2526584.18148  -1953306.54847  21614221.6464   21614223.5914
       939.7344
  -4548254.29146  -3515490.27746  23246345.2004   23246347.3454
      2104.7974
  -4496602.29146  -3476039.24846  23237570.3254   23237573.7594
      2140.4384
   5178410.95948   4001059.07446  22227122.2084   22227123.4504
     -3198.9224
 06  4 21 10 28 30.0010000  0  8G 1G 9G11G14G17G20G24G28
   -280421.80045   -132809.14845  25171626.0364   25171629.9624
      1858.3284
    598746.12046    469137.78846  23358224.7314   23358228.3414
     -1003.2504
   4257829.63248   3298253.76947  21456981.8804   21456982.9934
     -2682.8444
   -744823.38745   -576748.38245  24021243.3174   24021245.8024
      -184.5164
  -2554564.51948  -1975109.40347  21608897.1064   21608899.1814
       925.5004
  -4611227.17146  -3564560.02846  23234361.5604   23234364.1614
      2093.2664
  -4560683.35846  -3525972.56446  23225375.9354   23225379.3104
      2131.5004
   5274611.99248   4076020.83546  22245429.1694   22245430.1884
     -3214.5784
 06  4 21 10 29  0.0010000  0  8G 1G 9G11G14G17G20G24G28
   -336031.13243   -176141.06945  25161041.3334   25161045.4234
      1849.0004
    629180.52446    492853.18546  23364015.5674   23364019.1424
     -1025.7034
   4338538.73648   3361144.01447  21472340.4424   21472341.3104
     -2697.7504
   -739000.96645   -572211.44346  24022351.9114   24022354.8644
      -203.6564
  -2582122.44848  -1996583.10847  21603652.9424   21603654.7124
       911.6884
  -4673857.88346  -3613363.13946  23222442.7944   23222445.1854
      2082.1094
  -4624501.77046  -3575701.12446  23213231.5364   23213235.3564
      2123.0474
   5371276.02747   4151343.43846  22263823.4894   22263824.7084
     -3229.6874
 06  4 21 10 29 30.0010000  0  8G 1G 9G11G14G17G20G24G28
   -391349.85444   -219246.53345  25150516.5834   25150523.2164
      1839.0164
    660294.43546    517097.77046  23369936.7004   23369940.3804
     -1048.5164
   4419703.44148   3424389.24147  21487785.3024   21487786.5674
     -2713.1094
   -732594.40845   -567219.35245  24023569.3494   24023572.4194
      -223.3284
  -2609256.50948  -2017726.53747  21598489.5444   21598491.5244
       897.3594
  -4736144.33846  -3661898.05846  23210589.8414   23210592.7714
      2070.3914
  -4688056.13246  -3625224.02346  23201137.4584   23201140.6694
      2114.0164
   5468401.46147   4227025.53346  22282305.4744   22282307.0214
     -3245.2344
 06  4 21 10 30  0.0010000  0  8G 1G 9G11G14G17G20G24G28
   -446374.68244   -262122.91945  25140047.0674   25140050.7824
      1829.2504
    692088.01146    541871.83646  23375986.7164   23375990.3134
     -1071.1094
   4501322.40148   3487988.39547  21503316.7244   21503317.9314
     -2728.1724
   -725602.53045   -561771.13845  24024900.4584   24024903.7284
      -242.8284
  -2635965.04548  -2038538.38847  21593407.2164   21593409.1854
       883.1884
  -4798083.46146  -3710162.29246  23198803.1924   23198806.3804
      2058.8284
  -4751344.36146  -3674539.48746  23189094.3564   23189097.5794
      2105.1724
   5565986.44647   4303065.76046  22300875.6304   22300877.0714
     -3260.4374
 06  4 21 10 30 30.0010000  0  8G 1G 9G11G14G17G20G24G28
   -501098.40944   -304764.75645  25129632.7784   25129637.2554
      1819.1094
    724565.89246    567179.36246  23382167.9034   23382170.7634
     -1093.9374
   4583398.80148   3551944.02147  21518935.6144   21518936.8564
     -2743.4374
   -718019.75346   -555862.45046  24026344.8104   24026347.8804
      -262.5624
  -2662241.81648  -2059013.79547  21588406.7634   21588408.5444
       868.7194
  -4859667.99146  -3758150.22746  23187084.2714   23187087.4114
      2046.9224
  -4814360.09946  -3723642.63246  23177102.4424   23177106.1224
      2096.0164
   5664033.67047   4379466.18846  22319533.5674   22319534.7394
     -3275.8914
 06  4 21 10 31  0.0010000  0  8G 1G 9G11G14G17G20G24G28
   -555521.73145   -347172.51245  25119274.8254   25119278.6814
      1809.0784
    757724.94246    593017.82746  23388477.6854   23388481.1064
     -1116.6414
   4665926.93048   3616251.62647  21534640.0674   21534641.2514
     -2758.4534
   -709848.77346   -549495.52446  24027900.0834   24027900.7634
      -282.2034
  -2688088.94348  -2079154.44647  21583488.3964   21583490.1884
       854.3754
  -4920898.82946  -3805862.53846  23175432.3334   23175434.7594
      2035.1094
  -4877105.29946  -3772534.90646  23165162.3964   23165166.4744
      2086.9844
   5762537.70047   4456222.54246  22338278.0754   22338279.2474
     -3291.0474
 06  4 21 10 31 30.0010000  0  8G 1G 9G11G14G17G20G24G28
   -609643.00244   -389344.85945  25108976.7084   25108983.2474
      1798.9224
    791562.60446    619384.77246  23394915.9424   23394919.0954
     -1139.2664
   4748904.31548   3680909.32347  21550430.2314   21550431.5324
     -2773.4374
   -701089.69346   -542670.15545  24029566.1064   24029567.8534
      -301.8284
  -2713505.89348  -2098959.89247  21578651.7784   21578653.5834
       839.9844
  -4981774.61646  -3853298.19846  23163848.3104   23163851.2284
      2023.2034
  -4939579.45646  -3821216.00546  23153274.3564   23153278.2944
      2077.8754
   5861494.71347   4533331.89946  22357108.7634   22357109.9464
     -3306.1564
 06  4 21 10 32  0.0010000  0  8G 1G 9G11G14G17G20G24G28
   -663453.85745   -431275.38845  25098738.5994   25098743.0754
      1788.4694
    826084.48246    646284.91746  23401486.1304   23401488.6144
     -1162.1414
   4832334.86648   3745920.13947  21566306.7244   21566307.9894
     -2788.5624
   -691736.64646   -535382.17245  24031346.4814   24031349.5284
      -321.7034
  -2738485.54248  -2118424.57347  21573898.4664   21573900.0364
       825.3284
  -5042287.09046  -3900450.78046  23152333.0134   23152335.6964
      2010.9844
  -5001774.80147  -3869679.88846  23141439.0674   23141442.9234
      2068.5004
   5960909.33947   4610797.94746  22376026.7714   22376028.0604
     -3321.4374
 06  4 21 10 32 30.0010000  0  8G 1G 9G11G14G17G20G24G28
   -716952.67644   -472962.80345  25088555.3414   25088561.5054
      1778.0634
    861289.13846    673717.04446  23408184.8174   23408188.1344
     -1184.8914
   4916215.62348   3811281.77947  21582268.4194   21582269.6614
     -2803.5164
   -681789.24645   -527630.99546  24033238.3724   24033241.0914
      -341.5004
  -2763027.50348  -2137548.19147  21569228.0754   21569229.4584
       810.7504
  -5102434.80146  -3947319.06846  23140887.5054   23140889.5094
      1998.8134
  -5063690.89347  -3917926.16546  23129656.9274   23129660.1384
      2059.2034
   6060778.43247   4688618.02946  22395031.3334   22395032.4584
     -3336.5164
 06  4 21 10 33  0.0010000  0  8G 1G 9G11G14G17G20G24G28
   -770136.21444   -514404.42445  25078434.6694   25078439.1464
      1767.3594
    897176.91446    701681.60846  23415014.2394   23415018.0244
     -1207.7504
   5000545.50648   3876993.33747  21598315.8804   21598317.3804
     -2818.5944
   -671246.40745   -519415.86246  24035244.5284   24035246.9894
      -361.5004
  -2787129.72348  -2156329.12647  21564641.3964   21564643.0134
       795.9224
  -5162214.55947  -3993900.67546  23129512.0524   23129514.0674
      1986.3594
  -5125325.97047  -3965953.46346  23117927.4894   23117930.8534
      2049.6724
   6161099.96147   4766790.62446  22414121.8884   22414123.0364
     -3351.7034
 06  4 21 10 33 30.0010000  0  8G 1G 9G11G14G17G20G24G28
   -822999.20944   -555596.32245  25068374.7864   25068378.6064
      1756.5474
    933749.79446    730180.01646  23421973.3254   23421976.8064
     -1230.6874
   5085325.34248   3943055.57047  21614448.7474   21614450.0714
     -2833.6414
   -660104.88346   -510734.21645  24037365.3804   24037367.4194
      -381.5474
  -2810788.45648  -2174764.47047  21560139.3174   21560141.1344
       781.0314
  -5221621.27047  -4040191.60046  23118207.6064   23118209.8334
      1973.7814
  -5186675.64246  -4013758.42246  23106253.1534   23106257.1384
      2040.0314
   6261874.18747   4845315.98846  22433298.3724   22433299.7554
     -3366.8594
 06  4 21 10 34  0.0010000  0  8G 1G 9G11G14G17G20G24G28
   -875538.82845   -596536.21045  25058378.6144   25058383.5714
      1745.9384
    971006.84146    759211.34646  23429063.6144   23429067.3764
     -1253.2664
   5170553.24848   4009466.90247  21630667.8414   21630668.7904
     -2848.3444
   -648363.37146   -501584.89246  24039600.5914   24039603.7784
      -401.3444
  -2834001.81348  -2192852.72247  21555722.1614   21555723.8844
       766.3754
  -5280652.20146  -4086189.67246  23106973.6384   23106976.2394
      1961.4534
  -5247738.02447  -4061339.49746  23094633.3414   23094637.1034
      2030.6414
   6363099.87147   4924193.15346  22452561.0054   22452562.6224
     -3381.6564
 06  4 21 10 34 30.0010000  0  8G 1G 9G11G14G17G20G24G28
   -927755.88845   -637224.81345  25048443.2714   25048448.9544
      1735.0474
   1008944.73546    788773.27246  23436282.2004   23436286.1384
     -1276.0474
   5256223.96148   4076223.25147  21646970.1694   21646971.1774
     -2863.1564
   -636024.81046   -491970.19945  24041947.6064   24041951.1464
      -421.3444
  -2856771.94148  -2210595.63947  21551388.8884   21551390.6924
       751.5004
  -5339308.54946  -4131895.95246  23095811.8254   23095814.7314
      1948.8444
  -5308515.10047  -4108698.26146  23083068.2084   23083071.8064
      2021.0314
   6464771.35447   5003417.65246  22471908.3104   22471910.0564
     -3396.5474
 06  4 21 10 35  0.0010000  0  8G 1G 9G11G14G17G20G24G28
   -979644.30545   -677657.26645  25038567.2944   25038571.0564
      1724.0944
   1047566.35546    818868.06946  23443631.6854   23443635.2244
     -1298.7974
   5342339.08148   4143325.93847  21663357.2084   21663358.4624
     -2877.9224
   -623085.36046   -481887.34646  24044409.9274   24044412.8924
      -441.3594
  -2879093.98348  -2227989.44447  21547141.1224   21547142.9154
       736.5634
  -5397584.23846  -4177305.55346  23084721.7714   23084724.5134
      1936.1094
  -5369001.69447  -4155830.64146  23071558.1924   23071561.7434
      2011.3284
   6566889.65147   5082990.31546  22491341.1614   22491343.1064
     -3411.4224
 06  4 21 10 35 30.0010000  0  8G 1G 9G11G14G17G20G24G28
  -1031202.85345   -717832.70445  25028757.0444   25028761.0754
      1713.2344
   1086869.36346    849494.08646  23451110.9744   23451114.7944
     -1321.2974
   5428895.51448   4210772.50047  21679828.4354   21679829.5954
     -2892.4064
   -609546.16546   -471337.31346  24046986.6064   24046988.7634
      -461.1724
  -2900968.09648  -2245034.21747  21542978.6534   21542980.4814
       721.7974
  -5455478.12746  -4222417.67546  23073705.3024   23073707.7744
      1923.5474
  -5429197.41547  -4202736.41946  23060103.1694   23060106.8134
      2001.7974
   6669451.44947   5162908.57246  22510858.1064   22510859.8884
     -3425.9534
 06  4 21 10 36  0.0010000  0  8G 1G 9G11G14G17G20G24G28
  -1082427.75645   -757748.17245  25019007.8174   25019012.0604
      1701.7814
   1126853.63346    880650.61546  23458718.7944   23458722.5794
     -1344.2814
   5515892.61048   4278562.41747  21696383.5054   21696384.3134
     -2907.3444
   -595405.04446   -460318.14746  24049676.8564   24049680.3844
      -481.5474
  -2922391.55048  -2261727.80847  21538902.0914   21538904.0134
       706.4694
  -5512986.54647  -4267229.43146  23062762.1384   23062764.5284
      1910.3754
  -5489099.62447  -4249413.48346  23048703.8644   23048707.3454
      1991.7194
   6772455.42847   5243171.40846  22530458.7944   22530460.5054
     -3440.9374
 06  4 21 10 36 30.0010000  0  8G 1G 9G11G14G17G20G24G28
  -1133310.28445   -797396.83845  25009326.0524   25009330.8454
      1690.5004
   1167525.43546    912342.78746  23466459.0674   23466461.7984
     -1367.0314
   5603334.56448   4346699.02447  21713023.1304   21713024.4314
     -2921.9844
   -580655.30446   -448824.82845  24052484.5604   24052487.7004
      -501.6564
  -2943356.82648  -2278064.39847  21534912.4664   21534914.2714
       691.3284
  -5570100.82147  -4311734.02846  23051893.6924   23051896.2004
      1897.3594
  -5548700.71047  -4295855.91546  23037362.4034   23037365.8724
      1981.8134
   6875905.78647   5323782.08146  22550144.7864   22550146.1924
     -3455.6254
 06  4 21 10 37  0.0010000  0  8G 1G 9G11G14G17G20G24G28
  -1183847.44745   -836776.33345  24999709.5674   24999713.5404
      1678.9384
   1208884.17146    944570.41046  23474329.6534   23474333.5914
     -1389.9534
   5691219.51548   4415180.72147  21729746.6534   21729748.1184
     -2936.7344
   -565296.58946   -436857.05146  24055407.5914   24055410.9424
      -521.9844
  -2963862.96848  -2294043.27047  21531010.5214   21531012.1854
       676.0004
  -5626818.78847  -4355929.82046  23041100.3334   23041102.5714
      1884.0784
  -5607998.86347  -4342062.26046  23026078.2084   23026081.7714
      1971.6724
   6979800.40547   5404738.90846  22569915.5444   22569917.2434
     -3470.4064
 06  4 21 10 37 30.0010000  0  8G 1G 9G11G14G17G20G24G28
  -1234042.31545   -875889.21245  24990157.9974   24990162.0524
      1667.2034
   1250923.29846    977328.29546  23482330.7554   23482334.1064
     -1412.8444
   5779540.35148   4484002.13947  21746553.9744   21746555.2744
     -2951.4844
   -549333.55245   -424418.36145  24058444.9274   24058448.2904
      -542.4064
  -2983913.83748  -2309667.38747  21527194.9274   21527196.5444
       660.5314
  -5683143.11047  -4399818.89946  23030381.9974   23030384.1654
      1870.6884
  -5666998.03147  -4388035.65346  23014850.9114   23014854.5214
      1961.4224
   7084131.81647   5486036.07346  22589769.3804   22589770.6924
     -3485.1724
 06  4 21 10 38  0.0020000  0  8G 1G 9G11G14G17G20G24G28
  -1283879.42245   -914723.27845  24980673.6504   24980677.9634
      1655.3134
   1293657.69546   1010627.79846  23490461.6894   23490464.9944
     -1435.8284
   5868312.26648   4553175.10147  21763446.5574   21763447.7874
     -2966.2504
   -532750.69845   -411496.59745  24061598.3854   24061601.3264
      -562.9064
  -3003493.85048  -2324924.54947  21523469.0104   21523470.7444
       644.9384
  -5739059.14046  -4443389.85146  23019741.3934   23019744.0884
      1857.0944
  -5725684.24447  -4433765.16746  23003683.4554   23003687.1004
      1951.0314
   7188915.42647   5567685.62446  22609708.5334   22609710.2214
     -3499.9694
 06  4 21 10 38 30.0020000  0  8G 1G 9G11G14G17G20G24G28
  -1333362.58145   -953281.52245  24971257.2914   24971261.0764
      1643.6254
   1337074.55746   1044459.20446  23498723.8074   23498725.8934
     -1458.5474
   5957517.91948   4622685.98647  21780421.6974   21780422.7404
     -2980.6874
   -515558.76146   -398100.22346  24064871.4164   24064874.1934
      -583.1564
  -3022610.32948  -2339820.53147  21519831.2754   21519832.9394
       629.5634
  -5794570.02847  -4486645.05546  23009178.0804   23009180.4824
      1843.6884
  -5784061.51847  -4479253.96146  22992574.3074   22992578.0574
      1940.8594
   7294132.53247   5649672.93646  22629730.7214   22629732.6784
     -3514.4224
 06  4 21 10 39  0.0020000  0  8G 1G 9G11G14G17G20G24G28
  -1382485.30445   -991558.79145  24961907.5334   24961912.4904
      1631.3754
   1381180.03846   1078827.18746  23507116.0724   23507119.9164
     -1481.6874
   6047163.71448   4692539.87447  21797480.7054   21797482.0184
     -2995.5314
   -497751.03046   -384224.16046  24068258.8774   24068261.5144
      -603.8914
  -3041256.89148  -2354350.32147  21516283.0804   21516284.7914
       613.6884
  -5849669.68347  -4529579.84846  22998693.3854   22998695.7874
      1829.7664
  -5842125.01247  -4524498.22446  22981525.3384   22981528.8304
      1930.1884
   7399789.80847   5732003.26046  22649836.3304   22649838.3574
     -3529.2504
 06  4 21 10 39 30.0020000  0  8G 1G 9G11G14G17G20G24G28
  -1431240.97645  -1029550.17545  24952631.1894   24952637.2484
      1619.0004
   1425977.21046   1113734.20546  23515640.3544   23515644.6894
     -1504.7974
   6137252.16948   4762738.62947  21814624.2834   21814625.4674
     -3010.3594
   -479322.60346   -369864.37046  24071767.8384   24071770.6044
      -624.6724
  -3059428.29848  -2368509.84347  21512825.0574   21512826.7444
       597.7344
  -5904351.85047  -4572189.27546  22988287.8464   22988290.0374
      1815.7034
  -5899868.78747  -4569493.34946  22970537.1504   22970540.7954
      1919.3914
   7505889.58647   5814678.39046  22670026.2914   22670027.7684
     -3544.0474
 06  4 21 10 40  0.0020000  0  8G 1G 9G11G14G17G20G24G28
  -1479626.62145  -1067253.29245  24943424.1354   24943428.1784
      1606.7034
   1471465.13646   1149179.29846  23524297.2684   23524299.8814
     -1527.7194
   6227781.83148   4833281.16247  21831851.0254   21831852.4204
     -3024.9374
   -460272.95846   -355020.39446  24075392.3464   24075395.9904
      -645.2974
  -3077122.95648  -2382297.90547  21509457.8614   21509459.5964
       581.8914
  -5958613.59847  -4614471.14646  22977961.7834   22977964.2684
      1801.7194
  -5957290.82847  -4614237.76246  22959609.6354   22959613.7484
      1908.7344
   7612429.53147   5897696.51946  22690300.4794   22690302.5414
     -3558.6094
 06  4 21 10 40 30.0020000  0  8G 1G 9G11G14G17G20G24G28
  -1527644.73445  -1104670.06145  24934286.5184   24934290.6784
      1594.5634
   1517637.59746   1185157.74646  23533083.9394   23533087.5614
     -1550.3754
   6318745.45948   4904161.92647  21849161.0574   21849162.2874
     -3039.2194
   -440606.86946   -339696.22646  24079134.9554   24079137.1824
      -665.7034
  -3094344.27848  -2395717.08647  21506180.5104   21506182.3854
       566.2504
  -6012457.53247  -4656427.44546  22967715.4794   22967717.9984
      1787.9064
  -6014394.79646  -4658734.32646  22948743.0724   22948747.1624
      1898.2504
   7719402.13547   5981051.76546  22710656.5574   22710658.7364
     -3572.8124
 06  4 21 10 41  0.0020000  0  8G 1G 9G11G14G17G20G24G28
  -1575286.08645  -1141793.12045  24925221.7134   24925225.5454
      1581.8134
   1564501.22546   1221674.80646  23542001.0804   23542005.2294
     -1573.5624
   6410147.86348   4975384.57347  21866554.6974   21866555.8694
     -3053.9694
   -420317.38046   -323886.23245  24082994.8224   24082997.1664
      -686.6414
  -3111084.80348  -2408761.63347  21502995.1894   21502996.9594
       550.0474
  -6065874.56447  -4698051.10546  22957550.7834   22957553.1044
      1773.5004
  -6071172.58947  -4702976.75346  22937938.9944   22937943.2954
      1887.2034
   7826812.02847   6064747.74846  22731096.2444   22731098.4004
     -3587.5314
 06  4 21 10 41 30.0020000  0  8G 1G 9G11G14G17G20G24G28
  -1622543.90945  -1178617.31845  24916227.7754   24916232.7444
      1568.9064
   1612058.91646   1258732.82346  23551050.9004   23551054.7564
     -1596.7504
   6501991.36648   5046950.93647  21884031.8144   21884033.1864
     -3068.7034
   -399400.08345   -307587.12645  24086974.7054   24086977.2014
      -707.6564
  -3127339.07548  -2421427.31647  21499901.8384   21499903.6664
       533.7664
  -6118858.10347  -4739336.92946  22947468.1584   22947470.5964
      1758.9384
  -6127618.30647  -4746960.39446  22927197.7214   22927201.5184
      1876.0314
   7934661.70647   6148786.47746  22751619.2294   22751621.1154
     -3602.2344
 06  4 21 10 42  0.0020000  0  8G 1G 9G11G14G17G20G24G28
  -1669418.38245  -1215142.83045  24907308.6354   24907313.4044
      1556.0944
   1660306.96746   1296328.83146  23560231.4634   23560235.8814
     -1619.7194
   6594271.01948   5118857.08447  21901591.7214   21901592.9394
     -3083.2194
   -377857.08546   -290800.33145  24091075.7444   24091079.1784
      -728.4844
  -3143108.19148  -2433714.96247  21496901.2054   21496902.9634
       517.5634
  -6171408.58447  -4780285.33346  22937468.4004   22937470.5454
      1744.4694
  -6183733.08447  -4790686.18046  22916519.1354   22916523.0724
      1864.9844
   8042945.57547   6233163.47246  22772225.0254   22772226.9824
     -3616.6414
 06  4 21 10 42 30.0020000  0  8G 1G 9G11G14G17G20G24G28
  -1715907.41746  -1251367.94745  24898461.7754   24898465.0684
      1543.3134
   1709243.23046   1334460.92746  23569544.2214   23569548.1824
     -1642.5314
   6686984.53848   5191101.39447  21919234.8304   21919236.0964
     -3097.5164
   -355689.24446   -273526.76545  24095293.0254   24095295.7564
      -749.2344
  -3158391.54048  -2445624.05447  21493993.0254   21493994.7484
       501.4694
  -6223524.56647  -4820895.20746  22927550.8614   22927553.0414
      1730.0634
  -6239516.23447  -4834153.56446  22905903.8464   22905907.7484
      1854.0164
   8151660.52947   6317876.36246  22792912.9164   22792915.0144
     -3630.8594
 06  4 21 10 43  0.0020000  0  8G 1G 9G11G14G17G20G24G28
  -1762012.56145  -1287293.91845  24889687.7364   24889691.7684
      1530.4384
   1758862.86246   1373125.50846  23578986.8464   23578989.9634
     -1665.3594
   6780125.95448   5263679.14247  21936958.9084   21936960.0804
     -3111.8124
   -332899.72546   -255768.66145  24099630.1584   24099632.5374
      -770.0164
  -3173191.59048  -2457156.56647  21491176.4554   21491178.3304
       485.2814
  -6275207.29047  -4861167.43546  22917715.8224   22917718.2484
      1715.5164
  -6294969.69047  -4877364.01346  22895351.2604   22895355.2564
      1842.9534
   8260800.69947   6402920.63546  22813681.8934   22813683.8384
     -3645.0624
 06  4 21 10 43 30.0020000  0  8G 1G 9G11G14G17G20G24G28
  -1807731.15545  -1322918.90945  24880987.5724   24880991.7564
      1517.3444
   1809165.13346   1412322.06946  23588559.6744   23588563.0024
     -1688.1874
   6873693.21348   5336588.69847  21954764.4714   21954765.5144
     -3126.0784
   -309488.13946   -237525.75245  24104084.8694   24104086.8614
      -790.8444
  -3187506.78648  -2468311.14647  21488452.2834   21488454.0644
       469.0004
  -6326454.06947  -4901099.96046  22907963.6354   22907966.1784
      1700.8444
  -6350091.91947  -4920316.38046  22884862.4554   22884865.9594
      1831.7814
   8370364.10947   6488294.67446  22834531.1274   22834533.0374
     -3659.2344
 06  4 21 10 44  0.0020000  0  8G 1G 9G11G14G17G20G24G28
  -1853057.29345  -1358237.89745  24872360.9244   24872366.6894
      1504.3914
   1860151.90746   1452051.96046  23598262.1744   23598266.0534
     -1710.8754
   6967687.94548   5409831.34247  21972651.2604   21972652.1744
     -3140.1874
   -285451.57645   -218795.95146  24108658.1434   24108660.8144
      -811.5944
  -3201333.34448  -2479085.07647  21485821.1584   21485822.8114
       452.7814
  -6377259.66547  -4940688.71046  22898295.7994   22898298.1544
      1686.2194
  -6404878.46147  -4963007.17946  22874436.8144   22874440.2254
      1820.6724
   8480351.15247   6573998.85746  22855460.7054   22855462.2404
     -3673.2034
 06  4 21 10 44 30.0020000  0  8G 1G 9G11G14G17G20G24G28
  -1897991.42845  -1393251.49645  24863811.3304   24863816.3934
      1491.2194
   1911819.69646   1492312.55646  23608093.6974   23608097.5764
     -1733.6254
   7062105.64148   5483403.57547  21990618.0644   21990619.4004
     -3154.2814
   -260791.95146   -199580.49546  24113352.9394   24113356.0334
      -832.3754
  -3214672.68148  -2489479.38147  21483283.0804   21483284.4864
       436.4844
  -6427624.14747  -4979933.72346  22888711.6744   22888713.9824
      1671.4384
  -6459330.30447  -5005437.16046  22864074.4004   22864078.3034
      1809.4534
   8590756.80147   6660029.17946  22876470.2524   22876471.8464
     -3687.1724
 06  4 21 10 45  0.0020000  0  8G 1G 9G11G14G17G20G24G28
  -1942529.44945  -1427956.39645  24855336.8074   24855341.0844
      1478.0474
   1964168.57346   1533103.89846  23618055.2684   23618058.7364
     -1756.2344
   7156945.24148   5557304.49647  22008665.4324   22008666.5924
     -3168.2664
   -235508.15446   -179878.76646  24118162.6744   24118165.8384
      -853.1414
  -3227521.89648  -2499491.64447  21480837.7054   21480839.2644
       420.1884
  -6477544.08647  -5018832.38446  22879212.2684   22879214.7174
      1656.6414
  -6513444.59847  -5047604.12746  22853777.2214   22853780.9244
      1798.2344
   8701580.69547   6746385.44146  22897559.2834   22897560.9944
     -3700.9844
 06  4 21 10 45 30.0020000  0  8G 1G 9G11G14G17G20G24G28
  -1986674.26045  -1462354.91845  24846936.0804   24846938.9394
      1464.8594
   2017191.60246   1574420.43546  23628145.7754   23628149.4084
     -1778.7344
   7252199.93548   5631528.94447  22026792.0644   22026792.8964
     -3182.1094
   -209605.33645   -159694.72946  24123090.6824   24123093.2954
      -873.8124
  -3239885.07248  -2509125.28847  21478485.2364   21478486.8774
       403.9384
  -6527022.28747  -5057386.77246  22869797.1044   22869799.5064
      1641.8284
  -6567225.02847  -5089510.94346  22843543.5254   22843547.1824
      1787.0474
   8812814.67047   6833061.26146  22918726.7134   22918728.1894
     -3714.6564
 06  4 21 10 46  0.0020000  0  8G 1G 9G11G14G17G20G24G28
  -2030424.60545  -1496446.04245  24838609.3614   24838612.6784
      1451.5474
   2070887.18046   1616261.24246  23638363.4944   23638366.7874
     -1801.2344
   7347866.30048   5706074.13847  22044996.5964   22044997.4984
     -3195.9224
   -183084.38146   -139029.04046  24128139.5884   24128142.4824
      -894.5314
  -3251762.31648  -2518380.34447  21476225.1824   21476226.7644
       387.5944
  -6576057.80447  -5095596.21846  22860465.7754   22860467.7914
      1626.9064
  -6620671.35647  -5131157.42946  22833372.8464   22833376.2684
      1775.7344
   8924455.14747   6920053.79346  22939971.3854   22939972.8854
     -3728.2974
 06  4 21 10 46 30.0020000  0  8G 1G 9G11G14G17G20G24G28
  -2073774.45745  -1530225.10345  24830360.0574   24830364.0294
      1438.0944
   2125257.19546   1658627.60146  23648710.0024   23648713.1894
     -1823.7664
   7443945.92148   5780941.38147  22063279.7754   22063281.0064
     -3209.7194
   -155941.63445   -117878.78046  24133301.9004   24133304.2914
      -915.3284
  -3263148.67048  -2527252.89047  21474058.1894   21474059.7134
       371.1414
  -6624644.54347  -5133456.01246  22851220.2294   22851222.5614
      1611.8444
  -6673778.13547  -5172539.31846  22823266.5644   22823270.2564
      1764.3444
   9036503.44947   7007364.10346  22961293.3304   22961294.9124
     -3741.9224
 06  4 21 10 47  0.0020000  0  8G 1G 9G11G14G17G20G24G28
  -2116722.94745  -1563691.50545  24822188.3854   24822191.0334
      1424.9224
   2180298.46446   1701516.99546  23659184.5334   23659188.1194
     -1845.8594
   7540435.36048   5856127.97047  22081640.9864   22081642.5804
     -3223.0944
   -128179.06246    -96245.49746  24138587.7754   24138590.5884
      -935.7344
  -3274044.39148  -2535742.96447  21471984.6434   21471986.4824
       355.0314
  -6672781.72147  -5170965.49346  22842059.8694   22842062.2134
      1597.0784
  -6726545.83847  -5213656.99946  22813225.3774   22813228.9634
      1753.2814
   9148955.63847   7094989.20546  22982692.1354   22982693.4474
     -3755.0944
 06  4 21 10 47 30.0020000  0  8G 1G 9G11G14G17G20G24G28
  -2159263.63946  -1596840.05245  24814093.7134   24814096.8544
      1411.4064
   2236013.40746   1744931.18846  23669785.7364   23669788.4794
     -1868.1724
   7637336.29948   5931635.17247  22100081.2294   22100082.4244
     -3236.6564
    -99792.55645    -74126.11146  24143987.4324   24143990.1274
      -956.4064
  -3284445.21048  -2543847.53047  21470005.6744   21470007.2564
       338.6254
  -6720463.62247  -5208120.19346  22832985.8774   22832988.8654
      1582.0004
  -6778969.36347  -5254506.47446  22803249.5334   22803252.8734
      1741.8914
   9261813.33847   7182930.30846  23004168.1744   23004169.5334
     -3768.4374
 06  4 21 10 48  0.0020000  0  8G 1G 9G11G14G17G20G24G28
  -2201402.50245  -1629675.57645  24806073.1274   24806076.3384
      1397.8914
   2292393.31746   1788863.77246  23680514.6434   23680518.0064
     -1890.3914
   7734638.45748   6007455.00647  22118596.7134   22118597.6624
     -3250.0944
    -70790.24346    -51526.81446  24149507.3774   24149509.2754
      -977.0314
  -3294357.29248  -2551571.14947  21468119.2914   21468120.8384
       322.2344
  -6767696.19447  -5244924.78246  22823997.8544   22824000.4554
      1566.8754
  -6831054.94947  -5295092.61846  22793337.8224   22793341.5494
      1730.5314
   9375065.51347   7271178.68246  23025719.6894   23025721.2484
     -3781.6094
 06  4 21 10 48 30.0020000  0  8G 1G 9G11G14G17G20G24G28
  -2243131.15645  -1662191.36545  24798133.3464   24798138.9244
      1384.2034
   2349441.24046   1833316.66046  23691370.3854   23691373.6894
     -1912.5944
   7832345.64148   6083590.46747  22137189.8854   22137191.1864
     -3263.5314
    -41166.70946    -28443.55146  24155143.7604   24155145.7994
      -997.6874
  -3303774.14648  -2558908.98047  21466327.0804   21466328.9324
       305.7344
  -6814471.05847  -5281372.69246  22815097.1194   22815099.6864
      1551.6254
  -6882795.68247  -5335410.08546  22783491.9864   22783495.7714
      1719.0314
   9488715.09547   7359736.72046  23047346.3854   23047348.1194
     -3794.8124
 06  4 21 10 49  0.0020000  0  8G 1G 9G11G14G17G20G24G28
  -2284453.95545  -1694390.88745  24790270.1824   24790274.1314
      1370.8444
   2407150.28546   1878284.76546  23702353.0414   23702356.1114
     -1934.4224
   7930449.45148   6160034.98647  22155858.6274   22155859.8934
     -3276.5164
    -10928.85646     -4881.64746  24160898.0184   24160901.0414
     -1017.9844
  -3312701.53448  -2565865.38547  21464628.5334   21464630.4434
       289.6094
  -6860792.86647  -5317467.58146  22806282.4474   22806284.7914
      1536.6884
  -6934196.64147  -5375462.74946  22773710.7994   22773714.5024
      1707.8914
   9602754.10147   7448598.27946  23069047.0574   23069048.7564
     -3807.5624
 06  4 21 10 49 30.0020000  0  8G 1G 9G11G14G17G20G24G28
  -2325369.37646  -1726273.01045  24782484.0254   24782487.8934
      1356.7974
   2465518.16246   1923766.47746  23713459.2914   23713462.7134
     -1956.7974
   8028946.82848   6236786.18247  22174602.2914   22174603.3344
     -3290.0314
     19922.82446     19158.55846  24166769.3464   24166771.9004
     -1038.8914
  -3321138.58348  -2572439.71647  21463023.0644   21463024.9044
       272.8134
  -6906660.22847  -5353208.36446  22797554.6044   22797556.9474
      1521.0784
  -6985257.24647  -5415250.22446  22763994.5884   22763997.5184
      1696.0784
   9717178.62447   7537760.24946  23090821.5494   23090823.2254
     -3820.7974
 06  4 21 10 50  0.0020000  0  8G 1G 9G11G14G17G20G24G28
  -2365866.91646  -1757829.49646  24774777.6974   24774781.2254
      1342.9844
   2524550.51846   1969765.84346  23724691.7834   23724695.2524
     -1978.7504
   8127843.50448   6313848.49547  22193421.5024   22193422.4634
     -3303.1414
     51396.24046     43683.33646  24172758.4004   24172760.9904
     -1059.4064
  -3329076.39148  -2578624.97347  21461512.4794   21461514.3774
       256.3134
  -6952063.05147  -5388587.17646  22788914.3304   22788916.9084
      1505.7034
  -7035968.02047  -5454765.12146  22754344.6354   22754347.8224
      1684.5474
   9831994.38147   7627227.04946  23112670.0494   23112671.6544
     -3833.6414
 06  4 21 10 50 30.0020000  0  8G 1G 9G11G14G17G20G24G28
  -2405945.66546  -1789059.62946  24767151.5104   24767155.5644
      1329.1254
   2584244.50746   2016280.58646  23736051.1664   23736055.1394
     -2000.6564
   8227136.21348   6391219.45247  22212315.9084   22212317.1624
     -3316.1724
     83489.63746     68691.21846  24178867.2294   24178869.6314
     -1079.9374
  -3336515.76748  -2584421.86947  21460096.6894   21460098.4124
       239.8284
  -6997000.41447  -5423603.28546  22780362.9554   22780365.5334
      1490.2974
  -7086328.84847  -5494007.29546  22744760.6274   22744764.3304
      1673.0164
   9947197.36447   7716995.63546  23134593.0104   23134594.1354
     -3846.3754
 06  4 21 10 51  0.0020000  0  8G 1G 9G11G14G17G20G24G28
  -2445608.50046  -1819965.72146  24759603.1274   24759607.5334
      1315.1094
   2644593.72146   2063306.00446  23747535.4474   23747538.8934
     -2022.5624
   8326817.77648   6468893.36747  22231285.4004   22231286.3384
     -3329.2034
    116197.29046     94177.56346  24185090.2754   24185092.8184
     -1100.5164
  -3343460.75948  -2589833.64847  21458775.2524   21458776.9634
       223.2194
  -7041475.56847  -5458259.24046  22771899.4474   22771901.5684
      1474.7504
  -7136343.59347  -5532979.80046  22735243.2214   22735246.9594
      1661.3444
  10062779.50647   7807059.61046  23156587.3544   23156588.6664
     -3859.0474
 06  4 21 10 51 30.0020000  0  8G 1G 9G11G14G17G20G24G28
  -2484850.95545  -1850544.21345  24752135.4084   24752140.0844
      1301.2194
   2705598.51546   2110842.02646  23759144.7914   23759148.8574
     -2044.2664
   8426887.86048   6546870.02747  22250327.6974   22250329.0684
     -3341.9694
    149521.42746    120144.24446  24191431.2294   24191433.6434
     -1120.9374
  -3349907.76848  -2594857.31147  21457548.4714   21457550.1824
       206.7504
  -7085484.10647  -5492551.57446  22763525.0414   22763527.0454
      1459.3134
  -7186008.67447  -5571679.84446  22725792.9244   22725796.2524
      1649.8284
  10178741.15647   7897419.29746  23178654.4714   23178656.0414
     -3871.5164
 06  4 21 10 52  0.0020000  0  8G 1G 9G11G14G17G20G24G28
  -2523675.30245  -1880796.95045  24744747.0644   24744750.5334
      1287.0944
   2767252.95046   2158884.61546  23770877.5644   23770880.6704
     -2065.9844
   8527340.38448   6625144.71947  22269443.1504   22269444.1934
     -3354.7974
    183457.43646    146587.78846  24197890.1114   24197892.5374
     -1141.4064
  -3355860.33748  -2599495.68447  21456415.7294   21456417.5334
       190.1254
  -7129028.25347  -5526482.05346  22755238.8854   22755241.1584
      1443.6724
  -7235327.22447  -5610109.83746  22716407.6584   22716410.4714
      1638.1254
  10295074.98247   7988068.99146  23200791.8464   23200793.4754
     -3884.0004
 06  4 21 10 52 30.0020000  0  8G 1G 9G11G14G17G20G24G28
  -2562074.33846  -1910718.29045  24737440.5024   24737442.4474
      1272.9064
   2829559.78046   2207435.45146  23782733.3694   23782737.1074
     -2087.7034
   8628177.81648   6703719.33347  22288631.6824   22288632.9714
     -3367.5944
    218009.34646    173511.16846  24204465.8304   24204468.2914
     -1161.9374
  -3361312.71348  -2603744.24047  21455378.1824   21455379.7874
       173.4384
  -7172101.44447  -5560045.54646  22747041.9324   22747044.6744
      1427.9534
  -7284293.12547  -5648265.05646  22707089.6974   22707093.0724
      1626.3594
  10411783.07547   8079010.37046  23223000.5884   23223002.1584
     -3896.4224
 06  4 21 10 53  0.0020000  0  8G 1G 9G11G14G17G20G24G28
  -2600045.84546  -1940306.49945  24730214.7754   24730218.3264
      1258.5164
   2892517.10246   2256492.90446  23794714.2294   23794717.2524
     -2109.4694
   8729397.95848   6782592.16447  22307893.5644   22307894.8074
     -3380.4064
    253177.69546    200915.23646  24211156.8854   24211159.7214
     -1182.5944
  -3366264.19548  -2607602.52147  21454435.8774   21454437.5294
       156.6254
  -7214701.51547  -5593240.43146  22738935.2294   22738938.0644
      1412.0474
  -7332905.30447  -5686144.73646  22697838.9004   22697842.4044
      1614.4384
  10528862.63547   8170241.14546  23245279.4794   23245281.1194
     -3908.8914
 06  4 21 10 53 30.0020000  0  8G 1G 9G11G14G17G20G24G28
  -2637586.30545  -1969558.72845  24723070.7134   24723075.2254
      1244.1564
   2956125.27746   2306057.77846  23806817.4324   23806822.0144
     -2131.0624
   8831000.14548   6861762.69747  22327227.7134   22327228.7914
     -3393.0784
    288962.76046    228799.77846  24217966.7364   24217968.2364
     -1203.0944
  -3370712.13548  -2611068.36547  21453589.4004   21453591.1934
       139.8754
  -7256825.17547  -5626064.04546  22730919.8934   22730922.6004
      1396.1564
  -7381160.99747  -5723746.52646  22688656.5334   22688659.7214
      1602.5784
  10646312.68646   8261760.65946  23267629.4164   23267631.5494
     -3921.1414
 06  4 21 10 54  0.0020000  0  8G 1G 9G11G14G17G20G24G28
  -2674694.09045  -1998473.85745  24716009.1274   24716013.9434
      1229.7504
   3020381.59546   2356127.64246  23819045.5644   23819049.3614
     -2152.6094
   8932981.46748   6941228.65347  22346634.3694   22346635.5294
     -3405.6094
    325363.61046    257164.13545  24224892.1114   24224894.4904
     -1223.5784
  -3374656.54248  -2614141.95047  21452838.5884   21452840.4634
       123.1414
  -7298470.57847  -5658514.96746  22722995.3144   22722997.4944
      1380.2504
  -7429059.20247  -5761069.81646  22679541.2994   22679544.5804
      1590.7034
  10764129.77946   8353566.09446  23290049.6114   23290051.8504
     -3933.2664
 06  4 21 10 54 30.0020000  0  8G 1G 9G11G14G17G20G24G28
  -2711368.87946  -2027051.61746  24709030.7754   24709035.2644
      1215.1724
   3085282.19046   2406699.37246  23831394.7834   23831399.2254
     -2174.0944
   9035337.98148   7020986.93047  22366112.3144   22366113.3814
     -3418.1724
    362377.98246    286006.51346  24231936.4164   24231938.2444
     -1244.1094
  -3378097.89248  -2616823.52447  21452183.9324   21452185.6544
       106.2664
  -7339637.77047  -5690593.28446  22715161.4474   22715163.6274
      1364.2034
  -7476600.43047  -5798114.94946  22670494.5334   22670497.8734
      1578.7034
  10882310.11246   8445654.63846  23312538.9004   23312541.0214
     -3945.4224
 06  4 21 10 55  0.0020000  0  8G 1G 9G11G14G17G20G24G28
  -2747604.13746  -2055286.90046  24702136.4474   24702140.1744
      1200.6884
   3150829.59246   2457775.28546  23843869.6894   23843872.7014
     -2195.4844
   9138071.67448   7101039.11247  22385661.7054   22385662.5494
     -3430.5314
    400009.57546    315329.78046  24239099.1434   24239101.6744
     -1264.4694
  -3381031.10048  -2619109.13947  21451625.8934   21451627.5804
        89.4844
  -7380320.82847  -5722294.36046  22707419.0884   22707421.7484
      1348.2034
  -7523779.27547  -5834877.67846  22661516.9474   22661520.2404
      1566.7664
  11000854.76846   8538027.06346  23335097.3544   23335099.3464
     -3957.3594
 06  4 21 10 55 30.0020000  0  8G 1G 9G11G14G17G20G24G28
  -2783401.51646  -2083180.92646  24695324.1044   24695327.9714
      1185.7974
   3217017.52546   2509349.99146  23856465.2834   23856468.6824
     -2217.0474
   9241176.83848   7181380.78647  22405282.3144   22405283.1934
     -3443.1254
    438253.94046    345130.42646  24246374.5804   24246376.6894
     -1285.1414
  -3383459.37648  -2621001.28347  21451163.4794   21451165.3184
        72.4064
  -7420521.47747  -5753619.51846  22699769.0334   22699771.5644
      1331.8444
  -7570598.20947  -5871359.95746  22652607.3464   22652610.9554
      1554.5004
  11119757.65946   8630678.65146  23357723.5574   23357725.2914
     -3969.4844
 06  4 21 10 56  0.0020000  0  8G 1G 9G11G14G17G20G24G28
  -2818759.18746  -2110732.34745  24688595.0104   24688598.1274
      1171.2194
   3283844.64146   2561422.91846  23869180.6274   23869184.0374
     -2238.2344
   9344650.80148   7262009.84747  22424972.0644   22424973.1544
     -3455.2814
    477110.34046    375408.11246  24253770.0494   24253773.1194
     -1305.4064
  -3385382.23648  -2622499.59247  21450797.7444   21450799.3144
        55.6564
  -7460237.91147  -5784567.36546  22692211.7134   22692214.0454
      1315.7814
  -7617056.28347  -5907561.02246  22643766.8144   22643770.4364
      1542.5784
  11239015.40446   8723606.71246  23380417.8934   23380420.2014
     -3981.1564
 06  4 21 10 56 30.0020000  0  8G 1G 9G11G14G17G20G24G28
  -2853674.73646  -2137939.18945  24681950.3774   24681954.3264
      1156.4694
   3351309.25146   2613992.78546  23882020.0184   23882022.9594
     -2259.4224
   9448491.53648   7342924.73747  22444732.5644   22444733.7954
     -3467.4224
    516578.80246    406162.74346  24261281.8224   24261283.9794
     -1325.7814
  -3386799.06348  -2623603.61947  21450528.0884   21450529.7054
        38.7814
  -7499468.02647  -5815136.23746  22684746.4394   22684748.9124
      1299.5474
  -7663152.04947  -5943479.82246  22634994.9944   22634998.2404
      1530.4694
  11358625.55346   8816809.47646  23403178.4944   23403180.1464
     -3992.8284
 06  4 21 10 57  0.0020000  0  8G 1G 9G11G14G17G20G24G28
  -2888141.13546  -2164796.12146  24675391.6894   24675395.9904
      1141.5474
   3419414.25046   2667061.66046  23894979.5414   23894982.7174
     -2280.6414
   9552701.78948   7424127.46047  22464563.1744   22464564.2874
     -3479.6564
    556663.40346    437397.40546  24268907.7994   24268909.8854
     -1346.2664
  -3387702.83048  -2624307.83447  21450356.2294   21450357.8814
        21.7344
  -7538204.82247  -5845320.75846  22677374.6434   22677377.3734
      1283.1564
  -7708879.00447  -5979111.21246  22626293.9324   22626297.2254
      1518.2344
  11478590.69846   8910288.77346  23426007.6744   23426009.5844
     -4004.5474
 06  4 21 10 57 30.0020000  0  8G 1G 9G11G14G17G20G24G28
  -2922158.34846  -2191302.95146  24668918.5494   24668923.2134
      1126.2814
   3488155.33146   2720626.22646  23908060.6274   23908063.6974
     -2302.0314
   9657277.71548   7505615.19747  22484463.4794   22484464.4284
     -3492.0474
    597361.48146    469110.10346  24276653.5574   24276656.2644
     -1366.9374
  -3388095.26848  -2624613.62747  21450281.2524   21450283.0104
         4.4384
  -7576448.38347  -5875120.93846  22670097.4164   22670100.1704
      1266.4384
  -7754238.27347  -6014456.06146  22617661.8144   22617665.6934
      1505.7344
  11598905.79246   9004040.65546  23448903.1194   23448905.0884
     -4016.4224
 06  4 21 10 58  0.0020000  0  8G 1G 9G11G14G17G20G24G28
  -2955725.04646  -2217458.84046  24662531.3074   24662535.1274
      1111.4534
   3557529.59746   2774684.14346  23921261.7684   23921264.9434
     -2322.9224
   9762215.99348   7587385.24046  22504432.2914   22504433.6744
     -3503.8594
    638671.75946    501299.87846  24284512.7914   24284515.6504
     -1387.1254
  -3387976.36848  -2624520.97947  21450303.9714   21450305.8114
       -12.3914
  -7614197.99247  -5904536.19946  22662914.1044   22662916.3424
      1250.1564
  -7799229.39647  -6049514.06346  22609100.6584   22609104.2684
      1493.6414
  11719567.65846   9098062.91746  23471864.0334   23471865.5574
     -4027.7034
 06  4 21 10 58 30.0020000  0  8G 1G 9G11G14G17G20G24G28
  -2988841.85646  -2243264.08746  24656229.7684   24656232.9794
      1096.4064
   3627532.09146   2829231.53446  23934582.7214   23934585.4634
     -2343.8284
   9867511.59548   7669433.73946  22524469.9004   22524471.1434
     -3515.7504
    680590.57346    533963.91746  24292491.3774   24292493.7914
     -1407.4064
  -3387348.26648  -2624031.53747  21450423.4634   21450425.3384
       -29.3914
  -7651454.71147  -5933567.40646  22655824.2684   22655826.2254
      1233.6724
  -7843854.13847  -6084286.58446  22600608.7134   22600611.9124
      1481.4224
  11840570.49346   9192350.84346  23494889.6894   23494891.3184
     -4039.0314
 06  4 21 10 59  0.0020000  0  8G 1G 9G11G14G17G20G24G28
  -3021502.00546  -2268713.52846  24650013.8544   24650017.1004
      1081.0474
   3698166.00846   2884271.05646  23948024.4244   23948027.9864
     -2364.9064
   9973167.18948   7751762.75346  22544575.7364   22544576.7214
     -3527.7974
    723121.93146    567105.21246  24300585.6274   24300588.1704
     -1427.9064
  -3386205.39548  -2623140.97847  21450640.5964   21450642.7054
       -46.6724
  -7688211.35647  -5962208.94846  22648829.7364   22648832.0454
      1216.8914
  -7888106.16747  -6118768.69546  22592187.6274   22592190.9674
      1468.8444
  11961916.35446   9286906.04746  23517981.2054   23517983.1394
     -4050.5314
 06  4 21 10 59 30.0020000  0  8G 1G 9G11G14G17G20G24G28
  -3053705.86546  -2293807.35945  24643885.7524   24643889.1394
      1065.8284
   3769426.41246   2939798.58846  23961583.8774   23961588.0964
     -2385.7814
  10079177.90848   7834368.49746  22564748.1824   22564749.0844
     -3539.6094
    766262.74746    600721.35746  24308793.3074   24308796.4944
     -1448.2194
  -3384549.33448  -2621850.59147  21450955.9634   21450957.8264
       -63.7814
  -7724468.66347  -5990461.36246  22641930.3074   22641932.4514
      1200.2194
  -7931986.50447  -6152961.15046  22583837.3934   22583841.2714
      1456.4534
  12083600.35046   9381724.66246  23541136.9554   23541138.9004
     -4061.7814
 06  4 21 11  0  0.0020000  0  8G 1G 9G11G14G17G20G24G28
  -3085450.97146  -2318543.71046  24637844.4164   24637848.1664
      1050.5474
   3841311.70046   2995812.82446  23975264.7214   23975267.4164
     -2406.5474
  10185542.29948   7917249.82446  22584988.8934   22584990.2644
     -3551.3124
    810012.86146    634812.33046  24317118.6194   24317121.3144
     -1468.4694
  -3382378.72248  -2620159.17147  21451369.1194   21451370.9244
       -80.8754
  -7760224.62247  -6018323.14846  22635125.9944   22635128.0924
      1183.5314
  -7975493.93348  -6186863.05446  22575558.6824   22575561.9984
      1444.0634
  12205620.22446   9476805.06346  23564356.7214   23564358.6434
     -4072.8444
 06  4 21 11  0 30.0020000  0  8G 1G 9G11G14G17G20G24G28
  -3116732.08746  -2342918.60546  24631891.6434   24631896.5534
      1034.9384
   3913823.60746   3052315.60846  23989063.9004   23989067.9554
     -2427.4844
  10292260.91448   8000407.16046  22605296.6194   22605297.9554
     -3563.2034
    854374.75346    669380.05046  24325561.6504   24325563.9714
     -1488.9224
  -3379690.18848  -2618064.25247  21451880.5494   21451882.4474
       -98.2814
  -7795473.97947  -6045790.15146  22628418.0574   22628420.4824
      1166.5004
  -8018623.98547  -6220470.87646  22567350.8854   22567354.2254
      1431.3444
  12327976.32146   9572147.42846  23587640.5184   23587642.5574
     -4084.1254
 06  4 21 11  1  0.0020000  0  8G 1G 9G11G14G17G20G24G28
  -3147545.99346  -2366929.40546  24626028.5254   24626032.4984
      1019.3914
   3986960.47146   3109305.46746  24002977.8854   24002982.3614
     -2448.2194
  10399333.29748   8083840.15246  22625671.8544   22625673.0964
     -3574.8594
    899348.52745    704424.36945  24334119.3074   24334122.0024
     -1509.2344
  -3376481.18648  -2615563.76447  21452491.5804   21452493.5494
      -115.5784
  -7830213.94347  -6072860.26146  22621807.3854   22621809.6114
      1149.5784
  -8061374.12647  -6253782.65446  22559216.0184   22559219.5334
      1418.7504
  12450667.06646   9667750.58846  23610987.5184   23610989.7564
     -4095.1564
 06  4 21 11  1 30.0020000  0  8G 1G 9G11G14G17G20G24G28
  -3177894.56246  -2390577.49846  24620254.3144   24620258.8854
      1003.9384
   4060716.13546   3166777.51746  24017014.4004   24017017.3894
     -2468.6724
  10506752.94447   8167543.79046  22646113.2364   22646114.3384
     -3586.3124
    944929.50646    739941.95246  24342793.7754   24342797.0804
     -1529.3594
  -3372755.03848  -2612660.24747  21453200.5644   21453202.2524
      -132.7194
  -7864446.40547  -6099534.87946  22615293.7054   22615295.9674
      1132.7034
  -8103747.06047  -6286800.43846  22551152.4794   22551156.1584
      1406.2504
  12573685.83046   9763609.38346  23634397.1894   23634399.0294
     -4105.9534
 06  4 21 11  2  0.0020000  0  9G 1G 9G11G14G17G 4G20G24G28
  -3207773.58846  -2413859.80546  24614567.2444   24614570.1864
       988.2194
   4135090.56746   3224731.61546  24031168.2364   24031171.9284
     -2489.3284
  10614519.96447   8251518.09946  22666620.3074   22666621.5614
     -3597.8914
    991119.46446    775934.15146  24351583.4244   24351586.5884
     -1549.7034
  -3368509.15648  -2609351.78747  21454008.4794   21454010.2134
      -150.0944
    -45564.16943                  25292018.0724
      2847.1724
  -7898167.27447  -6125810.81846  22608876.5334   22608878.8894
      1115.5944
  -8145739.56447  -6319521.89746  22543161.4944   22543164.9284
      1393.4844
  12697031.97546   9859723.24746  23657869.6504   23657871.6894
     -4116.8754
 06  4 21 11  2 30.0020000  0  9G 1G 9G11G14G17G 4G20G24G28
  -3237181.50846  -2436774.93946  24608970.3694   24608974.8224
       972.3134
   4210080.86646   3283165.51546  24045438.5884   24045441.7754
     -2510.0314
  10722631.60047   8335760.92046  22687193.6274   22687194.5884
     -3609.5314
   1037916.90546    812399.59346  24360488.7914   24360492.0724
     -1570.1094
  -3363742.81148  -2605637.73347  21454915.4394   21454917.2094
      -167.6564
   -130929.46143                  25275772.6584
      2843.8134
  -7931375.57947  -6151687.41746  22602556.9944   22602559.3734
      1098.2814
  -8187350.56447  -6351946.04246  22535242.9864   22535246.6784
      1380.5784
  12820702.21246   9956089.61546  23681403.0254   23681404.7364
     -4127.8124
 06  4 21 11  3  0.0020000  0  9G 1G 9G11G14G17G 4G20G24G28
  -3266115.06246  -2459320.63346  24603465.6824   24603469.1504
       956.5944
   4285687.16446   3342079.71146  24059826.3544   24059828.9794
     -2530.3754
  10831087.30747   8420271.77746  22707832.2054   22707833.4714
     -3620.8284
   1085322.62245    849339.17245  24369508.4164   24369511.1704
     -1590.2344
  -3358453.71948  -2601516.43047  21455922.3144   21455924.0144
      -184.9374
   -216196.65743     -2211.66145  25259546.2754   25259546.3934
      2840.6564
  -7964067.77147  -6177161.90646  22596335.7054   22596337.9554
      1081.2034
  -8228577.66947  -6384071.06446  22527397.8854   22527401.4474
      1367.9064
  12944695.83346  10052708.00546  23704998.4004   23704999.7834
     -4138.3914
 06  4 21 11  3 30.0030000  0  9G 1G 9G11G14G17G 4G20G24G28
  -3294573.69846  -2481496.14046  24598050.0694   24598053.6794
       940.5314
   4361908.21746   3401472.80746  24074329.8584   24074333.2334
     -2550.9374
  10939887.79647   8505051.34946  22728536.0304   22728537.2964
     -3632.3594
   1133336.45446    886752.66346  24378646.8274   24378649.0544
     -1610.6254
  -3352641.93948  -2596987.76247  21457028.0934   21457029.7924
      -202.5624
   -301368.08143    -68579.00345  25243339.7184   25243344.5114
      2837.1564
  -7996244.26847  -6202234.50646  22590213.1324   22590215.4404
      1063.7664
  -8269421.64747  -6415897.55647  22519625.5934   22519629.2264
      1354.8754
  13069013.07246  10149578.51746  23728655.3744   23728657.2144
     -4149.1724
 06  4 21 11  4  0.0030000  0  9G 1G 9G11G14G17G 4G20G24G28
  -3322551.24146  -2503296.81146  24592725.2884   24592728.3004
       924.4694
   4438739.53446   3461341.32146  24088950.1014   24088953.1834
     -2571.3124
  11049025.96247   8590094.05246  22749304.2574   22749305.4524
     -3643.6874
   1181956.41546    924638.27945  24387899.9294   24387903.1984
     -1630.8594
  -3346304.68048  -2592049.65247  21458233.6324   21458235.5544
      -220.0944
   -386433.77943   -134863.92845  25227151.5384   25227156.1674
      2833.7034
  -8027898.41747  -6226900.05946  22584189.4134   22584191.8394
      1046.3444
  -8309875.98947  -6447420.41447  22511927.3274   22511931.0194
      1341.9064
  13193645.47346  10246694.56846  23752371.9994   23752374.2024
     -4159.7814
 06  4 21 11  4 30.0030000  0  9G 1G 9G11G14G17G 4G20G24G28
  -3350049.74746  -2524724.14546  24587493.2494   24587496.7534
       908.6884
   4516178.13946   3521682.98146  24103687.2964   24103689.2184
     -2591.3124
  11158500.01847   8675398.50346  22770136.5464   22770137.7884
     -3654.6414
   1231179.84345    962994.01345  24397264.0544   24397267.7694
     -1650.7814
  -3339444.50648  -2586704.03147  21459539.3824   21459541.1514
      -237.3284
   -471398.04144   -201069.88945  25210984.0624   25210989.5344
      2830.4844
  -8059032.61847  -6251160.46246  22578264.7654   22578267.1204
      1029.1884
  -8349944.17548  -6478642.35647  22504302.7724   22504306.3124
      1329.2344
  13318591.12246  10344054.81846  23776147.7024   23776150.2104
     -4169.9844
 06  4 21 11  5  0.0030000  0  9G 1G 9G11G14G17G 4G20G24G28
  -3377065.99746  -2545775.67746  24582351.7024   24582355.5584
       892.4064
   4594223.28546   3582497.39446  24118538.3824   24118540.9374
     -2611.6414
  11268309.14947   8760964.07146  22791032.5304   22791033.8434
     -3665.9374
   1281007.64146   1001820.74446  24406748.1164   24406749.4294
     -1671.0624
  -3332059.21648  -2580949.25947  21460944.7264   21460946.3664
      -255.0164
   -556257.97144   -267194.41345  25194836.3044   25194837.0424
      2826.8444
  -8089644.22447  -6275013.62346  22572439.3744   22572441.9874
      1011.5784
  -8389623.97147  -6509561.70847  22496751.5544   22496755.1754
      1316.0944
  13443848.81846  10441658.22346  23799983.6474   23799985.7104
     -4180.5004
 06  4 21 11  5 30.0030000  0  9G 1G 9G11G14G17G 4G20G24G28
  -3403599.12346  -2566450.69946  24577302.2334   24577306.1124
       876.3134
   4672871.29246   3643781.61046  24133504.3044   24133507.7724
     -2631.7034
  11378450.42047   8846788.46746  22811991.4914   22811992.8974
     -3676.9534
   1331438.09146   1041117.18345  24416344.0544   24416346.6904
     -1691.0944
  -3324149.19748  -2574785.62847  21462449.9914   21462451.7724
      -272.4694
   -641012.89744   -333237.17245  25178707.1164   25178709.1554
      2823.3284
  -8119731.97647  -6298458.59746  22566714.1014   22566716.4444
       994.1094
  -8428914.69147  -6540177.80647  22489274.8824   22489278.7024
      1303.1414
  13569414.92146  10539501.92446  23823878.4294   23823880.2694
     -4190.7034
 06  4 21 11  6  0.0030000  0  9G 1G 9G11G14G17G 4G20G24G28
  -3429643.87646  -2586745.40646  24572346.3824   24572349.9794
       859.8594
   4752123.34646   3705536.62046  24148584.4294   24148588.0384
     -2651.9374
  11488925.02747   8932872.55346  22833014.5224   22833015.9524
     -3688.1564
   1382473.24546   1080884.80045  24426055.7334   24426058.3944
     -1711.3914
  -3315710.10748  -2568209.70047  21464055.8584   21464057.7574
      -290.2814
   -725657.51445   -399193.91745  25162599.7574   25162601.5264
      2819.5004
  -8149290.88748  -6321491.49346  22561089.0934   22561091.2494
       976.3134
  -8467811.80947  -6570487.26647  22481873.2184   22481876.9914
      1289.8444
  13695289.94246  10637586.30046  23847831.8434   23847833.4014
     -4201.1094
 06  4 21 11  6 30.0030000  0  9G 1G 9G11G14G17G 4G20G24G28
  -3455197.25446  -2606657.18446  24567484.1324   24567487.4134
       843.5474
   4831977.63546   3767760.67146  24163780.4994   24163784.0974
     -2671.8594
  11599731.14947   9019214.90646  22854099.9524   22854101.2184
     -3699.0784
   1434113.18746   1121123.75045  24435883.0154   24435885.9094
     -1731.4224
  -3306740.54348  -2561220.42247  21465762.6634   21465764.3394
      -307.8594
   -810190.12744   -465063.44145  25146512.0774   25146514.7614
      2815.8284
  -8178318.82047  -6344110.67746  22555565.2414   22555567.4444
       958.7034
  -8506313.34847  -6600488.40247  22474546.5544   22474550.3044
      1276.7504
  13821471.93846  10735909.92946  23871843.5544   23871845.2414
     -4211.1874
 06  4 21 11  7  0.0030000  0  9G 1G 9G11G14G17G 4G20G24G28
  -3480260.45546  -2626186.93046  24562713.8514   24562716.9794
       827.2664
   4912429.43546   3830450.31746  24179089.5694   24179093.1204
     -2691.6414
  11710863.93547   9105811.85646  22875247.7574   22875249.4794
     -3709.8284
   1486353.55446   1161830.42246  24445824.6014   24445827.8584
     -1751.3444
  -3297242.95048  -2553819.65647  21467569.9994   21467571.8044
      -325.3914
   -894611.47845   -530846.33945  25130447.6554   25130450.6084
      2812.2034
  -8206816.97847  -6366317.04646  22550141.8194   22550144.4334
       941.0944
  -8544421.06747  -6630182.72547  22467294.8354   22467298.6204
      1263.6884
  13947955.07346  10834468.11146  23895912.2024   23895914.3474
     -4221.0784
 06  4 21 11  7 30.0030000  0  9G 1G 9G11G14G17G 4G20G24G28
  -3504831.45146  -2645333.08146  24558039.4294   24558043.1904
       810.9384
   4993475.51746   3893602.96146  24194513.4294   24194516.8044
     -2711.2974
  11822321.32047   9192661.71746  22896457.3904   22896458.9254
     -3720.5314
   1539193.70946   1203004.47945  24455878.1554   24455881.1674
     -1771.2194
  -3287216.53948  -2546006.89547  21469477.7884   21469479.7454
      -342.9374
   -978919.96945   -596541.27945  25114403.6714   25114406.8704
      2808.5004
  -8234783.54147  -6388109.20546  22544820.4524   22544822.7374
       923.4384
  -8582133.81247  -6659569.26847  22460118.3584   22460122.1204
      1250.6094
  14074737.05846  10933259.22946  23920037.5544   23920039.6164
     -4230.8914
 06  4 21 11  8  0.0030000  0  9G 1G 9G11G14G17G 4G20G24G28
  -3528910.16046  -2664095.67646  24553457.3434   24553460.3784
       794.4384
   5075112.63946   3957216.37446  24210047.6874   24210051.9404
     -2731.0004
  11934099.58547   9279761.72046  22917728.6634   22917730.0224
     -3731.2194
   1592630.86646   1244643.81045  24466046.2804   24466049.9254
     -1791.1564
  -3276662.38448  -2537782.83547  21471486.3044   21471488.0624
      -360.5624
  -1063115.37045   -662148.07945  25098382.8584   25098385.9294
      2804.6414
  -8262218.24647  -6409486.81846  22539600.0384   22539602.2064
       905.6564
  -8619452.09647  -6688648.39447  22453016.8664   22453020.4644
      1237.4064
  14201813.51046  11032279.83146  23944220.1244   23944221.9874
     -4240.7194
 06  4 21 11  8 30.0030000  0  9G 1G 9G11G14G17G 4G20G24G28
  -3552494.44946  -2682472.92746  24548968.6324   24548971.6204
       777.8594
   5157337.68846   4021287.87046  24225695.9764   24225700.2184
     -2750.5784
  12046196.25947   9367109.73046  22939059.7724   22939061.1444
     -3741.8594
   1646663.60246   1286747.11946  24476329.1634   24476332.1634
     -1811.0474
  -3265580.07748  -2529147.24647  21473595.2654   21473596.9524
      -378.2344
  -1147196.37445   -727665.71245  25082383.0544   25082386.8624
      2800.7344
  -8289119.92547  -6430449.22246  22534480.6554   22534482.9874
       887.7814
  -8656375.15847  -6717419.66547  22445990.5854   22445994.3354
      1224.1414
  14329181.17146  11131527.34146  23968457.7884   23968459.2534
     -4250.4374
 06  4 21 11  9  0.0030000  0  9G 1G 9G11G14G17G 4G20G24G28
  -3575579.83246  -2700461.44246  24544575.8664   24544579.5814
       761.1724
   5240151.43146   4085818.03346  24241454.8514   24241458.6244
     -2770.2344
  12158612.31547   9454706.67346  22960451.7494   22960453.4254
     -3752.5004
   1701293.89745   1329316.14945  24486721.9054   24486725.6554
     -1830.9844
  -3253965.92848  -2520097.29147  21475804.9524   21475806.8624
      -396.0164
  -1231158.46245   -793090.71145  25066405.6084   25066408.0344
      2796.7034
  -8315483.67947  -6450992.35146  22529463.0544   22529465.4794
       869.8134
  -8692898.73047  -6745879.63847  22439040.8584   22439044.5504
      1210.7814
  14456840.44346  11231002.01246  23992749.9214   23992752.2534
     -4260.1564
 06  4 21 11  9 30.0030000  0  9G 1G 9G11G14G17G 4G20G24G28
  -3598167.91746  -2718062.60546  24540277.6014   24540280.6834
       744.5474
   5323548.02746   4150802.52746  24257323.9444   24257326.4644
     -2789.6254
  12271342.05747   9542548.00746  22981903.5074   22981904.6904
     -3762.9374
   1756517.22746   1372347.08645  24497236.3514   24497239.3154
     -1850.7194
  -3241822.64548  -2510634.92747  21478116.0934   21478118.0974
      -413.6564
  -1315003.02945   -858424.08045  25050450.2804   25050453.6444
      2792.7664
  -8341311.59748  -6471118.01547  22524548.8194   22524551.0344
       851.9064
  -8729024.68747  -6774029.61647  22432166.1244   22432169.8514
      1197.4844
  14584785.45646  11330699.46846  24017097.1554   24017099.8154
     -4269.6254
 06  4 21 11 10  0.0030000  0  9G 1G 9G11G14G17G 4G20G24G28
  -3620251.71946  -2735270.83946  24536075.0624   24536078.8354
       727.6564
   5407529.75246   4216242.65546  24273306.3974   24273307.8864
     -2809.1254
  12384388.34447   9630636.00746  23003415.3744   23003417.0974
     -3773.5004
   1812338.24146   1415844.02546  24507857.1944   24507860.5934
     -1870.6724
  -3229144.89548  -2500756.19347  21480528.7574   21480530.4564
      -431.5474
  -1398723.28245   -923660.59945  25034519.1404   25034521.9994
      2788.5474
  -8366596.71048  -6490820.66847  22519737.3904   22519739.5114
       833.7504
  -8764746.84047  -6801865.09347  22425368.1324   22425371.9404
      1183.9534
  14713018.23346  11430621.09546  24041498.3744   24041500.4254
     -4279.2344
 06  4 21 11 10 30.0030000  0  9G 1G 9G11G14G17G 4G20G24G28
  -3641831.25246  -2752086.00846  24531968.5544   24531971.9054
       710.7814
   5492092.61446   4282135.91346  24289398.9914   24289401.1124
     -2828.5624
  12497747.12247   9718967.46446  23024986.6244   23024988.1364
     -3783.9224
   1868752.66446   1459803.26045  24518592.5074   24518596.2694
     -1890.4694
  -3215933.91048  -2490461.95847  21483042.6714   21483044.5814
      -449.3754
  -1482319.77145   -988800.66745  25018611.3974   25018615.3474
      2784.3444
  -8391339.84248  -6510101.07847  22515028.5854   22515030.6594
       815.5944
  -8800066.13447  -6829386.61847  22418647.2264   22418650.8584
      1170.4694
  14841533.62746  11530762.86246  24065954.2414   24065956.6904
     -4288.6414
 06  4 21 11 11  0.0030000  0  9G 1G 9G11G14G17G 4G20G24G28
  -3662901.60746  -2768504.41246  24527958.8434   24527961.5034
       693.8594
   5577237.02746   4348482.29446  24305600.1084   24305603.0854
     -2847.7974
  12611419.44347   9807543.31446  23046618.0544   23046619.4724
     -3794.2504
   1925763.26845   1504227.19145  24529440.3974   24529445.4484
     -1910.2344
  -3202186.19448  -2479749.40547  21485658.6714   21485660.5694
      -467.1874
  -1565787.75945  -1053840.69045  25002727.5624   25002729.8354
      2780.1254
  -8415536.17648  -6528955.35447  22510423.9294   22510426.5774
       797.4384
  -8834978.55348  -6856591.11147  22412003.9294   22412007.2104
      1156.9844
  14970332.65146  11631125.69246  24090464.7724   24090466.6244
     -4297.9534
 06  4 21 11 11 30.0030000  0  9G 1G 9G11G14G17G 4G20G24G28
  -3683467.00646  -2784529.35046  24524046.9214   24524049.2654
       676.8914
   5662954.29046   4415274.94346  24321912.1944   24321914.9834
     -2866.9534
  12725397.11947   9896357.08846  23068307.4914   23068308.9444
     -3804.5004
   1983362.18345   1549109.45045  24540400.0074   24540403.8394
     -1929.9374
  -3187907.01048  -2468622.83847  21488376.0934   21488377.8394
      -485.0314
  -1649131.16545  -1118783.50545  24986868.3274   24986870.6364
      2775.8284
  -8439189.92048  -6547386.81647  22505923.0464   22505925.5424
       779.2034
  -8869488.94448  -6883482.38647  22405436.6794   22405440.0304
      1143.4384
  15099406.33346  11731702.59546  24115026.6714   24115028.3354
     -4307.1874
 06  4 21 11 12  0.0030000  0  9G 1G 9G11G14G17G 4G20G24G28
  -3703522.18746  -2800156.89546  24520229.7414   24520232.5424
       659.9534
   5749245.68846   4482514.93946  24338329.6874   24338334.2694
     -2885.9534
  12839681.90347   9985410.14346  23090055.0694   23090056.1474
     -3814.6094
   2041552.25345   1594452.17845  24551475.2264   24551477.5464
     -1949.5314
  -3173091.73048  -2457078.45847  21491195.2414   21491196.9644
      -502.8124
  -1732344.61445  -1183624.97045  24971032.9374   24971035.7494
      2771.5474
  -8462295.74148  -6565391.35647  22501526.1324   22501528.2884
       761.0164
  -8903592.01648  -6910056.11547  22398947.2414   22398950.7694
      1129.9384
  15228756.01946  11832494.50746  24139640.7884   24139642.9214
     -4316.2504
 06  4 21 11 12 30.0030000  0  9G 1G 9G11G14G17G 4G20G24G28
  -3723063.97146  -2815384.26946  24516510.0154   24516513.8474
       642.9224
   5836109.63746   4550201.08946  24354860.9684   24354864.6124
     -2904.8754
  12954272.21147  10074701.24646  23111860.7724   23111861.9914
     -3824.6414
   2100333.78645   1640255.91545  24562659.7724   24562662.7024
     -1969.1254
  -3157739.17248  -2445115.39447  21494116.7104   21494118.3974
      -520.6254
  -1815425.59345  -1248363.35345  24955222.8274   24955224.3394
      2767.2664
  -8484851.13848  -6582966.96047  22497234.1714   22497236.6324
       742.7814
  -8937285.85148  -6936310.98547  22392535.3274   22392538.4684
      1116.4064
  15358379.57746  11933499.83346  24164307.7184   24164310.0264
     -4325.2034
 06  4 21 11 13  0.0030000  0  9G 1G 9G11G14G17G 4G20G24G28
  -3742089.46246  -2830209.14846  24512890.0544   24512894.2494
       625.4064
   5923545.07246   4618332.64346  24371499.5934   24371501.0114
     -2924.1564
  13069167.40347  10164229.99946  23133724.8274   23133725.8234
     -3835.0474
   2159706.18145   1686520.22845  24573957.7884   24573961.2694
     -1989.0784
  -3141847.58748  -2432732.30747  21497140.5694   21497142.4094
      -538.8594
  -1898371.55846  -1312996.58445  24939439.9294   24939443.3624
      2762.4534
  -8506853.36847  -6600111.54847  22493046.9444   22493049.5934
       724.0164
  -8970568.52648  -6962245.55247  22386201.9294   22386205.1044
      1102.3914
  15488275.46146  12034717.41446  24189025.8584   24189028.2494
     -4334.5004
 06  4 21 11 13 30.0030000  0  9G 1G 9G11G14G17G 4G20G24G28
  -3760603.05146  -2844635.31246  24509367.1714   24509370.8274
       608.6094
   6011543.12946   4686902.42246  24388245.6714   24388248.1554
     -2942.5784
  13184359.58047  10253990.15346  23155645.0934   23155646.4524
     -3844.6414
   2219662.63145   1733239.72345  24585367.1324   24585370.1554
     -2008.2194
  -3125422.50548  -2419933.54647  21500266.2104   21500268.1324
      -556.3754
  -1981185.70946  -1377527.05245  24923680.9604   24923684.6634
      2758.2814
  -8528307.07047  -6616828.68747  22488964.5304   22488967.0734
       706.0004
  -9003444.37848  -6987863.08347  22379945.8744   22379949.0734
      1089.0944
  15618435.16046  12136140.48746  24213794.3274   24213797.0934
     -4342.9844
 06  4 21 11 14  0.0030000  0  9G 1G 9G11G14G17G 4G20G24G28
  -3778597.81746  -2858657.29746  24505942.2654   24505945.8514
       591.1254
   6100106.80046   4755913.02846  24405100.3434   24405102.9094
     -2961.5474
  13299851.76647  10343984.01546  23177622.6874   23177624.1284
     -3854.7504
   2280206.60145   1780416.86945  24596888.5154   24596890.9174
     -2027.9694
  -3108458.15348  -2406714.58747  21503494.5694   21503496.3744
      -574.5164
  -2063861.67945  -1441949.89545  24907947.4444   24907951.8624
      2753.5314
  -8549205.38047  -6633113.06747  22484987.5854   22484990.0224
       687.2974
  -9035906.98448  -7013158.63947  22373768.5154   22373771.7614
      1075.1564
  15748861.52946  12237771.34846  24238613.7024   24238615.1084
     -4352.0004
 06  4 21 11 14 30.0030000  0  9G 1G 9G11G14G17G 4G20G24G28
  -3796071.22846  -2872272.96346  24502617.9444   24502620.4874
       573.7814
   6189233.91146   4825362.71246  24422061.8354   24422063.4174
     -2980.1874
  13415642.92647  10434210.82946  23199656.8044   23199658.1284
     -3864.6094
   2341337.97745   1828051.79445  24608521.3194   24608524.4374
     -2047.4374
  -3090952.90048  -2393074.15347  21506825.5774   21506827.4174
      -592.4844
  -2146396.87445  -1506263.02345  24892241.8434   24892245.2184
      2748.8444
  -8569546.19747  -6648963.10447  22481116.6474   22481119.0854
       668.7664
  -9067954.61648  -7038130.87747  22367670.0224   22367673.0344
      1061.3594
  15879552.30046  12339608.31746  24263484.1014   24263486.6674
     -4360.7034
 06  4 21 11 15  0.0030000  0  9G 1G 9G11G14G17G 4G20G24G28
  -3813025.33946  -2885483.92646  24499391.9914   24499395.2374
       556.5164
   6278917.51146   4895245.89746  24439127.9524   24439130.2844
     -2998.6724
  13531726.60347  10524665.64746  23221746.9764   23221748.4054
     -3874.2504
   2403051.04145   1876139.85245  24620264.2414   24620266.7264
     -2066.7504
  -3072910.29748  -2379015.00547  21510259.2104   21510260.9214
      -610.3284
  -2228793.27145  -1570467.93745  24876562.6714   24876566.2224
      2744.2504
  -8589331.91247  -6664380.55947  22477351.8664   22477354.3154
       650.2974
  -9099589.83548  -7062781.71047  22361650.2574   22361653.3154
      1047.6724
  16010500.86346  12441646.13146  24288402.2804   24288404.6244
     -4369.1724
 06  4 21 11 15 30.0030000  0  9G 1G 9G11G14G17G 4G20G24G28
  -3829457.02346  -2898287.80946  24496265.1244   24496268.0894
       538.9224
   6369157.57046   4965562.81046  24456299.3584   24456302.5814
     -3017.2974
  13648102.28247  10615347.97046  23243892.4524   23243893.9994
     -3884.0944
   2465346.15145   1924681.35045  24632119.6944   24632122.7534
     -2086.2664
  -3054328.47348  -2364535.67347  21513795.1944   21513796.8124
      -628.4534
  -2311048.00245  -1634562.64245  24860909.4444   24860912.7264
      2739.3754
  -8608559.18048  -6679362.83047  22473693.3744   22473695.3314
       631.5164
  -9130810.04248  -7087109.04847  22355709.1324   22355712.1554
      1033.6884
  16141705.97346  12543883.77946  24313369.7414   24313371.6514
     -4377.8124
 06  4 21 11 16  0.0030000  0  9G 1G 9G11G14G17G 4G20G24G28
  -3845361.98046  -2910681.20046  24493237.7184   24493240.9404
       521.2974
   6459953.71046   5036313.12046  24473577.3194   24473581.1164
     -3035.8444
  13764770.46247  10706258.24346  23266093.6554   23266095.4014
     -3893.8594
   2528225.00445   1973677.95745  24644083.9764   24644086.6124
     -2105.7664
  -3035204.39048  -2349633.73247  21517434.2414   21517435.9524
      -646.5784
  -2393156.01845  -1698542.65645  24845284.9444   24845289.2334
      2734.4384
  -8627223.81248  -6693906.62647  22470141.5304   22470143.9444
       612.7194
  -9161611.74248  -7111110.30847  22349847.3824   22349850.6284
      1019.6724
  16273167.26146  12646321.15646  24338386.1944   24338388.0814
     -4386.3754
 06  4 21 11 16 30.0030000  0  9G 1G 9G11G14G17G 4G20G24G28
  -3860729.03946  -2922655.57546  24490313.7264   24490317.6284
       503.1564
   6551312.15746   5107501.56545  24490960.8584   24490965.5694
     -3054.7034
  13881738.64747  10797402.21946  23288351.6794   23288352.8744
     -3904.0004
   2591696.02046   2023136.00145  24656163.7494   24656165.9874
     -2125.6254
  -3015527.88048  -2334301.37647  21521178.7724   21521180.4014
      -665.1724
  -2475106.47345  -1762400.16945  24829690.2494   24829694.1514
      2728.9384
  -8645315.61147  -6708004.18647  22466698.1874   22466700.6714
       593.4064
  -9191984.24848  -7134777.20647  22344068.0384   22344071.1324
      1005.1724
  16404891.77146  12748963.56046  24363452.2724   24363454.8974
     -4395.2504
 06  4 21 11 17  0.0030000  0  9G 1G 9G11G14G17G 4G20G24G28
  -3875557.02746  -2934209.81846  24487491.4834   24487495.1514
       485.7034
   6643229.87646   5179125.69145  24508452.0624   24508456.0464
     -3072.7974
  13999004.26747  10888778.03846  23310667.2494   23310668.8314
     -3913.3284
   2655756.55645   2073053.53345  24668353.3664   24668356.5074
     -2144.7034
  -2995299.43348  -2318538.99347  21525027.9994   21525029.4764
      -683.0314
  -2556898.14845  -1826133.89345  24814125.1874   24814128.1044
      2724.1414
  -8662833.39848  -6721654.37647  22463365.3824   22463367.4094
       574.7974
  -9221927.07748  -7158109.35147  22338370.1084   22338373.1444
       991.3594
  16536876.12346  12851808.45446  24388568.3514   24388569.6044
     -4403.3594
 06  4 21 11 17 30.0030000  0  9G 1G 9G11G14G17G 4G20G24G28
  -3889856.31446  -2945352.08546  24484770.8744   24484773.7804
       467.8284
   6735692.92446   5251175.03346  24526045.8824   24526051.7764
     -3091.0944
  14116553.04047  10980374.43246  23333035.6164   23333037.0344
     -3922.9694
   2720392.94745   2123419.50045  24680652.5464   24680654.4444
     -2164.1414
  -2974530.20448  -2302355.20547  21528980.2574   21528981.8514
      -701.3124
  -2638541.10945  -1889751.77145  24798588.9134   24798591.4564
      2718.9844
  -8679787.83548  -6734865.63047  22460138.9834   22460141.1044
       555.7664
  -9251450.71248  -7181114.82147  22332751.9914   22332755.2264
       977.1414
  16669106.03546  12954844.71946  24413731.1714   24413732.9174
     -4411.6874
 06  4 21 11 18  0.0030000  0  9G 1G 9G11G14G17G 4G20G24G28
  -3903626.79646  -2956082.35246  24482150.5544   24482153.4374
       450.1094
   6828695.74346   5323644.79546  24543743.9994   24543749.4604
     -3109.1414
  14234381.76047  11072188.96446  23355457.6014   23355459.0654
     -3932.3594
   2785602.67645   2174232.17845  24693061.9684   24693063.8904
     -2183.3124
  -2953221.56848  -2285751.13147  21533035.1714   21533036.9404
      -719.3754
  -2720035.28245  -1953253.73545  24783081.3744   24783084.1164
      2713.8914
  -8696178.76247  -6747637.78047  22457019.5464   22457021.9604
       536.8754
  -9280555.99148  -7203794.25847  22327213.3664   22327216.4374
       963.0944
  16801576.89246  13058068.75445  24438939.6084   24438941.7184
     -4419.7814
 06  4 21 11 18 30.0030000  0  9G 1G 9G11G14G17G 4G20G24G28
  -3916863.77746  -2966396.97946  24479632.2804   24479634.9524
       432.2194
   6922239.57946   5396535.98346  24561544.1794   24561548.3624
     -3127.2194
  14352491.19647  11164222.26546  23377933.3584   23377934.9294
     -3941.7194
   2851387.63245   2225493.29345  24705579.8584   24705583.7964
     -2202.5004
  -2931369.70048  -2268723.64047  21537193.2654   21537194.9404
      -737.5474
  -2801375.68945  -2016635.83145  24767602.4684   24767605.9834
      2708.6724
  -8712001.94347  -6759967.55147  22454008.7494   22454011.0584
       517.8754
  -9309238.47048  -7226144.14247  22321755.3124   22321758.3584
       948.9384
  16934289.27646  13161480.92645  24464193.4994   24464194.8354
     -4427.8444
 06  4 21 11 19  0.0030000  0  9G 1G 9G11G14G17G 4G20G24G28
  -3929562.35246  -2976291.93446  24477215.7804   24477218.8044
       414.4224
   7016324.49346   5469848.86745  24579446.8124   24579451.1244
     -3145.0474
  14470882.20547  11256475.01546  23400462.5624   23400464.3084
     -3950.9064
   2917748.59546   2277202.88445  24718209.9834   24718213.0544
     -2221.4844
  -2908971.34148  -2251270.35147  21541455.8584   21541457.5584
      -755.5784
  -2882557.44045  -2079894.31645  24752154.2414   24752157.3944
      2703.5314
  -8727252.85847  -6771851.36047  22451106.4054   22451108.6324
       498.9384
  -9337494.11848  -7248161.53847  22316378.2184   22316381.4054
       934.8594
  17067243.40345  13265081.48445  24489493.8434   24489496.4094
     -4435.6724
 06  4 21 11 19 30.0030000  0  9G 1G 9G11G14G17G 4G20G24G28
  -3941722.51146  -2985767.33746  24474901.6554   24474904.5974
       396.2194
   7110947.00945   5543580.73346  24597453.2804   24597457.3354
     -3163.1254
  14589551.46247  11348944.54346  23423043.9294   23423045.4294
     -3960.4064
   2984683.44346   2329359.80945  24730947.3584   24730949.7144
     -2240.8284
  -2886027.63248  -2233392.12547  21545821.7104   21545823.3864
      -774.0164
  -2963580.09645  -2143028.85545  24736736.7724   24736739.6554
      2697.9534
  -8741931.67047  -6783289.35047  22448313.4134   22448316.0034
       479.6094
  -9365323.32748  -7269846.63147  22311082.4914   22311085.7264
       920.3914
  17200434.94545  13368867.05645  24514838.9684   24514840.9604
     -4443.7814
 06  4 21 11 20  0.0030000  0  9G 1G 9G11G14G17G 4G20G24G28
  -3953339.98846  -2994819.83746  24472690.0934   24472693.5854
       378.0784
   7206105.78446   5617730.25046  24615561.5934   24615566.3044
     -3181.0164
  14708499.81247  11441631.55746  23445679.4294   23445681.0694
     -3969.6874
   3052193.84045   2381965.38645  24743792.9524   24743794.4994
     -2260.0314
  -2862535.21748  -2215086.37947  21550292.1554   21550293.7374
      -792.3284
  -3044439.30945  -2206036.05345  24721349.4134   24721353.1044
      2692.4384
  -8756034.28347  -6794278.40247  22445629.5384   22445631.9994
       460.3594
  -9392722.50448  -7291196.66647  22305868.4764   22305871.8744
       906.0164
  17333864.04245  13472837.74045  24540229.6324   24540232.6674
     -4451.6724
 06  4 21 11 20 30.0030000  0  9G 1G 9G11G14G17G 4G20G24G28
  -3964415.69446  -3003450.28946  24470582.4444   24470586.6284
       360.1564
   7301796.72746   5692294.38946  24633771.1324   24633774.3084
     -3198.5624
  14827722.69847  11534532.44046  23468367.0544   23468368.3784
     -3978.6414
   3120275.26945   2435015.77145  24756747.8044   24756750.2294
     -2278.8914
  -2838496.06848  -2196354.61347  21554866.6714   21554868.2534
      -810.4064
  -3125135.09645  -2268915.84645  24705994.2654   24705998.8704
      2687.1094
  -8769561.77947  -6804819.34747  22443055.2494   22443057.6284
       441.3284
  -9419692.40348  -7312212.21747  22300736.5384   22300739.7724
       891.8444
  17467526.07445  13576989.93445  24565664.9764   24565668.5734
     -4459.2344
 06  4 21 11 21  0.0030000  0  9G 1G 9G11G14G17G 4G20G24G28
  -3974946.58246  -3011656.24846  24468578.8044   24468582.6014
       341.9384
   7398018.41746   5767272.38546  24652082.1554   24652085.9054
     -3216.1874
  14947219.51047  11627646.78546  23491106.6944   23491107.9954
     -3987.7664
   3188927.92346   2488511.35245  24769812.9374   24769815.0584
     -2297.9224
  -2813908.70748  -2177195.69647  21559545.5384   21559547.3544
      -828.7194
  -3205664.42645  -2331665.89345  24690668.3124   24690671.9214
      2681.5164
  -8782511.36147  -6814909.94347  22440590.9524   22440593.5654
       422.0164
  -9446230.93748  -7332891.62947  22295686.4444   22295689.6674
       877.4064
  17601419.29645  13681322.26045  24591144.6244   24591146.8974
     -4466.9064
 06  4 21 11 21 30.0030000  0  9G 1G 9G11G14G17G 4G20G24G28
  -3984932.65146  -3019437.56046  24466678.6714   24466681.8704
       323.8134
   7494766.24946   5842660.42646  24670492.3744   24670496.3584
     -3233.6254
  15066986.47647  11720971.67546  23513897.4444   23513898.7224
     -3996.6724
   3258148.22946   2542449.17845  24782985.6714   24782987.6514
     -2316.7344
  -2788774.18448  -2157610.32447  21564328.3044   21564330.0624
      -846.8914
  -3286027.61145  -2394286.65845  24675375.5384   24675378.5504
      2676.0164
  -8794883.20947  -6824550.31847  22438236.2884   22438238.7844
       402.7974
  -9472338.23648  -7353234.93147  22290718.3194   22290721.6364
       863.0784
  17735539.50445  13785831.48345  24616667.0154   24616669.4524
     -4474.3754
 06  4 21 11 22  0.0030000  0 10G 1G 9G11G14G17G 4G20G 5G24G28
  -3994371.27546  -3026792.20246  24464882.4294   24464885.4294
       305.4694
   7592038.06646   5918456.57745  24689003.7414   24689008.2534
     -3251.1094
  15187022.78747  11814506.50746  23536739.0154   23536740.2224
     -4005.6874
   3327936.03345   2596829.30745  24796265.4524   24796267.3864
     -2335.7034
  -2763091.06448  -2137597.48747  21569216.0624   21569217.6084
      -865.2664
  -3366221.29345  -2456775.17645  24660115.1714   24660118.3584
      2670.2664
  -8806675.23447  -6833738.83947  22435992.7264   22435995.1164
       383.3754
    -52286.44745                  25651209.4684
      2269.6414
  -9498012.36748  -7373240.73247  22285832.3904   22285835.8584
       848.5634
  17869884.94845  13890516.20045  24642232.4444   24642234.5894
     -4481.9224
 06  4 21 11 22 30.0030000  0 10G 1G 9G11G14G17G 4G20G 5G24G28
  -4003259.89746  -3033718.32046  24463190.8194   24463193.9254
       287.2034
   7689833.19446   5994660.55945  24707613.3974   24707618.2144
     -3268.3914
  15307327.62447  11908250.53546  23559633.0384   23559634.4914
     -4014.5164
   3398291.11545   2651651.46945  24809653.7884   24809656.5074
     -2354.5004
  -2736857.56448  -2117155.75347  21574207.6714   21574209.4054
      -883.5314
  -3446242.08545  -2519128.83745  24644888.3124   24644892.1204
      2664.5944
  -8817884.73247  -6842473.47047  22433859.6014   22433862.1204
       364.0314
   -120227.56145                  25638280.3824
      2259.8594
  -9523251.06048  -7392907.16647  22281029.4764   22281032.8394
       834.1254
  18004454.47345  13995375.50345  24667839.2264   24667841.1474
     -4489.2504
 06  4 21 11 23  0.0030000  0 10G 1G 9G11G14G17G 4G20G 5G24G28
  -4011600.39546  -3040217.43746  24461603.6944   24461606.8584
       268.7504
   7788145.36446   6071267.29645  24726321.7104   24726326.5264
     -3285.7504
  15427895.70347  12002199.62546  23582576.1324   23582577.3864
     -4023.4224
   3469208.71245   2706912.00045  24823148.6474   24823150.2294
     -2373.3914
  -2710076.79348  -2096287.62847  21579303.9914   21579305.8434
      -901.9224
  -3526091.75745  -2581349.29245  24629693.8664   24629697.3004
      2658.6724
  -8828514.12047  -6850756.09647  22431836.8354   22431839.1904
       344.5164
   -187873.70645    -43908.42145  25625407.3044   25625412.0384
      2249.8134
  -9548057.07048  -7412236.52747  22276309.2334   22276312.5734
       819.5164
  18139242.03145  14100404.74845  24693488.8974   24693491.8624
     -4496.6254
 06  4 21 11 23 30.0030000  0 10G 1G 9G11G14G17G 4G20G 5G24G28
  -4019389.40246  -3046286.78146  24460121.5624   24460124.6204
       250.3444
   7886973.17745   6148276.00445  24745126.9524   24745131.7224
     -3302.9064
  15548726.83447  12096353.72346  23605569.8194   23605571.0974
     -4032.1564
   3540688.16545   2762610.08045  24836750.0694   24836752.1904
     -2392.0944
  -2682746.95648  -2074991.64747  21584504.9994   21584506.6044
      -920.2344
  -3605767.07045  -2643433.95145  24614532.4444   24614535.1044
      2652.8284
  -8838560.12747  -6858584.16547  22429925.1164   22429927.6244
       325.0474
   -255220.78845    -96386.50645  25612591.9994   25612597.7534
      2239.8134
  -9572426.99248  -7431226.07447  22271672.0154   22271675.3664
       804.9694
  18274246.19945  14205602.69045  24719179.1244   24719182.7334
     -4503.8444
 06  4 21 11 24  0.0030000  0 10G 1G 9G11G14G17G 4G20G 5G24G28
  -4026626.56646  -3051926.19446  24458744.0384   24458748.0694
       232.0314
   7986312.94346   6225683.76645  24764031.7264   24764035.5694
     -3319.8124
  15669818.02747  12190710.44446  23628612.2104   23628613.5224
     -4040.6724
   3612727.64045   2818744.70545  24850458.9764   24850461.9994
     -2410.6414
  -2654868.72948  -2053268.38647  21589810.0934   21589811.7574
      -938.4224
  -3685266.74445  -2705381.77245  24599404.0934   24599406.4374
      2647.0314
  -8848022.66047  -6865957.64047  22428124.7104   22428127.3004
       305.6724
   -322267.45044   -148630.69545  25599832.8044   25599839.7694
      2229.8594
  -9596360.71148  -7449875.77247  22267117.4524   22267120.9214
       790.5164
  18409464.21745  14310967.34545  24744910.0154   24744911.3744
     -4510.7974
 06  4 21 11 24 30.0030000  0 10G 1G 9G11G14G17G 4G20G 5G24G28
  -4033312.52346  -3057136.05346  24457471.6714   24457475.2454
       213.6884
   8086159.34246   6303486.26445  24783031.4914   24783036.7764
     -3336.5944
  15791165.00947  12285266.52846  23651704.2414   23651705.3544
     -4049.1254
   3685323.63145   2875313.19545  24864274.2804   24864276.4724
     -2429.0784
  -2626443.88148  -2031119.18147  21595218.9294   21595220.7224
      -956.5944
  -3764591.03445  -2767192.92346  24584308.5074   24584311.1674
      2641.2344
  -8856902.45047  -6872876.93047  22426434.9604   22426437.3274
       286.2974
   -389012.38444   -200639.50245  25587130.8274   25587135.4684
      2219.7974
  -9619859.39148  -7468186.44547  22262645.6714   22262649.1754
       776.0474
  18544890.85945  14416494.55345  24770680.8584   24770683.8474
     -4517.6414
 06  4 21 11 25  0.0030000  0 10G 1G 9G11G14G17G 4G20G 5G24G28
  -4039447.60546  -3061916.55546  24456304.4524   24456308.0504
       195.2814
   8186507.63546   6381679.72745  24802126.2654   24802131.5854
     -3353.3124
  15912763.83147  12380018.81146  23674843.7414   23674845.4054
     -4057.5004
   3758471.59745   2932311.54245  24878192.2494   24878194.7574
     -2447.5004
  -2597473.73448  -2008544.99247  21600731.9684   21600733.5504
      -974.7814
  -3843739.88545  -2828867.19345  24569246.3124   24569249.7574
      2635.3444
  -8865200.61047  -6879342.95547  22424855.2494   22424857.7224
       266.8754
   -455455.46545   -252413.23045  25574487.8974   25574492.6204
      2209.6884
  -9642924.10248  -7486158.89647  22258256.7104   22258260.2844
       761.5474
  18680521.11245  14522180.41045  24796489.8514   24796492.5224
     -4524.4064
 06  4 21 11 25 30.0030000  0 10G 1G 9G11G14G17G 4G20G 5G24G28
  -4045026.71146  -3066263.81346  24455242.2574   24455246.4054
       176.6254
   8287358.94846   6460265.26246  24821319.4134   24821323.0344
     -3370.1254
  16034616.41547  12474968.91146  23698031.5544   23698032.6904
     -4066.0164
   3832174.28345   2989742.10245  24892216.9914   24892219.7574
     -2466.0784
  -2567954.78448  -1985543.21247  21606349.3274   21606350.7104
      -993.1724
  -3922708.00845  -2890400.70145  24554219.5774   24554223.6084
      2629.1564
  -8872911.94347  -6885351.75347  22423388.3434   22423390.9564
       247.1884
   -521589.83745   -303946.44645  25561903.0774   25561908.4094
      2199.2344
  -9665550.07548  -7503789.48347  22253951.1944   22253954.7454
       746.8134
  18816356.48245  14628026.08645  24822339.5934   24822341.9724
     -4531.2974
 06  4 21 11 26  0.0030000  0 10G 1G 9G11G14G17G 4G20G 5G24G28
  -4050048.36346  -3070176.78046  24454287.0074   24454290.5224
       158.0474
   8388710.24146   6539240.33045  24840605.4994   24840607.9134
     -3386.7194
  16156720.85947  12570115.20346  23721267.0544   23721268.0854
     -4074.3594
   3906430.38645   3047604.09545  24906348.6324   24906350.9644
     -2484.4694
  -2537886.30948  -1962113.24047  21612070.9604   21612072.4374
     -1011.4844
  -4001493.17346  -2951791.76345  24539227.9054   24539231.7024
      2623.0784
  -8880035.27447  -6890902.38047  22422032.4834   22422034.8044
       227.5944
   -587412.68245   -355237.03145  25549377.4214   25549380.4444
      2188.8284
  -9687736.06148  -7521077.27347  22249729.1014   22249732.4054
       732.1414
  18952394.61145  14734029.76645  24848227.1794   24848229.3234
     -4537.9844
 06  4 21 11 26 30.0030000  0 10G 1G 9G11G14G17G 4G20G 5G24G28
  -4054510.66846  -3073653.94346  24453438.4054   24453442.2494
       139.4534
   8490559.26446   6618603.12246  24859985.5934   24859989.3544
     -3403.2034
  16279075.92747  12665456.77346  23744550.8584   23744551.8314
     -4082.5944
   3981238.54345   3105896.18645  24920585.2104   24920588.0694
     -2502.7344
  -2507267.45648  -1938254.38147  21617897.6014   21617899.1244
     -1029.7504
  -4080092.88546  -3013038.34646  24524270.4684   24524274.3124
      2616.9224
  -8886568.77147  -6895993.43047  22420789.2104   22420791.5424
       208.0004
   -652920.52245   -406282.10945  25536911.3354   25536914.2294
      2178.3594
  -9709480.28448  -7538020.79047  22245591.0934   22245594.6674
       717.4844
  19088633.15045  14840189.58945  24874153.4834   24874154.9834
     -4544.5474
 06  4 21 11 27  0.0030000  0 10G 1G 9G11G14G17G 4G20G 5G24G28
  -4058413.41146  -3076695.09146  24452695.7724   24452699.2294
       120.8134
   8592902.12245   6698350.76645  24879460.0854   24879465.7334
     -3419.5624
  16401678.14947  12760990.90146  23767881.4684   23767883.0264
     -4090.7664
   4056595.80245   3164616.28245  24934924.2264   24934927.7654
     -2520.9844
  -2476099.38248  -1913967.57647  21623828.8354   21623830.1944
     -1048.0164
  -4158506.53546  -3074139.81346  24509348.4914   24509352.2884
      2610.7344
  -8892513.04148  -6900625.39547  22419658.4764   22419660.8194
       188.3594
   -718111.86545   -457080.51445  25524505.9444   25524509.9174
      2167.8134
  -9730783.13148  -7554620.42947  22241537.5624   22241541.2064
       702.7814
  19225068.24345  14946502.58245  24900114.7334   24900118.0154
     -4551.0314
 06  4 21 11 27 30.0030000  0 10G 1G 9G11G14G17G 4G20G 5G24G28
  -4061758.61446  -3079301.81846  24452058.8514   24452062.1084
       101.9844
   8695732.50046   6778478.25646  24899029.8744   24899034.8544
     -3436.0164
  16524522.54347  12856713.74546  23791257.8824   23791259.3124
     -4099.0474
   4132497.60445   3223760.84045  24949368.8744   24949373.0934
     -2539.2974
  -2444385.17448  -1889255.26747  21629863.6404   21629865.0344
     -1066.4694
  -4236735.41446  -3135097.33046  24494463.1714   24494466.0894
      2604.3134
  -8897869.73648  -6904799.46147  22418639.0384   22418641.2294
       168.5314
   -782987.40045   -507632.91945  25512160.9444   25512165.5624
      2156.9844
  -9751646.62348  -7570877.74947  22237567.3744   22237570.9724
       687.8914
  19361694.12145  15052964.25445  24926114.3664   24926117.1904
     -4557.5314
 06  4 21 11 28  0.0030000  0 10G 1G 9G11G14G17G 4G20G 5G24G28
  -4064542.11146  -3081470.71346  24451529.2334   24451532.3974
        83.6564
   8799049.99846   6858985.29146  24918690.1944   24918694.5894
     -3451.7504
  16647609.82147  12952625.91346  23814680.6554   23814682.0384
     -4106.6874
   4208943.46745   3283328.92745  24963914.7334   24963918.3664
     -2557.0314
  -2412121.98348  -1864115.14247  21636003.1554   21636004.6204
     -1084.3594
  -4314775.25946  -3195907.66446  24479612.4524   24479616.0264
      2598.3914
  -8902635.28747  -6908512.86547  22417731.8974   22417734.3004
       149.2194
   -847541.67345   -557934.82345  25499877.0074   25499880.5224
      2146.6564
  -9772067.52248  -7586790.15047  22233681.3664   22233684.9174
       673.5474
  19498510.28945  15159574.18845  24952149.5074   24952153.0814
     -4563.4374
 06  4 21 11 28 30.0030000  0 10G 1G 9G11G14G17G 4G20G 5G24G28
  -4066768.41846  -3083205.43146  24451105.8664   24451108.8784
        64.6564
   8902846.09046   6939865.18246  24938443.6404   24938447.5894
     -3468.0474
  16770932.10047  13048721.17646  23838147.8274   23838149.2334
     -4114.8754
   4285926.18445   3343315.03145  24978564.3974   24978567.7024
     -2575.2344
  -2379315.31748  -1838551.45947  21642246.1244   21642247.5544
     -1102.8444
  -4392629.61046  -3256573.43446  24464796.4604   24464799.3664
      2591.8134
  -8906814.20048  -6911769.10147  22416936.7654   22416939.1794
       129.2814
   -911777.73745   -607988.92745  25487652.5384   25487656.1834
      2135.6414
  -9792050.19948  -7602360.97847  22229878.3824   22229882.0154
       658.5474
  19635508.89745  15266326.29645  24978218.8514   24978222.3314
     -4569.8444
 06  4 21 11 29  0.0030000  0 10G 1G 9G11G14G17G 4G20G 5G24G28
  -4068429.71946  -3084499.91746  24450789.4524   24450792.5114
        45.8754
   9007124.93646   7021121.41345  24958286.4764   24958290.3314
     -3484.0474
  16894494.17647  13145003.31146  23861661.3824   23861662.8584
     -4122.7974
   4363450.45045   3403722.54445  24993317.9684   24993322.1754
     -2593.2974
  -2345958.10848  -1812558.77847  21648593.7024   21648595.2374
     -1121.1564
  -4470289.66646  -3317087.64646  24450017.8584   24450021.2334
      2585.3444
  -8910399.14048  -6914562.53047  22416255.0774   22416257.3274
       109.5164
   -975685.85045   -657787.30945  25475490.9604   25475494.1014
      2124.7034
  -9811587.44048  -7617584.77647  22226160.6874   22226164.2494
       643.7194
  19772693.56345  15373223.40645  25004324.2724   25004326.7804
     -4575.9844
 06  4 21 11 29 30.0030000  0 10G 1G 9G11G14G17G 4G20G 5G24G28
  -4069523.41446  -3085352.14046  24450581.2104   24450584.2454
        27.0474
   9111884.97046   7102752.67245  24978221.5624   24978224.7964
     -3499.9064
  17018295.45147  13241471.80546  23885219.5774   23885221.1594
     -4130.6094
   4441518.38846   3464554.63245  25008175.5934   25008182.5814
     -2611.1724
  -2312049.09048  -1786136.16447  21655046.0934   21655047.6514
     -1139.4374
  -4547752.44946  -3377448.21546  24435278.0694   24435281.2694
      2578.8594
  -8913387.72448  -6916891.30147  22415686.0774   22415688.5854
        89.7344
  -1039262.27545   -707327.42345  25463392.9374   25463396.4994
      2113.6884
  -9830676.60848  -7632459.44447  22222528.5224   22222532.0734
       628.8914
  19910063.27845  15480264.68745  25030465.8824   25030469.4684
     -4582.0004
 06  4 21 11 30  0.0040000  0 10G 1G 9G11G14G17G 4G20G 5G24G28
  -4070048.64846  -3085761.42346  24450481.1134   24450484.3944
         7.9384
   9217125.91946   7184758.53245  24998248.2464   24998253.0514
     -3515.9374
  17142337.54747  13338127.93946  23908824.1444   23908825.7504
     -4138.6254
   4520129.62845   3525810.28545  25023133.7154   25023134.6054
     -2629.3594
  -2277587.30848  -1759282.84347  21661604.0194   21661605.5664
     -1157.9694
  -4625018.99446  -3437655.88346  24420574.4184   24420577.8054
      2572.0634
  -8915779.19848  -6918754.79347  22415231.0044   22415233.1844
        69.6564
  -1102506.51745   -756608.58745  25451357.9804   25451361.5084
      2102.4064
  -9849317.65548  -7646984.95247  22218981.3404   22218984.7734
       613.7664
  20047619.64245  15587451.40445  25056642.7544   25056644.2304
     -4588.1254
 06  4 21 11 30 30.0040000  0 10G 1G 9G11G14G17G 4G20G 5G24G28
  -4070003.65046  -3085726.41246  24450489.5824   24450493.4144
       -10.8594
   9322838.29746   7267131.89845  25018364.5274   25018368.0784
     -3531.4694
  17266611.04347  13434964.35346  23932472.6374   23932474.2544
     -4146.2034
   4599277.01045   3587483.89645  25038194.0984   25038197.2034
     -2647.0784
  -2242574.36748  -1732000.04047  21668267.0984   21668268.6094
     -1176.1254
  -4702081.68746  -3497704.76146  24405909.1374   24405912.1024
      2565.5314
  -8917571.79248  -6920151.63947  22414889.8244   22414892.2974
        49.9384
  -1165411.04245   -805624.92745  25439387.2384   25439392.1374
      2091.3444
  -9867508.16648  -7661159.38047  22215519.8634   22215523.2504
       599.0164
  20185351.32945  15694774.71245  25082851.1374   25082852.8244
     -4593.8444
 06  4 21 11 31  0.0040000  0 10G 1G 9G11G14G17G 4G20G 5G24G28
  -4069393.10446  -3085250.71446  24450605.9184   24450609.5744
       -30.0164
   9429016.72246   7349868.31346  25038570.3094   25038573.2624
     -3547.2344
  17391112.46247  13531978.38546  23956164.7074   23956165.6684
     -4154.0474
   4678955.43345   3649571.50845  25053355.7624   25053358.4224
     -2664.9844
  -2207015.07448  -1704291.56247  21675033.6604   21675035.1024
     -1194.6414
  -4778947.06846  -3557599.81246  24391282.9264   24391286.3484
      2558.6254
  -8918770.56447  -6921085.78247  22414661.6684   22414664.1174
        29.8134
  -1227981.49645   -854381.17145  25427480.6764   25427485.5394
      2079.8594
  -9885253.50048  -7674986.96047  22212142.9574   22212146.4494
       583.8444
  20323254.32245  15802231.55545  25109093.7464   25109096.3244
     -4599.7814
 06  4 21 11 31 30.0040000  0 10G 1G 9G11G14G17G 4G20G 5G24G28
  -4068206.94146  -3084326.37746  24450831.3634   24450835.2304
       -49.3594
   9535666.53746   7432971.94845  25058864.4264   25058866.9224
     -3563.0784
  17515848.00346  13629174.92346  23979900.7464   23979902.4694
     -4161.9534
   4759170.22645   3712076.16445  25068620.8554   25068623.9374
     -2683.0004
  -2170900.33948  -1676150.19247  21681905.8794   21681907.5554
     -1213.3124
  -4855604.62646  -3617332.96546  24376695.1914   24376698.8944
      2551.5474
  -8919366.23248  -6921549.94247  22414548.1374   22414550.2814
         9.5634
  -1290206.23445   -902867.91045  25415639.7774   25415644.1954
      2068.1414
  -9902543.96148  -7688460.00347  22208852.5194   22208855.8944
       568.5314
  20461334.32945  15909826.32445  25135368.1214   25135370.9454
     -4605.7974
 06  4 21 11 32  0.0040000  0 10G 1G 9G11G14G17G 4G20G 5G24G28
  -4066445.25646  -3082953.51446  24451166.9264   24451171.0164
       -68.3754
   9642784.27846   7516440.29245  25079248.9184   25079251.3914
     -3578.4064
  17640814.83347  13726551.65546  24003680.8164   24003682.4104
     -4169.4534
   4839920.38645   3774998.56245  25083985.8094   25083987.6844
     -2700.6094
  -2134231.28848  -1647576.85047  21688883.7154   21688885.3914
     -1231.5784
  -4932053.73546  -3676903.68846  24362147.3324   24362151.1294
      2544.7814
  -8919358.99347  -6921544.24547  22414549.4964   22414551.9924
       -10.3444
  -1352083.95945   -951084.39245  25403865.4884   25403868.5234
      2056.7194
  -9919379.87148  -7701578.85547  22205648.6684   22205652.0554
       553.5784
  20599587.82445  16017556.26245  25161676.8484   25161677.7974
     -4611.3594
 06  4 21 11 32 30.0040000  0 10G 1G 9G11G14G17G 4G20G 5G24G28
  -4064112.34946  -3081135.66046  24451610.6844   24451614.5864
       -87.4534
   9750361.43345   7600266.57645  25099719.0744   25099721.2894
     -3593.6724
  17766005.92847  13824103.09246  24027504.4494   24027505.5274
     -4176.9064
   4921197.85445   3838331.52645  25099452.9964   25099454.5434
     -2718.2034
  -2097013.19548  -1618575.70447  21695966.3484   21695967.7544
     -1249.9064
  -5008297.15046  -3736314.04146  24347638.9264   24347642.0314
      2537.8444
  -8918752.97147  -6921072.00747  22414664.9024   22414667.4224
       -30.3444
  -1413616.73845   -999031.99345  25392155.8014   25392160.2304
      2045.1564
  -9935765.52148  -7714346.82947  22202530.6054   22202534.1214
       538.5164
  20738007.27145  16125415.51645  25188016.9344   25188021.0004
     -4616.8914
 06  4 21 11 33  0.0040000  0 10G 1G 9G11G14G17G 4G20G 5G24G28
  -4061204.26046  -3078869.62746  24452163.8014   24452167.4344
      -106.6094
   9858397.03945   7684449.99745  25120277.3874   25120281.4534
     -3608.8594
  17891421.81946  13921829.70846  24051369.9654   24051371.5354
     -4184.3124
   5003003.32545   3902076.11945  25115019.9494   25115023.5124
     -2735.7194
  -2059243.62648  -1589144.90747  21703153.7544   21703155.2664
     -1268.2504
  -5084330.74646  -3795560.95246  24333170.1524   24333172.6024
      2530.8914
  -8917544.73348  -6920130.57347  22414894.8324   22414897.2464
       -50.3914
  -1474799.08145  -1046706.50645  25380513.6684   25380516.8444
      2033.5164
  -9951697.63048  -7726761.50047  22199498.5044   22199502.0084
       523.4384
  20876592.33445  16233403.81145  25214390.0824   25214392.8124
     -4622.2814
 06  4 21 11 33 30.0040000  0 10G 1G 9G11G14G17G 4G20G 5G24G28
  -4057721.40646  -3076155.63646  24452826.6684   24452830.4534
      -125.8754
   9966887.39845   7768987.93445  25140922.3874   25140924.7194
     -3624.0624
  18017058.89747  14019728.72546  24075278.6764   24075280.1524
     -4191.7664
   5085334.73145   3966230.75345  25130687.0744   25130690.9774
     -2753.3124
  -2020924.03948  -1559285.49447  21710445.5274   21710447.2624
     -1286.6874
  -5160154.34946  -3854644.28646  24318741.9414   24318745.1174
      2523.7344
  -8915734.95048  -6918720.33647  22415239.3554   22415241.7584
       -70.5474
  -1535630.54845  -1094107.81045  25368937.7854   25368941.5004
      2021.6254
  -9967176.64848  -7738823.06347  22196553.3404   22196556.7504
       508.2194
  21015338.73845  16341517.81645  25240792.6294   25240795.8164
     -4627.7344
 06  4 21 11 34  0.0040000  0 10G 1G 9G11G14G17G 4G20G 5G24G28
  -4053659.38446  -3072990.50146  24453599.5434   24453603.2344
      -145.0314
  10075832.62445   7853880.18645  25161654.0984   25161658.0704
     -3639.0164
  18142919.42847  14117801.80646  24099229.1914   24099230.7034
     -4199.0004
   5168192.24045   4030795.26845  25146454.9884   25146457.5784
     -2770.6254
  -1982050.32048  -1528994.29647  21717843.0984   21717844.6804
     -1305.0004
  -5235762.11546  -3913559.39646  24304353.4104   24304356.3874
      2516.6884
  -8913319.29447  -6916838.01647  22415698.8094   22415701.3404
       -90.5944
  -1596103.81845  -1141229.75745  25357429.1524   25357433.0434
      2009.8134
  -9982198.03548  -7750528.04247  22193695.3244   22193698.5824
       493.1094
  21154247.63245  16449758.47845  25267226.9184   25267230.1764
     -4632.9694
 06  4 21 11 34 30.0040000  0 10G 1G 9G11G14G17G 4G20G 5G24G28
  -4049024.30246  -3069378.80046  24454482.3944   24454484.9024
      -164.0164
  10185222.56845   7939118.99345  25182471.3874   25182475.5704
     -3653.6724
  18268993.41247  14216041.23546  24123219.2694   24123220.1604
     -4205.9694
   5251566.42045   4095762.10045  25162319.0904   25162321.7154
     -2787.6724
  -1942630.06848  -1498277.23747  21725344.5044   21725346.0274
     -1323.0784
  -5311159.51646  -3972310.63746  24290005.8484   24290009.1644
      2509.7664
  -8910304.22648  -6914488.63547  22416272.7464   22416275.2544
      -110.4534
  -1656224.08645  -1188076.58145  25345988.9574   25345993.1874
      1998.1414
  -9996768.16948  -7761881.42247  22190922.5664   22190925.7774
       478.1884
  21293308.84145  16558117.78345  25293689.6374   25293692.0624
     -4637.8444
 06  4 21 11 35  0.0040000  0 10G 1G 9G11G14G17G 4G20G 5G24G28
  -4043808.25446  -3065314.31446  24455474.8554   24455477.8914
      -183.5784
  10295061.06445   8024707.45145  25203372.4184   25203376.0044
     -3668.7504
  18395286.17347  14314451.14946  24147252.2304   24147253.5554
     -4213.4224
   5335462.11045   4161134.90145  25178285.3164   25178287.5314
     -2805.2504
  -1902656.76048  -1467129.19247  21732950.9494   21732952.5664
     -1341.7034
  -5386337.97046  -4030891.19046  24275700.3404   24275703.6214
      2502.2344
  -8906682.26248  -6911666.32147  22416961.9024   22416964.3054
      -130.8914
  -1715981.68045  -1234640.78845  25334617.4494   25334621.6214
      1985.8284
 -10010879.47348  -7772877.22047  22188237.1134   22188240.5234
       462.6884
  21432526.63745  16666599.11545  25320181.1294   25320183.5554
     -4643.2504
 06  4 21 11 35 30.0040000  0 10G 1G 9G11G14G17G 4G20G 5G24G28
  -4038012.70846  -3060798.18346  24456576.9494   24456580.4184
      -202.9844
  10405342.18745   8110640.81345  25224358.7934   25224363.0004
     -3683.5004
  18521793.19247  14413028.02246  24171325.9804   24171327.4104
     -4220.5944
   5419875.93545   4226912.05645  25194348.6844   25194352.3754
     -2822.5314
  -1862132.72648  -1435552.01647  21740662.5514   21740664.3204
     -1360.1254
  -5461297.97346  -4089301.63146  24261435.1214   24261438.9884
      2494.8914
  -8902455.33747  -6908372.58847  22417765.9574   22417768.3834
      -151.1254
  -1775376.92245  -1280922.88045  25323315.2234   25323318.7624
      1973.6254
 -10024533.78848  -7783516.95047  22185638.7854   22185642.1484
       447.3914
  21571895.81945  16775198.41145  25346702.7544   25346705.0624
     -4648.2814
 06  4 21 11 36  0.0040000  0 10G 1G 9G11G14G17G 4G20G 5G24G28
  -4031632.86446  -3055826.81846  24457791.3404   24457794.7504
      -222.3284
  10516066.94145   8196919.78645  25245428.1054   25245432.4534
     -3698.1254
  18648516.70247  14511773.56546  24195440.4494   24195441.9144
     -4227.6254
   5504809.55645   4293094.11545  25210510.8164   25210513.2304
     -2839.7034
  -1821053.94248  -1403542.51747  21748479.5354   21748481.0124
     -1378.4694
  -5536033.36846  -4147536.92046  24247214.1994   24247217.0004
      2487.4694
  -8897618.39347  -6904603.54147  22418686.4184   22418689.0554
      -171.3444
  -1834402.53145  -1326916.91045  25312081.9734   25312085.9104
      1961.4064
 -10037726.09048  -7793796.59847  22183128.4414   22183131.7114
       432.1094
  21711417.90345  16883916.85545  25373253.4024   25373255.3594
     -4653.1724
 06  4 21 11 36 30.0040000  0 10G 1G 9G11G14G17G 4G20G 5G24G28
  -4024671.88146  -3050402.71046  24459116.3164   24459119.1874
      -241.6564
  10627228.42245   8283539.12845  25266581.6524   25266585.8014
     -3712.5624
  18775450.84847  14610683.27046  24219595.9184   24219597.7584
     -4234.5474
   5590257.26645   4359677.05845  25226771.1444   25226775.9264
     -2856.6874
  -1779424.50748  -1371103.96747  21756401.3094   21756402.9144
     -1396.7504
  -5610546.37446  -4205599.00146  24233035.1684   24233037.7934
      2480.1254
  -8892174.72048  -6900361.70447  22419722.8634   22419725.4304
      -191.5004
  -1893059.87745  -1372623.91945  25300920.4804   25300925.1684
      1949.1564
 -10050459.73348  -7803718.89647  22180704.9654   22180708.4694
       416.8754
  21851086.24245  16992749.27645  25399829.5354   25399833.2624
     -4657.9534
 06  4 21 11 37  0.0040000  0 10G 1G 9G11G14G17G 4G20G 5G24G28
  -4017126.30146  -3044522.97246  24460551.9734   24460554.9024
      -261.2344
  10738825.34745   8370497.73345  25287817.4494   25287821.6094
     -3727.0944
  18902595.62446  14709757.12046  24243790.4024   24243791.7854
     -4241.6094
   5676217.69345   4426659.03845  25243128.5124   25243131.5354
     -2873.8594
  -1737242.40248  -1338234.78247  21764428.1054   21764429.8524
     -1415.2504
  -5684833.04846  -4263484.58846  24218897.9184   24218900.9654
      2472.4694
  -8886121.61648  -6895644.99147  22420874.4344   22420876.6484
      -211.8914
  -1951344.08045  -1418040.13545  25289829.3714   25289833.4734
      1936.5944
 -10062731.40948  -7813281.25447  22178369.8014   22178373.4344
       401.3914
  21990900.19745  17101695.10945  25426436.1764   25426438.5314
     -4662.8124
 06  4 21 11 37 30.0040000  0 10G 1G 9G11G14G17G 4G20G 5G24G28
  -4008994.47646  -3038186.48946  24462099.3554   24462102.5194
      -280.9844
  10850855.93246   8457794.40346  25309137.2074   25309141.0164
     -3741.6874
  19029950.08146  14808994.31646  24268025.2384   24268026.6914
     -4248.7814
   5762691.40645   4494041.22145  25259583.8094   25259587.4534
     -2891.1414
  -1694506.55748  -1304934.11347  21772560.6844   21772562.2194
     -1433.9064
  -5758890.35046  -4321191.58546  24204805.3164   24204808.4104
      2464.5634
  -8879457.67148  -6890452.30947  22422142.2234   22422144.4964
      -232.4844
  -2009251.62245  -1463162.96645  25278809.9024   25278813.3484
      1923.7814
 -10074539.40848  -7822482.30147  22176122.8794   22176126.2664
       385.7034
  22130858.42945  17210753.44245  25453068.8324   25453072.9344
     -4667.7974
 06  4 21 11 38  0.0040000  0 10G 1G 9G11G14G17G 4G20G 5G24G28
  -4000271.53546  -3031389.47946  24463758.9964   24463762.0314
      -300.4534
  10963320.74645   8545429.19845  25330538.0124   25330541.7734
     -3755.8594
  19157516.57646  14908396.70746  24292300.1764   24292301.9344
     -4255.5784
   5849679.57845   4561824.28745  25276137.4574   25276142.0044
     -2907.9844
  -1651213.22348  -1271199.04247  21780799.1844   21780800.6604
     -1452.2194
  -5832712.35246  -4378715.27946  24190757.7774   24190760.8714
      2456.9694
  -8872177.77948  -6884779.67547  22423527.9574   22423530.1954
      -252.7664
  -2066775.50545  -1507986.78345  25267863.4184   25267867.1334
      1911.2194
 -10085879.05648  -7831318.39647  22173964.9734   22173968.5594
       370.3444
  22270962.00745  17319924.97745  25479731.4184   25479736.4224
     -4672.2814
 06  4 21 11 38 30.0040000  0 10G 1G 9G11G14G17G 4G20G 5G24G28
  -3990964.97846  -3024137.55046  24465530.3094   24465533.3444
      -319.9374
  11076208.50043   8633393.63545  25352017.5904   25352023.6724
     -3769.9374
  19285284.78946  15007956.32946  24316613.5594   24316615.0474
     -4262.2504
   5937171.60745   4629999.89945  25292785.7234   25292789.0744
     -2924.7814
  -1607371.25248  -1237036.48847  21789141.9264   21789143.5084
     -1470.5164
  -5906305.67246  -4436060.66446  24176752.9184   24176756.2934
      2449.3284
  -8864289.93148  -6878633.29547  22425028.8484   22425031.1684
      -273.0314
  -2123921.77745  -1552516.33245  25256988.6524   25256992.8244
      1898.5784
 -10096758.20248  -7839795.66547  22171894.9734   22171898.3244
       354.9694
  22411199.80845  17429201.13645  25506416.9494   25506419.5624
     -4676.7814
 06  4 21 11 39  0.0040000  0 10G 1G 9G11G14G17G 4G20G 5G24G28
  -3981070.57746  -3016427.56246  24467413.0904   24467416.1374
      -339.7664
  11189519.24744   8721687.55145  25373581.3714   25373587.6294
     -3784.1874
  19413255.81746  15107673.98946  24340965.7774   24340967.1374
     -4269.2194
   6025168.91145   4698569.26945  25309531.2384   25309533.3834
     -2941.7664
  -1562977.17548  -1202443.70947  21797590.0514   21797591.4454
     -1489.1564
  -5979665.10946  -4493223.77746  24162793.7384   24162796.0474
      2441.2664
  -8855790.14748  -6872010.08647  22426646.1134   22426648.4804
      -293.6724
  -2180684.27645  -1596746.82545  25246187.2774   25246191.2974
      1885.5164
 -10107172.21948  -7847910.47347  22169912.9734   22169916.4414
       339.2344
  22551572.59945  17538582.45645  25533130.2154   25533132.8984
     -4681.4374
 06  4 21 11 39 30.0040000  0 10G 1G 9G11G14G17G 4G20G 5G24G28
  -3970587.47046  -3008258.88946  24469407.9804   24469410.9694
      -359.3754
  11303250.06746   8810308.95045  25395225.5044   25395229.8754
     -3798.0944
  19541428.24946  15207548.58046  24365356.4024   24365357.8444
     -4275.8594
   6113669.28045   4767530.47445  25326372.9344   25326376.2274
     -2958.5004
  -1518031.02148  -1167420.70247  21806143.0904   21806144.3794
     -1507.5164
  -6052788.40146  -4550202.90046  24148878.9024   24148881.5274
      2433.3914
  -8846677.96348  -6864909.68047  22428380.3944   22428382.7154
      -314.0624
  -2237060.30245  -1640676.05745  25235458.8014   25235463.2664
      1872.6254
 -10117120.33748  -7855662.20247  22168019.8944   22168023.3634
       323.7194
  22692077.93145  17648067.00345  25559867.6914   25559870.8674
     -4685.7814
 06  4 21 11 40  0.0040000  0 10G 1G 9G11G14G17G 4G20G 5G24G28
  -3959513.50846  -2999629.87946  24471514.6994   24471518.2154
      -378.7974
  11417398.76246   8899255.99645  25416948.8714   25416949.6564
     -3811.7194
  19669801.36646  15307579.52646  24389784.5124   24389786.2814
     -4282.2344
   6202672.24445   4836883.42345  25343309.1054   25343313.8284
     -2974.9064
  -1472531.75348  -1131966.72947  21814801.1294   21814802.5474
     -1525.6724
  -6125672.73946  -4606995.85746  24135008.9884   24135012.0004
      2425.6724
  -8836951.37048  -6857330.54247  22430231.4414   22430233.7154
      -334.2814
  -2293046.07345  -1684301.48645  25224805.1444   25224810.6994
      1859.8594
 -10126600.64548  -7863049.44647  22166215.8094   22166219.4064
       308.3914
  22832714.43245  17757653.84445  25586629.4264   25586631.4304
     -4689.8754
 06  4 21 11 40 30.0040000  0 10G 1G 9G11G14G17G 4G20G 5G24G28
  -3947851.16246  -2990542.28046  24473734.4414   24473738.3324
      -398.6414
  11531959.28946   8988524.13245  25438747.6844   25438749.5124
     -3825.6094
  19798369.85746  15407762.74746  24414251.1374   24414253.3054
     -4288.9374
   6292172.44245   4906623.80445  25360340.5984   25360344.0664
     -2991.7194
  -1426482.75648  -1096084.39247  21823563.7774   21823565.4654
     -1544.2034
  -6198319.06646  -4663603.36146  24121185.4574   24121188.7274
      2417.4844
  -8826613.12648  -6849274.76047  22432198.4964   22432200.8984
      -354.8914
  -2348641.63345  -1727622.52145  25214225.4344   25214229.7694
      1846.5784
 -10135615.68948  -7870074.14747  22164500.5594   22164503.9104
       292.6564
  22973476.15345  17867338.25645  25613416.3944   25613415.7974
     -4694.2034
 06  4 21 11 41  0.0040000  0 10G 1G 9G11G14G17G 4G20G 5G24G28
  -3935599.22046  -2980995.32146  24476066.1604   24476069.3364
      -418.0474
  11646928.93044   9078110.93045  25460622.8874   25460628.3714
     -3838.8914
  19927132.40246  15508097.14746  24438753.7464   24438755.0704
     -4295.1094
   6382167.89945   4976750.14245  25377466.4804   25377467.4064
     -3007.8754
  -1379884.14248  -1059773.79547  21832431.3554   21832433.0194
     -1562.2664
  -6270725.29746  -4720023.78946  24107406.8634   24107409.8524
      2409.7194
  -8815662.24748  -6840741.60647  22434282.9654   22434285.0624
      -375.0624
  -2403844.42945  -1770637.72645  25203722.2154   25203726.5394
      1833.7034
 -10144164.33848  -7876735.42847  22162873.6994   22162877.0394
       277.3594
  23114360.83545  17977118.42745  25640224.1684   25640224.7664
     -4698.0314
 06  4 21 11 41 30.0040000  0 10G 1G 9G11G14G17G 4G20G 5G24G28
  -3922753.83846  -2970985.95446  24478510.2774   24478513.4064
      -438.0164
  11762307.30845   9168016.06945  25482579.4024   25482584.4064
     -3852.6414
  20056090.53646  15608583.96646  24463293.3324   24463295.3484
     -4301.7814
   6472659.65245   5047262.96745  25394687.0044   25394689.1254
     -3024.6414
  -1332732.51848  -1023032.29947  21841403.9884   21841405.6294
     -1580.8594
  -6342885.96946  -4776252.82946  24093675.2074   24093678.0314
      2401.3134
  -8804095.07548  -6831728.24047  22436483.5274   22436485.9654
      -395.7974
  -2458648.19846  -1813341.95845  25193293.5594   25193297.5314
      1820.1724
 -10152242.50548  -7883030.12047  22161336.6374   22161339.7304
       261.4844
  23255369.20544  18086995.00445  25667057.3484   25667059.0704
     -4702.2664
 06  4 21 11 42  0.0040000  0 10G 1G 9G11G14G17G 4G20G 5G24G28
  -3909312.95746  -2960512.56146  24481067.6374   24481070.8944
      -458.0314
  11878092.66146   9258238.27446  25504614.4884   25504619.5274
     -3866.3594
  20185243.68046  15709222.73246  24487870.5044   24487871.8054
     -4308.4064
   6563647.97845   5118163.43645  25411999.8404   25412002.5124
     -3041.2194
  -1285027.07748   -985859.26547  21850482.0904   21850483.9884
     -1599.4844
  -6414797.88046  -4832288.06046  24079990.2774   24079993.0434
      2392.8444
  -8791909.65348  -6822233.13747  22438802.3244   22438804.8794
      -416.5624
  -2513049.05546  -1855732.17445  25182940.2694   25182945.1684
      1806.5474
 -10159848.21948  -7888956.65347  22159889.0514   22159892.3914
       245.5784
  23396500.40244  18196967.28245  25693914.5904   25693917.4264
     -4706.4534
 06  4 21 11 42 30.0040000  0 10G 1G 9G11G14G17G 4G20G 5G24G28
  -3895274.43446  -2949573.42446  24483739.4024   24483743.2934
      -477.9064
  11994283.36146   9348776.40745  25526725.2464   25526728.2344
     -3879.7194
  20314591.22846  15810013.01146  24512484.5824   24512485.3094
     -4314.7974
   6655130.60645   5189448.71245  25429409.3794   25429413.5624
     -3057.6254
  -1236766.41348   -948253.53447  21859665.4964   21859667.3124
     -1617.9224
  -6486457.85346  -4888126.92446  24066353.4414   24066356.4884
      2384.4534
  -8779104.42648  -6812255.03747  22441239.5194   22441241.5944
      -437.1724
  -2567043.55845  -1897806.01945  25172664.5434   25172669.1484
      1793.0004
 -10166979.35248  -7894513.34647  22158532.0044   22158535.4024
       229.7974
  23537752.65943  18307033.90045  25720792.9964   25720797.0164
     -4710.3594
 06  4 21 11 43  0.0040000  0 10G 1G 9G11G14G17G 4G20G 5G24G28
  -3880641.13546  -2938170.87046  24486524.0434   24486528.1684
      -497.8124
  12110872.64246   9439625.22345  25548910.4494   25548911.5624
     -3893.0164
  20444127.69646  15910950.48546  24537134.6214   24537135.8404
     -4321.1254
   6747101.62145   5261114.31845  25446910.8944   25446913.5784
     -3073.9534
  -1187954.50648   -910218.29547  21868954.3484   21868956.0594
     -1636.3754
  -6557867.79546  -4943771.03346  24052765.2544   24052768.5594
      2376.0004
  -8765682.17948  -6801796.12447  22443793.5124   22443795.9264
      -457.8124
  -2620631.66546  -1939562.90545  25162468.0744   25162472.7274
      1779.3594
 -10173639.00548  -7899702.71247  22157264.6994   22157268.1334
       214.0004
  23679119.84643  18417190.09845  25747692.1214   25747694.6414
     -4714.2504
 06  4 21 11 43 30.0040000  0 10G 1G 9G11G14G17G 4G20G 5G24G28
  -3865408.33346  -2926301.13346  24489422.5984   24489425.9614
      -517.5944
  12227861.31744   9530785.25245  25571170.6844   25571176.0864
     -3906.0784
  20573855.23246  16012036.82746  24561820.8244   24561822.5234
     -4327.2504
   6839564.00245   5333163.06545  25464504.9804   25464508.6844
     -3090.0624
  -1138587.49048   -871750.48747  21878348.1604   21878349.9304
     -1654.6414
  -6629021.50746  -4999215.51846  24039224.7304   24039227.8834
      2367.6564
  -8751638.76548  -6790853.19047  22446465.9804   22446468.2544
      -478.2974
  -2673807.24746  -1980998.48645  25152348.8794   25152353.3674
      1765.7974
 -10179821.98948  -7904520.60247  22156088.2234   22156091.5624
       198.3284
  23820603.43543  18527436.96145  25774617.3404   25774622.2034
     -4717.8124
 06  4 21 11 44  0.0040000  0  9G 1G 9G11G14G17G 4G20G 5G24
  -3849583.89746  -2913970.41546  24492433.9414   24492437.5044
      -537.3914
  12345238.85145   9622248.23745  25593508.4574   25593512.9694
     -3919.0474
  20703763.96246  16113264.35546  24586541.1214   24586543.0434
     -4333.3444
   6932506.58045   5405585.87345  25482192.2384   25482195.5194
     -3106.0624
  -1088674.15048   -832856.99747  21887846.4884   21887848.4924
     -1672.9224
  -6699924.98546  -5054464.89546  24025732.9574   24025735.8054
      2359.2194
  -8736982.17448  -6779432.47447  22449255.1054   22449257.1804
      -498.7974
  -2726575.34446  -2022116.25245  25142307.4734   25142311.9734
      1752.0784
 -10185536.16848  -7908973.22247  22155000.6444   22155004.1024
       182.6094
 06  4 21 11 44 30.0040000  0  9G 1G 9G11G14G17G 4G20G 5G24
  -3833158.34946  -2901171.31446  24495559.5514   24495563.1844
      -557.5474
  12463009.06046   9714016.98745  25615920.6444   25615923.5394
     -3932.2504
  20833860.76946  16214638.44246  24611298.1604   24611299.6484
     -4339.6564
   7025935.65445   5478387.61745  25499971.5744   25499973.2734
     -3122.3594
  -1038206.00348   -793531.16547  21897450.5434   21897452.3714
     -1691.5004
  -6770568.00246  -5109511.36146  24012289.6914   24012292.4924
      2350.4064
  -8721703.38948  -6767526.95047  22452162.6134   22452164.8054
      -519.6564
  -2778925.20646  -2062908.24545  25132345.8324   25132349.5474
      1738.0164
 -10190771.93548  -7913053.02847  22154004.2074   22154007.7934
       166.5634
 06  4 21 11 45  0.0040000  0  9G 1G 9G11G14G17G 4G20G 5G24
  -3816128.42946  -2887901.31746  24498799.9414   24498803.7854
      -577.7034
  12581172.72246   9806092.73245  25638406.3324   25638410.2464
     -3945.2974
  20964146.16446  16316159.47646  24636091.0594   24636092.4534
     -4345.9374
   7119852.03645   5551569.20445  25517842.9264   25517845.2234
     -3138.6564
   -987180.76248   -753771.27047  21907160.3164   21907162.1214
     -1710.1094
  -6840946.12046  -5164351.46946  23998896.4184   23998898.9734
      2341.5314
  -8705799.03148  -6755133.96047  22455189.3404   22455191.4964
      -540.5314
  -2830851.83046  -2103370.53445  25122464.5354   25122468.6374
      1723.8914
 -10195526.15748  -7916757.63447  22153099.6994   22153103.0864
       150.4694
 06  4 21 11 45 30.0040000  0  9G 1G 9G11G14G17G 4G20G 5G24
  -3798494.51146  -2874160.60746  24502155.4964   24502159.1414
      -597.9224
  12699724.79745   9898470.95045  25660963.4964   25660967.3634
     -3958.2344
  21094617.35846  16417825.31446  24660919.1994   24660920.4534
     -4352.1874
   7214252.14545   5625127.30945  25535806.5274   25535808.8834
     -3154.8284
   -935599.70448   -713578.24047  21916975.7304   21916977.7114
     -1728.7034
  -6911057.93746  -5218984.00346  23985554.9574   23985558.0864
      2332.5314
  -8689269.98648  -6742254.18947  22458334.1604   22458336.6444
      -561.4534
  -2882352.96346  -2143501.36345  25112664.7934   25112668.9064
      1709.5004
 -10199799.00848  -7920087.11147  22152286.4964   22152290.0944
       134.3444
 06  4 21 11 46  0.0040000  0  9G 1G 9G11G14G17G 4G20G 5G24
  -3780258.37546  -2859950.64146  24505626.0124   24505629.5624
      -618.0624
  12818660.62245   9991148.13945  25683597.2384   25683601.9374
     -3971.0004
  21225270.83546  16519633.18846  24685781.1444   24685782.4454
     -4358.2504
   7309131.97745   5699059.58345  25553861.5904   25553864.5904
     -3170.7814
   -883465.33148   -672954.06947  21926896.6994   21926898.5164
     -1747.1724
  -6980903.70546  -5273409.20546  23972263.6054   23972266.3594
      2323.5944
  -8672117.81748  -6728888.89347  22461598.4264   22461600.5824
      -582.2664
  -2933428.39846  -2183300.30545  25102945.4184   25102949.4614
      1695.2344
 -10203592.07448  -7923042.75647  22151564.7854   22151568.2774
       118.2974
 06  4 21 11 46 30.0040000  0  9G 1G 9G11G14G17G 4G20G 5G24
  -3761420.63946  -2845271.88546  24509211.1294   24509215.2304
      -637.8444
  12937975.25845  10084120.59345  25706302.2624   25706305.4494
     -3983.2974
  21356103.04846  16621580.32246  24710677.1684   24710679.5004
     -4363.9064
   7404487.65445   5773362.65345  25572007.1684   25572010.6484
     -3186.3284
   -830779.28448   -631900.00247  21936922.6214   21936924.2034
     -1765.2664
  -7050483.07546  -5327626.85346  23959023.6054   23959026.2304
      2314.9844
  -8654343.90048  -6715039.07047  22464980.3244   22464982.5274
      -602.7034
  -2984076.70346  -2222766.35345  25093307.3484   25093311.5314
      1681.2504
 -10206906.37948  -7925625.30247  22150933.9104   22150937.3914
       102.6094
 06  4 21 11 47  0.0040000  0  9G 1G 9G11G14G17G 4G20G 5G24
  -3741976.24646  -2830120.38646  24512911.0514   24512914.4494
      -658.4374
  13057670.37345  10177389.50145  25729079.8554   25729084.9304
     -3996.3284
  21487116.67446  16723668.80946  24735608.8094   24735610.3554
     -4370.3124
   7500321.96545   5848038.76745  25590243.6294   25590248.6444
     -3202.6254
   -777537.33048   -590412.78147  21947054.5594   21947056.2234
     -1784.1724
  -7119789.60046  -5381631.95746  23945834.2624   23945836.6294
      2305.4844
  -8635943.41248  -6700701.01847  22468481.8324   22468484.3634
      -623.9694
  -3034291.09746  -2261894.56545  25083751.2774   25083754.1954
      1666.3754
 -10209736.39848  -7927830.52747  22150395.7234   22150399.1684
        86.0784
 06  4 21 11 47 30.0040000  0  9G 1G 9G11G14G17G 4G20G 5G24
  -3721927.70746  -2814498.15646  24516726.0274   24516729.8244
      -678.1874
  13177739.62045  10270950.07145  25751927.5824   25751932.4344
     -4008.3284
  21618307.64446  16825895.50446  24760573.2694   24760574.7114
     -4375.7974
   7596629.34245   5923083.50345  25608571.5594   25608575.9774
     -3217.9224
   -723742.93648   -548495.06747  21957290.8944   21957292.8984
     -1802.1874
  -7188824.08646  -5435425.08046  23932697.6054   23932700.1024
      2296.7504
  -8616918.81548  -6685876.65447  22472102.2774   22472104.6094
      -644.3914
  -3084071.50046  -2300684.52245  25074278.5274   25074281.8094
      1652.2344
 -10212084.39748  -7929660.12947  22149948.7544   22149952.0474
        70.3914
 06  4 21 11 48  0.0040000  0  9G 1G 9G11G14G17G 4G20G 5G24
  -3701276.19046  -2798406.05046  24520655.5744   24520659.1374
      -698.4064
  13298177.65545  10364797.68645  25774846.6524   25774853.2854
     -4020.7034
  21749672.27346  16928257.51846  24785571.7694   24785572.8124
     -4381.6564
   7693406.13045   5998493.98845  25626987.8404   25626989.6914
     -3233.6724
   -669397.88848   -506148.24147  21967632.4104   21967634.2854
     -1820.6564
  -7257586.01046  -5489005.78046  23919612.3714   23919615.1134
      2287.5314
  -8597271.58948  -6670567.13647  22475841.2774   22475843.5274
      -665.2504
  -3133416.85846  -2339135.62145  25064888.7694   25064892.0744
      1637.5314
 -10213951.34848  -7931114.85247  22149593.5194   22149596.8594
        54.2344
 06  4 21 11 48 30.0040000  0  9G 1G 9G11G14G17G 4G20G 5G24
  -3680015.18046  -2781839.11946  24524702.3404   24524705.7504
      -718.8914
  13418988.34845  10458935.95545  25797836.6214   25797838.9184
     -4033.1874
  21881214.69546  17030758.07046  24810603.2234   24810604.7694
     -4387.7194
   7790655.83745   6074272.89145  25645493.0664   25645495.3984
     -3249.5624
   -614496.60448   -463368.05747  21978079.9104   21978081.5624
     -1839.3284
  -7326067.34446  -5542367.79146  23906581.1914   23906583.6994
      2277.9534
  -8576995.47548  -6654767.61947  22479699.4344   22479701.7544
      -686.3914
  -3182317.83446  -2377239.84945  25055583.1524   25055588.7894
      1622.6094
 -10215330.55948  -7932189.57447  22149330.9654   22149334.5394
        37.7974
 06  4 21 11 49  0.0040000  0  9G 1G 9G11G14G17G 4G20G 5G24
  -3658139.38146  -2764793.10046  24528864.5274   24528867.9024
      -739.3754
  13540172.31145  10553364.67845  25820898.3324   25820900.4304
     -4045.5474
  22012937.92446  17133399.49646  24835669.7384   24835671.7074
     -4393.6874
   7888380.64345   6150421.88645  25664089.1134   25664092.9924
     -3265.2814
   -559034.80448   -420151.10047  21988633.9804   21988635.5744
     -1857.9844
  -7394261.46946  -5595506.03946  23893604.1294   23893606.6374
      2268.3914
  -8556085.21848  -6638473.91847  22483678.6764   22483680.8794
      -707.5004
  -3230768.47146  -2414993.76346  25046362.6524   25046366.1214
      1607.5474
 -10216216.39348  -7932879.86347  22149162.6054   22149165.8984
        21.3754
 06  4 21 11 49 30.0040000  0  9G 1G 9G11G14G17G 4G20G 5G24
  -3635656.29546  -2747273.73946  24533142.6684   24533145.7504
      -759.6564
  13661719.88745  10648077.07945  25844025.6844   25844030.3124
     -4057.6724
  22144832.37346  17236174.32546  24860768.0594   24860770.3094
     -4399.4064
   7986569.97745   6226932.51145  25682774.9574   25682778.6484
     -3280.8284
   -503020.95348   -376503.95047  21999292.9024   21999294.8014
     -1876.4064
  -7462174.64946  -5648425.39746  23880680.7074   23880684.0824
      2259.0004
  -8534549.15148  -6621692.54247  22487776.8244   22487779.1564
      -728.3914
  -3278773.32746  -2452400.04145  25037227.4964   25037230.4264
      1592.6414
 -10216616.49948  -7933191.63447  22149086.2934   22149089.5864
         5.1414
 06  4 21 11 50  0.0040000  0  9G 1G 9G11G14G17G 4G20G 5G24
  -3612563.27446  -2729279.16446  24537537.3094   24537540.7894
      -779.7504
  13783628.53645  10743070.66145  25867225.2694   25867229.4654
     -4069.4374
  22276898.47946  17339082.93446  24885899.6684   24885901.3794
     -4404.8754
   8085225.45445   6303807.29645  25701547.7694   25701551.3794
     -3296.0474
   -446452.99448   -332424.97947  22010057.5664   22010059.3244
     -1894.6414
  -7529802.27546  -5701122.18946  23867812.0664   23867815.1024
      2249.6414
  -8512384.47948  -6604421.36847  22491994.5984   22491997.0234
      -749.1254
  -3326328.23546  -2489456.16045  25028178.5274   25028182.0664
      1577.7664
 -10216527.77648  -7933122.44847  22149102.9804   22149106.4734
       -10.9374
 06  4 21 11 50 30.0040000  0  9G 1G 9G11G14G17G 4G20G 5G24
  -3588859.11546  -2710808.37746  24542048.3404   24542051.5984
      -800.4374
  13905896.55245  10838344.38645  25890492.8554   25890497.1334
     -4081.5944
  22409135.29646  17442124.56346  24911064.0744   24911065.9734
     -4410.8284
   8184344.43345   6381042.74545  25720409.8324   25720413.9924
     -3311.7194
   -389330.97248   -287914.31247  22020927.4804   22020929.0984
     -1913.4224
  -7597141.52847  -5753594.31346  23854997.7854   23855000.5624
      2239.7194
  -8489590.15848  -6586659.56247  22496332.3794   22496334.5944
      -770.4224
  -3373428.43546  -2526157.46646  25019215.1684   25019218.7664
      1562.3134
 -10215949.03848  -7932671.46747  22149213.2464   22149216.4924
       -27.5784
 06  4 21 11 51  0.0040000  0  9G 1G 9G11G14G17G 4G20G 5G24
  -3564543.38246  -2691861.12246  24546675.5124   24546679.3674
      -820.7664
  14028521.27146  10933896.17545  25913829.0434   25913831.7274
     -4093.4534
  22541541.34746  17545298.05846  24936259.4654   24936261.5274
     -4416.3754
   8283924.73945   6458637.62745  25739359.5904   25739364.4064
     -3327.0164
   -331654.63148   -242971.77447  22031902.9344   22031904.6684
     -1931.8124
  -7664190.55646  -5805840.33346  23842238.4494   23842241.5434
      2230.0474
  -8466165.97648  -6568407.01547  22500789.4414   22500791.8674
      -791.3444
  -3420072.28846  -2562503.49745  25010339.3014   25010343.4264
      1547.1094
 -10214879.69948  -7931838.27047  22149416.7624   22149419.8554
       -43.8754
 06  4 21 11 51 30.0040000  0  9G 1G 9G11G14G17G 4G20G 5G24
  -3539617.14146  -2672438.07446  24551418.3944   24551421.5704
      -841.1564
  14151497.22245  11029721.38745  25937229.8094   25937233.5124
     -4105.1094
  22674113.20146  17648600.73346  24961487.5904   24961489.5004
     -4421.9064
   8383962.86044   6536589.58345  25758395.4264   25758398.8014
     -3342.2504
   -273426.19748   -197598.96247  22042983.4414   22042985.2584
     -1950.2344
  -7730948.59846  -5857859.56146  23829535.0824   23829537.9064
      2220.2814
  -8442113.40348  -6549664.75447  22505366.6764   22505368.7854
      -812.3284
  -3466258.07846  -2598492.32945  25001550.9184   25001555.5704
      1531.7664
 -10213320.48748  -7930623.29047  22149713.7624   22149716.9844
       -60.2504
 06  4 21 11 52  0.0040000  0  9G 1G 9G11G14G17G 4G20G 5G24
  -3514075.29246  -2652535.36546  24556279.4414   24556282.8284
      -861.6724
  14274827.01145  11125822.68345  25960697.8094   25960701.1724
     -4116.8594
  22806854.25546  17752035.27746  24986746.6294   24986747.9774
     -4427.5164
   8484460.88945   6614899.55645  25777521.0044   25777522.9734
     -3357.6254
   -214641.20248   -151792.49047  22054169.8484   22054171.6874
     -1968.7974
  -7797408.83447  -5909646.75246  23816887.8244   23816890.6604
      2210.3284
  -8417427.48748  -6530428.99647  22510064.2934   22510066.5554
      -833.4374
  -3511979.33846  -2634119.66445  24992850.3944   24992854.3324
      1516.2034
 -10211265.92548  -7929022.33347  22150104.4734   22150107.6024
       -76.7664
 06  4 21 11 52 30.0040000  0  9G 1G 9G11G14G17G 4G20G 5G24
  -3487922.80246  -2632156.77146  24561255.8634   24561259.4844
      -881.8594
  14398501.41445  11222192.58545  25984232.4734   25984238.3914
     -4128.0944
  22939757.37546  17855596.10046  25012038.1604   25012039.5664
     -4432.7194
   8585411.37944   6693562.34145  25796730.5434   25796734.6444
     -3372.3914
   -155305.66548   -105557.01847  22065461.2074   22065463.0474
     -1986.9374
  -7863574.76747  -5961204.56746  23804296.7544   23804299.8834
      2200.6564
  -8392113.30248  -6510703.66247  22514881.1604   22514883.6564
      -854.2034
  -3557237.36246  -2669385.43945  24984237.5594   24984241.2274
      1500.9694
 -10208720.91748  -7927039.21347  22150589.0434   22150592.2774
       -92.9534
 06  4 21 11 53  0.0040000  0  9G 1G 9G11G14G17G 4G20G 5G24
  -3461159.41346  -2611302.18746  24566348.7624   24566352.6054
      -902.1564
  14522516.76846  11318827.69845  26007832.4884   26007836.7304
     -4139.3594
  23072821.14646  17959282.11145  25037358.9264   25037361.1874
     -4437.9844
   8686811.60645   6772575.02545  25816026.6374   25816028.0664
     -3387.3444
    -95420.23448    -58893.05347  22076856.8794   22076858.7304
     -2005.2194
  -7929444.35847  -6012531.50646  23791762.1134   23791765.0434
      2190.8134
  -8366171.08348  -6490488.95347  22519818.1294   22519820.1684
      -875.0784
  -3602030.15346  -2704288.79946  24975715.0514   24975719.2464
      1485.4384
 -10205684.73948  -7924673.36547  22151166.7624   22151170.0194
      -109.2664
 06  4 21 11 53 30.0040000  0  9G 1G 9G11G14G17G 4G20G 5G24
  -3433788.98346  -2589974.67146  24571557.2774   24571560.7114
      -922.6094
  14646867.10645  11415724.15145  26031494.7464   26031498.0164
     -4150.6254
  23206039.69346  18063088.72246  25062709.1134   25062711.5274
     -4443.3124
   8788656.12945   6851934.55745  25835406.9964   25835411.0864
     -3402.2974
    -34988.80448    -11803.64147  22088356.4804   22088358.2504
     -2023.6094
  -7995019.47947  -6063628.99246  23779283.6444   23779286.2694
      2180.7664
  -8339604.83948  -6469788.00747  22524873.3634   22524875.6484
      -896.0944
  -3646359.15746  -2738830.74245  24967278.0434   24967281.6874
      1469.7664
 -10202160.48248  -7921927.19147  22151837.4494   22151840.5664
      -125.7504
 06  4 21 11 54  0.0040000  0  9G 1G 9G11G14G17G 4G20G 5G24
  -3405803.79246  -2568168.00746  24576883.0744   24576885.7934
      -943.1414
  14771555.77644  11512884.24945  26055220.5984   26055222.4964
     -4161.8914
  23339418.38446  18167020.11046  25088091.2934   25088094.2694
     -4448.6414
   8890949.74445   6931644.10745  25854872.5594   25854878.6054
     -3417.2974
     25994.73648     35716.00047  22099961.3244   22099963.1764
     -2042.0314
  -8060291.16147  -6114490.03846  23766863.0824   23766865.8244
      2170.5634
  -8312406.95448  -6448594.84847  22530049.1764   22530051.6024
      -917.1724
  -3690215.42346  -2773004.45446  24958933.0664   24958937.0274
      1453.9384
 -10198141.01748  -7918795.13347  22152602.3244   22152605.5234
      -142.2974
 06  4 21 11 54 30.0040000  0  9G 1G 9G11G14G17G 4G20G 5G24
  -3377202.14746  -2545880.99546  24582325.4964   24582328.8124
      -963.5474
  14896580.21545  11610305.17745  26079013.8714   26079018.3834
     -4172.9694
  23472957.25146  18271076.32846  25113502.8874   25113505.3244
     -4453.8284
   8993690.65245   7011701.76745  25874423.1994   25874426.8794
     -3431.9844
     87531.63948     83666.82247  22111671.4264   22111673.4184
     -2060.3284
  -8125255.42047  -6165111.49446  23754500.5904   23754503.2854
      2160.4384
  -8284576.13548  -6426908.48947  22535345.2234   22535347.4964
      -938.1254
  -3733593.85146  -2806805.84146  24950677.9654   24950681.3524
      1438.0784
 -10193624.06948  -7915275.42547  22153461.8554   22153465.0784
      -158.7344
 06  4 21 11 55  0.0040000  0  9G 1G 9G11G14G17G 4G20G 5G24
  -3347982.60546  -2523112.51546  24587886.0744   24587889.7894
      -984.2974
  15021941.50845  11707989.65245  26102869.0124   26102873.6414
     -4184.2664
  23606655.86646  18375257.01545  25138944.7074   25138945.6444
     -4459.2814
   9096878.49245   7092108.16445  25894058.3244   25894061.4064
     -3447.0004
    149622.46048    132049.29447  22123486.9104   22123488.8444
     -2078.9374
  -8189909.45547  -6215491.23446  23742197.2154   23742200.0394
      2149.9064
  -8256110.94848  -6404727.82747  22540761.6374   22540764.1684
      -959.4224
  -3776491.03846  -2840232.19346  24942515.4654   24942519.8244
      1421.8594
 -10188607.76848  -7911366.60147  22154416.5274   22154419.6684
      -175.5624
 06  4 21 11 55 30.0040000  0  9G 1G 9G11G14G17G 4G20G 5G24
  -3318151.24647  -2499867.30946  24593563.0354   24593566.5044
     -1004.7034
  15147626.93345  11805926.07445  26126786.0274   26126789.7774
     -4195.0474
  23740506.37746  18479556.05145  25164415.7624   25164416.8404
     -4464.2974
   9200504.32345   7172855.76345  25913777.9654   25913780.5554
     -3461.5474
    212260.41448    180858.09047  22135406.7544   22135408.4884
     -2097.1724
  -8254257.37247  -6265632.48946  23729952.7624   23729955.4224
      2139.6884
  -8227017.94048  -6382057.95147  22546297.9884   22546300.4024
      -980.3594
  -3818910.98746  -2873286.95846  24934443.0594   24934447.5594
      1405.8754
 -10183097.69948  -7907073.02847  22155464.8874   22155468.1214
      -192.0164
 06  4 21 11 56  0.0040000  0  9G 1G 9G11G14G17G 4G20G 5G24
  -3287701.05146  -2476139.92946  24599356.8714   24599360.4694
     -1025.3284
  15273642.18745  11904120.03745  26150767.1524   26150770.8914
     -4205.9064
  23874513.98646  18583977.52245  25189916.2154   25189917.9494
     -4469.5164
   9304572.22045   7253947.48945  25933582.9574   25933583.1804
     -3476.2194
    275451.92448    230098.20047  22147431.5434   22147433.3014
     -2115.6094
  -8318289.93747  -6315527.92446  23717767.6604   23717769.6524
      2129.1564
  -8197290.00448  -6358893.36147  22551954.9804   22551957.4884
     -1001.5164
  -3860843.35146  -2905961.54646  24926464.1134   24926468.2154
      1389.5784
 -10177086.54348  -7902389.01947  22156608.8944   22156612.0474
      -208.7344
 06  4 21 11 56 30.0040000  0  8G 1G11G14G17G 4G20G 5G24
  -3256638.13846  -2451935.10446  24605267.8874   24605271.1444
     -1045.5944
  24008670.65046  18688515.12645  25215445.0904   25215446.3914
     -4474.2974
   9409073.58444   7335376.70945  25953467.1134   25953470.4064
     -3490.5164
    339189.99948    279764.21447  22159560.4964   22159562.2424
     -2133.6564
  -8382011.92647  -6365181.41146  23705641.3944   23705644.0084
      2118.9224
  -8166934.02148  -6335239.34847  22557731.7234   22557734.2074
     -1022.2974
  -3902291.96246  -2938258.95346  24918576.5124   24918579.9694
      1373.5784
 -10170580.35048  -7897319.27447  22157846.9264   22157849.9844
      -225.0784
 06  4 21 11 57  0.0050000  0  8G 1G11G14G17G 4G20G 5G24
  -3224962.23746  -2427252.53146  24611295.8534   24611298.9704
     -1066.0944
  24142978.31646  18793170.38745  25241003.5324   25241005.3374
     -4479.2664
   9514008.32345   7417143.58845  25973436.6654   25973440.4624
     -3504.9224
    403475.14848    329856.54047  22171793.4464   22171795.1814
     -2151.8914
  -8445424.34447  -6414593.74046  23693574.0714   23693577.0364
      2108.3914
  -8135949.60848  -6311095.63347  22563627.8454   22563630.2354
     -1043.2974
  -3943257.71446  -2970180.15646  24910779.7674   24910784.7474
      1357.3594
 -10163579.30248  -7891863.90747  22159179.2594   22159182.3294
      -241.6724
 06  4 21 11 57 30.0050000  0  8G 1G11G14G17G 4G20G 5G24
  -3192674.74746  -2402093.43746  24617439.8604   24617443.4234
     -1086.6874
  24277427.29846  18897935.77745  25266587.6884   25266590.6184
     -4484.2664
   9619368.99745   7499242.50845  25993486.7354   25993481.9194
     -3519.4064
    468303.09548    380371.82247  22184129.6574   22184131.4274
     -2170.2344
  -8508520.11847  -6463759.27746  23681567.7354   23681570.9354
      2097.6884
  -8104338.14048  -6286463.31947  22569643.1034   22569645.7514
     -1064.3914
  -3983734.11046  -3001720.39646  24903077.9154   24903082.0524
      1340.8134
 -10156082.39148  -7886022.15547  22160605.7824   22160608.8764
      -258.3914
 06  4 21 11 58  0.0050000  0  8G 1G11G14G17G 4G20G 5G24
  -3159771.42246  -2376454.54146  24623701.1494   24623705.1694
     -1107.1254
  24412023.60546  19002815.96945  25292200.9704   25292202.9974
     -4489.0624
   9725159.94945   7581677.10445  26013618.5564   26013622.5404
     -3533.6414
    533679.07648    431314.15347  22196570.5954   22196572.0954
     -2188.4064
  -8571295.90647  -6512675.43246  23669621.9464   23669624.8414
      2087.0944
  -8072095.62348  -6261339.28547  22575778.9074   22575781.4034
     -1085.3444
  -4023716.07846  -3032874.88746  24895469.4784   24895473.1814
      1324.4064
 -10148085.62948  -7879790.89647  22162127.4624   22162130.6384
      -274.9694
 06  4 21 11 58 30.0050000  0  8G 1G11G14G17G 4G20G 5G24
  -3126252.06246  -2350335.54946  24630079.7354   24630083.6614
     -1127.4064
  24546765.41745  19107809.54145  25317841.3844   25317843.9274
     -4493.6254
   9831378.23945   7664444.86045  26033830.9234   26033836.6774
     -3547.5164
    599602.25748    482682.83247  22209115.4234   22209117.0634
     -2206.3754
  -8633749.87847  -6561340.82646  23657737.0324   23657739.9624
      2076.5784
  -8039222.49848  -6235723.87747  22582033.9074   22582036.5204
     -1106.1254
  -4063202.93046  -3063644.25346  24887955.4784   24887959.6854
      1308.1254
 -10139588.63448  -7873169.88547  22163744.4314   22163747.6424
      -291.4064
 06  4 21 11 59  0.0050000  0  8G 1G11G14G17G 4G20G 5G24
  -3092122.77246  -2323741.30246  24636574.1964   24636577.7244
     -1147.9694
  24681644.99146  19212910.43145  25343508.0794   25343509.8954
     -4498.4224
   9938014.92644   7747538.45445  26054122.8214   26054127.3334
     -3561.6414
    666065.49748    534472.37147  22221762.5174   22221764.3924
     -2224.5784
  -8695886.53647  -6609759.03546  23645912.6964   23645915.7784
      2065.7664
  -8005724.60748  -6209621.63447  22588408.6574   22588411.3414
     -1127.1414
  -4102196.93446  -3094029.51746  24880535.9464   24880540.0714
      1291.3754
 -10130597.17048  -7866163.55147  22165455.1884   22165458.4704
      -308.1094
 06  4 21 11 59 30.0050000  0  9G 1G23G11G14G17G 4G20G 5G24
  -3057376.93846  -2296666.62446  24643185.7674   24643189.5054
     -1168.6564
                                  26262341.0714
      2646.1254
  24816667.62546  19318122.84045  25369202.2514   25369202.8954
     -4503.2974
  10045074.38144   7830961.35745  26074494.8924   26074499.5564
     -3575.7974
    733074.96848    586687.55147  22234514.3994   22234516.2514
     -2242.9224
  -8757696.63747  -6657922.72246  23634151.2204   23634153.9154
      2054.7034
  -7971595.86248  -6183027.78647  22594903.1734   22594905.4354
     -1148.3124
  -4140688.08846  -3124022.20246  24873210.4854   24873214.2354
      1274.4694
 -10121103.99248  -7858766.25247  22167262.0404   22167265.2044
      -324.9844
 06  4 21 12  0  0.0050000  0  9G 1G23G11G14G17G 4G20G 5G24
  -3022011.55246  -2269109.21146  24649916.3134   24649919.9584
     -1188.9534
    -76660.45742                  26247248.8064
      2641.2034
  24951834.74146  19423447.78845  25394924.2514   25394925.6454
     -4507.7344
  10152556.99344   7914713.95745  26094949.4464   26094952.8214
     -3589.5624
    800633.06448    639330.20747  22247370.3294   22247371.9464
     -2260.8444
  -8819175.36047  -6705828.15046  23622451.8214   23622454.4114
      2043.9694
  -7936833.52648  -6155940.26247  22601518.2514   22601520.8644
     -1169.0784
  -4178672.34646  -3153620.31846  24865983.5324   24865987.0484
      1257.8914
 -10111105.67548  -7850975.36247  22169164.3134   22169167.4194
      -341.4694
 06  4 21 12  0 30.0050000  0  9G 1G23G11G14G17G 4G20G 5G24
  -2986034.81246  -2241075.38646  24656762.3924   24656766.1064
     -1209.5164
   -155817.37643                  26232183.1654
      2635.9064
  25087136.60446  19528877.74845  25420670.8764   25420672.4354
     -4512.3754
  10260452.50644   7998788.58645  26115480.1344   26115481.5174
     -3603.4694
    868730.71148    692393.29247  22260328.7744   22260330.5444
     -2279.0164
  -8880329.17247  -6753480.46646  23610814.8764   23610817.8534
      2032.9064
  -7901445.85148  -6128365.45747  22608252.2434   22608254.6814
     -1190.1254
  -4216155.34446  -3182827.68146  24858849.7044   24858853.2554
      1240.9224
 -10100610.31248  -7842797.16147  22171161.7744   22171164.9624
      -358.2504
 06  4 21 12  1  0.0050000  0  9G 1G23G11G14G17G 4G20G 5G24
  -2949447.44446  -2212565.76146  24663724.3214   24663728.2824
     -1229.9844
   -234819.97043    -26659.13845  26217150.4384   26217151.8454
      2630.6094
  25222570.63746  19634410.70545  25446443.6734   25446445.8294
     -4516.8594
  10368757.87244   8083182.49245  26136089.2434   26136093.6494
     -3617.2504
    937366.55248    745875.77847  22273389.6964   22273391.5834
     -2297.0624
  -8941156.48747  -6800878.40346  23599239.5714   23599242.2674
      2021.9064
  -7865433.74448  -6100304.08347  22615105.0634   22615107.6184
     -1211.0314
  -4253135.13146  -3211643.00946  24851813.0094   24851816.1384
      1224.0474
 -10089618.09648  -7834231.78247  22173253.3764   22173256.4814
      -374.9224
 06  4 21 12  1 30.0050000  0  9G 1G23G11G14G17G 4G20G 5G24
  -2912239.91446  -2183572.88646  24670804.4234   24670808.0094
     -1250.6414
   -313655.38243    -88089.15145  26202151.1494   26202152.1694
      2624.9534
  25358144.78046  19740052.82745  25472242.2744   25472243.5524
     -4521.5004
  10477479.70944   8167901.01345  26156779.1264   26156782.7594
     -3631.0004
   1006549.49748    799784.55447  22286554.9234   22286556.8214
     -2315.2504
  -9001645.79947  -6848012.89246  23587728.8844   23587731.7084
      2010.6094
  -7828788.05948  -6071749.01447  22622078.2674   22622080.8924
     -1232.1254
  -4289599.97246  -3240057.22046  24844874.2124   24844877.8104
      1206.8444
 -10078119.03748  -7825271.47147  22175441.3994   22175444.7044
      -391.8124
 06  4 21 12  2  0.0050000  0  9G 1G23G11G14G17G 4G20G 5G24
  -2874416.18846  -2154099.87746  24678003.0174   24678006.3684
     -1271.0944
   -392324.16944   -149389.39545  26187181.0714   26187181.3294
      2619.4534
  25493853.91145  19845800.14945  25498066.4314   25498068.8924
     -4525.9224
  10586611.92644   8252939.23345  26177546.8294   26177550.7204
     -3644.5784
   1076274.96348    854116.06347  22299823.2904   22299824.8724
     -2333.2504
  -9061798.98947  -6894885.49646  23576282.0484   23576285.2004
      1999.4224
  -7791512.55348  -6042703.16747  22629171.5014   22629174.1854
     -1253.0624
  -4325550.57346  -3268070.52446  24838032.7284   24838035.3174
      1189.7034
 -10066116.33948  -7815918.74847  22177725.3214   22177728.6614
      -408.5314
 06  4 21 12  2 30.0050000  0  9G 1G23G11G14G17G 4G20G 5G24
  -2835979.61946  -2124149.31546  24685316.3604   24685320.3214
     -1291.4224
   -470826.67944   -210560.14545  26172241.1104   26172242.6574
      2613.9694
  25629693.03645  19951648.75645  25523916.2204   25523918.6454
     -4530.1094
  10696148.89644   8338292.88245  26198390.4704   26198393.2244
     -3657.9374
   1146538.88648    908867.16247  22313194.1884   22313195.7944
     -2351.0944
  -9121617.15147  -6941497.05646  23564898.7904   23564901.8604
      1988.3594
  -7753610.90248  -6013169.41147  22636384.0874   22636386.6184
     -1273.7974
  -4360988.71646  -3295684.66046  24831289.0174   24831292.8494
      1172.7034
 -10053612.88448  -7806175.79347  22180105.0094   22180108.4194
      -425.1254
 06  4 21 12  3  0.0050000  0  9G 1G23G11G14G17G 4G20G 5G24
  -2796930.40346  -2093721.37346  24692747.4234   24692751.3844
     -1311.8284
   -549159.78143   -271598.85245  26157333.2824   26157336.4354
      2608.2344
  25765660.66045  20057597.48445  25549790.4704   25549792.1344
     -4534.3594
  10806087.87943   8423959.69745  26219310.5174   26219315.4274
     -3671.2664
   1217340.60848    964037.33747  22326667.1424   22326668.8414
     -2368.9844
  -9181098.62247  -6987846.23946  23553580.1884   23553582.7434
      1977.1094
  -7715084.43248  -5983148.79647  22643715.5484   22643718.0674
     -1294.6254
  -4395911.60246  -3322897.35546  24824643.7904   24824647.1884
      1155.5164
 -10040608.32448  -7796042.36947  22182579.5324   22182583.0364
      -441.8124
 06  4 21 12  3 30.0050000  0  9G 1G23G11G14G17G 4G20G 5G24
  -2757263.44346  -2062812.05446  24700295.9544   24700299.8684
     -1332.4694
   -627314.93144   -332498.84345  26142461.2284   26142461.7314
      2602.2034
  25901760.37945  20163649.13245  25575688.8844   25575690.0444
     -4538.7814
  10916431.33644   8509941.57145  26240308.8214   26240311.3414
     -3684.7814
   1288684.28548   1019629.81047  22340243.3374   22340245.0014
     -2387.0784
  -9240235.93947  -7033927.23646  23542326.6814   23542329.5634
      1965.5474
  -7675927.57048  -5952636.94347  22651167.0484   22651169.4624
     -1315.6724
  -4430311.44346  -3349702.39846  24818096.3994   24818099.9384
      1138.0164
 -10027097.14648  -7785514.17847  22185150.3764   22185153.6224
      -458.7664
 06  4 21 12  4  0.0050000  0  9G 1G23G11G14G17G 4G20G 5G24
  -2716985.28246  -2031426.48246  24707960.2124   24707964.3024
     -1352.9224
   -705294.85744   -393262.43145  26127623.9154   26127625.6614
      2596.2344
  26037984.46945  20269797.71645  25601611.7354   25601612.5444
     -4543.0004
  11027171.06845   8596232.28745  26261382.4934   26261386.7244
     -3698.0474
   1360563.10048   1075639.26247  22353921.5324   22353923.1614
     -2405.0164
  -9299033.31247  -7079743.36246  23531137.4154   23531140.5794
      1954.0944
  -7636146.81148  -5921638.95847  22658736.6034   22658739.4504
     -1336.5624
  -4464192.07546  -3376102.77146  24811650.4154   24811653.4854
      1120.5164
 -10013085.10348  -7774595.70847  22187816.9704   22187820.4274
      -475.5624
 06  4 21 12  4 30.0050000  0  9G 1G23G11G14G17G 4G20G 5G24
  -2676091.03646  -1999560.85246  24715742.6814   24715746.6884
     -1373.4224
   -783091.78545   -453883.25845  26112819.4154   26112819.0634
      2590.1094
  26174336.45945  20376045.95745  25627559.2594   25627561.6144
     -4547.1874
  11138309.09245   8682833.27745  26282531.3604   26282533.8924
     -3711.2344
   1432981.09548   1132068.86147  22367702.2824   22367704.3104
     -2422.9374
  -9357484.01347  -7125289.35746  23520015.1884   23520018.1184
      1942.5314
  -7595737.88648  -5890151.48247  22666426.7284   22666429.0364
     -1357.4694
  -4497546.27746  -3402092.92246  24805303.3134   24805306.8174
      1102.9844
  -9998567.12548  -7763282.99047  22190579.5564   22190582.9544
      -492.3914
 06  4 21 12  5  0.0050000  0  9G 1G23G11G14G17G 4G20G 5G24
  -2634584.97946  -1967218.47246  24723641.2594   24723645.3134
     -1393.8124
   -860706.31045   -514362.06845  26098049.7744   26098048.9424
      2584.0004
  26310810.88845  20482389.57845  25653528.7284   25653531.5054
     -4551.2344
  11249839.05844   8769739.51945  26303753.6884   26303758.4584
     -3724.2664
   1505933.48548   1188914.86747  22381584.5634   22381586.4034
     -2440.7194
  -9415589.76547  -7170566.53746  23508957.9464   23508960.1384
      1931.0314
  -7554704.53948  -5858177.44547  22674235.0564   22674237.6104
     -1378.2504
  -4530376.13646  -3427674.54046  24799055.1574   24799058.3334
      1085.5164
  -9983546.85648  -7751578.89847  22193437.9314   22193441.0134
      -509.1254
 06  4 21 12  5 30.0050000  0  9G 1G23G11G14G17G 4G20G 5G24
  -2592466.36146  -1934398.79346  24731654.7434   24731658.8804
     -1414.0474
   -938134.09544   -574695.33845  26083312.9854   26083313.9934
      2577.9064
  26447406.66145  20588827.75645  25679521.1734   25679524.1264
     -4555.0784
  11361760.09645   8856950.77345  26325052.4384   26325056.3174
     -3737.0784
   1579420.68548   1246177.59847  22395568.7124   22395570.4814
     -2458.3444
  -9473347.68147  -7215572.65546  23497966.6264   23497969.1224
      1919.5784
  -7513046.80648  -5825716.88547  22682162.1884   22682164.6854
     -1398.8754
  -4562677.93346  -3452844.80346  24792908.6424   24792912.2394
      1068.0314
  -9968022.83848  -7739482.26647  22196391.9624   22196395.0564
      -525.7504
 06  4 21 12  6  0.0050000  0  8G 1G23G11G17G 4G20G 5G24
  -2549738.70446  -1901104.50346  24739786.6264   24739790.0954
     -1434.3444
  -1015375.38345   -634883.32345  26068614.6034   26068614.4274
      2571.6254
  26584119.42545  20695357.11245  25705537.3534   25705539.5324
     -4558.9844
   1653438.21548   1303853.58747  22409653.5094   22409655.3254
     -2476.0164
  -9530759.15247  -7260308.85446  23487041.8214   23487044.9624
      1908.0004
  -7470768.58148  -5792772.80847  22690207.8294   22690210.0914
     -1419.5624
  -4594453.05946  -3477604.79946  24786862.3534   24786865.7164
      1050.4224
  -9951998.09948  -7726995.45347  22199441.6184   22199444.7474
      -542.4534
 06  4 21 12  6 30.0050000  0  8G 1G23G11G17G 4G20G 5G24
  -2506400.29846  -1867334.36246  24748033.9314   24748037.3994
     -1454.9224
  -1092424.59245   -694921.57445  26053953.3604   26053953.9464
      2564.9224
  26720949.59345  20801977.92445  25731577.2204   25731577.9584
     -4563.0624
   1727987.13348   1361943.64047  22423839.5874   22423841.5324
     -2493.9374
  -9587820.15647  -7304771.98046  23476183.1734   23476185.9034
      1896.0164
  -7427868.15548  -5759343.91547  22698371.0484   22698373.4974
     -1440.5004
  -4625696.36446  -3501950.15946  24780916.7744   24780921.0054
      1032.4534
  -9935470.24648  -7714116.61347  22202586.7354   22202589.8534
      -559.4534
 06  4 21 12  7  0.0050000  0  8G 1G23G11G17G 4G20G 5G24
  -2462449.92446  -1833087.26946  24756396.6814   24756400.2904
     -1475.0164
  -1169277.36645   -754806.83245  26039329.3214   26039328.6774
      2558.6254
  26857897.08045  20908690.19045  25757636.4704   25757638.2164
     -4566.6724
   1803067.99548   1420448.22047  22438127.2284   22438129.1264
     -2511.3914
  -9644527.08847  -7348959.16446  23465392.2514   23465395.0404
      1884.4694
  -7384344.57248  -5725429.42747  22706653.6344   22706656.0604
     -1460.9844
  -4656404.82046  -3525878.98846  24775072.7044   24775075.2004
      1014.8284
  -9918437.55848  -7700844.36747  22205827.9784   22205831.0244
      -576.0004
 06  4 21 12  7 30.0050000  0  8G 1G23G11G17G 4G20G 5G24
  -2417895.38946  -1798369.45046  24764875.6104   24764879.3134
     -1495.3594
  -1245937.81845   -814542.23345  26024742.4854   26024743.7514
      2551.9534
  26994953.19845  21015487.12945  25783717.7044   25783718.9114
     -4570.4844
   1878673.04048   1479361.23847  22452514.7124   22452516.4114
     -2529.0474
  -9700885.45347  -7392874.71246  23454667.7204   23454670.6494
      1872.6254
  -7340205.61348  -5691035.43047  22715052.9464   22715055.2784
     -1481.7034
  -4686583.05146  -3549394.46946  24769330.4234   24769334.0914
       996.8914
  -9900906.99848  -7687184.17647  22209164.0714   22209167.1534
      -592.7974
 06  4 21 12  8  0.0050000  0  8G 1G23G11G17G 4G20G 5G24
  -2372732.55046  -1763177.64746  24773469.8684   24773473.1854
     -1515.6564
  -1322397.97145   -874121.52745  26010191.9544   26010193.1144
      2545.2194
  27132120.80345  21122370.88645  25809819.7434   25809819.9664
     -4574.1724
   1954805.73148   1538685.38947  22467002.0404   22467003.5994
     -2546.6254
  -9756888.76047  -7436513.64446  23444010.8294   23444013.6184
      1860.7814
  -7295447.30248  -5656158.83247  22723569.6654   22723572.4314
     -1502.3444
  -4716224.03146  -3572491.16746  24763688.2284   24763691.7554
       979.0004
  -9882873.89548  -7673132.42547  22212595.4384   22212598.5564
      -609.5624
 06  4 21 12  8 30.0050000  0  9G 1G23G11G 2G17G 4G20G 5G24
  -2326957.79246  -1727509.06746  24782180.8924   24782184.1384
     -1536.2344
  -1398650.98945   -933539.41245  25995680.2904   25995681.7084
      2538.0634
  27269402.38145  21229343.42045  25835942.5324   25835944.1034
     -4578.1414
                                  26460734.2284
      2978.7504
   2031468.76948   1598422.80447  22481590.4384   22481592.2084
     -2564.4694
  -9812531.31947  -7479871.50746  23433422.3994   23433425.1654
      1848.5164
  -7250066.47948  -5620797.17647  22732205.4384   22732208.0874
     -1523.2664
  -4745322.21946  -3595165.02546  24758152.9854   24758156.4894
       960.6254
  -9864334.12648  -7658685.85947  22216123.6574   22216126.8334
      -626.6414
 06  4 21 12  9  0.0050000  0  9G 1G23G11G 2G17G 4G20G 5G24
  -2280570.06746  -1691362.83146  24791006.5794   24791010.3764
     -1556.4224
  -1474691.71245   -992791.89545  25981211.1574   25981211.3564
      2531.1564
  27406797.70545  21336404.68045  25862088.8534   25862089.6034
     -4581.6724
    -86353.74843                  26443598.6264
      2976.7974
   2108662.99148   1658574.12647  22496280.1964   22496281.9314
     -2581.9374
  -9867809.36547  -7522945.29946  23422903.3374   23422905.9744
      1836.5474
  -7204062.25848  -5584949.74347  22740959.6734   22740962.2514
     -1543.8124
  -4773873.78946  -3617412.79646  24752718.2904   24752721.9354
       942.6564
  -9845286.03648  -7643843.20647  22219748.3374   22219751.5244
      -643.3754
 06  4 21 12  9 30.0050000  0  9G 1G23G11G 2G17G 4G20G 5G24
  -2233576.14446  -1654744.19046  24799950.6264   24799954.2474
     -1576.6094
  -1550523.46845  -1051881.57645  25966780.5174   25966780.0134
      2524.1564
  27544299.14745  21443548.61645  25888253.7204   25888256.7784
     -4585.1874
   -175628.32544                  26426611.0874
      2974.7034
   2186381.03648   1719133.63247  22511069.6964   22511071.2084
     -2599.3754
  -9922727.35947  -7565738.55246  23412453.1494   23412455.5634
      1824.5164
  -7157441.53048  -5548621.91047  22749831.7744   22749834.3414
     -1564.3444
  -4801883.18646  -3639238.42446  24747389.2824   24747392.8924
       924.5164
  -9825735.68948  -7628609.17047  22223468.5174   22223471.5874
      -660.1094
 06  4 21 12 10  0.0050000  0  9G 1G23G11G 2G17G 4G20G 5G24
  -2185978.63146  -1617655.24846  24809009.0244   24809012.4234
     -1596.7194
  -1626144.75645  -1110807.19145  25952391.1654   25952390.6034
      2517.0944
  27681903.27845  21550772.51045  25914439.6654   25914441.2824
     -4588.5624
   -264842.97643    -30116.49045  26409633.7594   26409634.2634
      2972.7194
   2264620.00648   1780099.05647  22525957.8374   22525959.5484
     -2616.7034
  -9977285.41647  -7608251.29846  23402070.3684   23402072.9234
      1812.5164
  -7110206.79448  -5511815.62847  22758820.0014   22758822.4274
     -1584.7974
  -4829349.41046  -3660640.58546  24742162.9234   24742166.9314
       906.3914
  -9805684.71248  -7612985.02847  22227284.3374   22227287.4314
      -676.7814
 06  4 21 12 10 30.0050000  0  9G 1G23G11G 2G17G 4G20G 5G24
  -2137770.51446  -1580090.49046  24818181.6264   24818185.5874
     -1616.9224
  -1701545.28745  -1169560.79645  25938042.1574   25938041.3604
      2509.8134
  27819615.81045  21658080.91745  25940645.3374   25940648.5364
     -4592.0004
   -353987.63343    -99579.76245  26392669.9704   26392671.8564
      2970.5164
   2343386.14947   1841475.25547  22540946.2514   22540948.3024
     -2634.1254
 -10031473.99547  -7650476.13346  23391758.8134   23391761.7554
      1800.2974
  -7062351.36648  -5474525.69547  22767926.7044   22767929.4464
     -1605.3284
  -4856264.07646  -3681613.32646  24737040.1034   24737043.9934
       888.0944
  -9785125.78348  -7596965.08647  22231196.3844   22231199.3954
      -693.5944
 06  4 21 12 11  0.0050000  0  9G 1G23G11G 2G17G 4G20G 5G24
  -2088956.55646  -1542053.67046  24827470.6814   24827474.5714
     -1637.2664
  -1776726.07945  -1228143.20345  25923735.3134   25923735.1614
      2502.2814
  27957430.93945  21765469.26645  25966871.5244   25966874.5134
     -4595.5624
   -443065.05243   -168990.73845  26375719.4074   26375722.6774
      2968.0634
   2422674.18348   1903258.12547  22556034.1494   22556036.1774
     -2651.6724
 -10085295.69847  -7692415.09846  23381516.8294   23381519.5604
      1787.8594
  -7013880.40748  -5436756.13147  22777150.4074   22777152.8564
     -1626.0004
  -4882627.83346  -3702156.40346  24732024.1574   24732028.1424
       869.5634
  -9764062.65148  -7580552.24147  22235204.7044   22235207.7864
      -710.5624
 06  4 21 12 11 30.0050000  0  9G 1G23G11G 2G17G 4G20G 5G24
  -2039537.94346  -1503545.65846  24836873.7744   24836877.6884
     -1657.5004
  -1851684.24145  -1286552.12645  25909471.5014   25909471.9584
      2494.7194
  28095346.68545  21872936.02545  25993115.6494   25993116.2244
     -4598.9844
   -532074.10943   -238348.49945  26358781.5564   26358782.1304
      2965.6884
   2502482.31448   1965446.26247  22571221.7434   22571223.4664
     -2669.0784
 -10138749.05747  -7734067.04846  23371344.9464   23371347.8764
      1775.4844
  -6964795.02548  -5398507.78547  22786490.9314   22786493.5674
     -1646.5624
  -4908440.07846  -3722269.83746  24727112.0324   24727116.3804
       851.0474
  -9742495.56948  -7563746.72347  22239308.6884   22239311.8764
      -727.4374
 06  4 21 12 12  0.0050000  0  9G 1G23G11G 2G17G 4G20G 5G24
  -1989512.61146  -1464564.94746  24846395.4934   24846398.5874
     -1677.6414
  -1926414.32546  -1344783.30146  25895251.1104   25895251.9314
      2487.1094
  28233364.32945  21980482.15545  26019379.4154   26019382.4854
     -4602.3124
   -621009.48445   -307648.56145  26341858.3374   26341858.2674
      2963.2504
   2582812.32648   2028041.05247  22586507.7984   22586509.5204
     -2686.3914
 -10191829.39347  -7775428.37846  23361244.2124   23361246.8954
      1763.0634
  -6915093.26948  -5359779.15547  22795948.8534   22795951.3374
     -1667.0164
  -4933695.67746  -3741949.45046  24722305.4544   24722309.7784
       832.5314
  -9720422.19948  -7546546.71347  22243509.1184   22243512.2704
      -744.2504
 06  4 21 12 12 30.0050000  0  9G 1G23G11G 2G17G 4G20G 5G24
  -1938885.45246  -1425115.20246  24856029.0014   24856032.4354
     -1697.6254
  -2000916.93346  -1402837.23846  25881073.8374   25881074.1304
      2479.5634
  28371477.91545  22088103.06845  26045662.3214   26045665.1344
     -4605.3914
   -709874.54044   -376894.08045  26324947.4074   26324949.5284
      2960.9534
   2663658.92048   2091038.38947  22601892.4854   22601894.3374
     -2703.5164
 -10244539.36447  -7816501.07846  23351214.1814   23351216.4314
      1750.7814
  -6864780.51148  -5320574.40747  22805523.0634   22805525.3024
     -1687.2974
  -4958397.89046  -3761198.28846  24717604.8064   24717609.2124
       814.1094
  -9697846.64448  -7528955.37347  22247804.8454   22247808.1034
      -760.9064
 06  4 21 12 13  0.0050000  0  9G 1G23G11G 2G17G 4G20G 5G24
  -1887657.77446  -1385197.55646  24865777.0954   24865780.1304
     -1717.7664
  -2075189.58845  -1460711.97845  25866939.4074   25866939.6654
      2471.7194
  28509685.31145  22195797.05445  26071961.3374   26071965.1924
     -4608.6254
   -798667.75743   -446083.62145  26308049.9544   26308051.4314
      2958.3754
   2745020.36048   2154436.90747  22617375.0634   22617376.8214
     -2720.7814
 -10296877.59147  -7857284.09146  23341253.9074   23341256.2514
      1738.2344
  -6813857.84148  -5280894.40047  22815213.3994   22815216.0834
     -1707.7344
  -4982544.15846  -3780013.84846  24713009.8454   24713013.9234
       795.4064
  -9674769.43448  -7510973.13247  22252196.3134   22252199.7704
      -777.7664
 06  4 21 12 13 30.0050000  0  9G 1G23G11G 2G17G 4G20G 5G24
  -1835824.88946  -1344808.30846  24875639.9854   24875643.5014
     -1737.7504
  -2149223.88745  -1518400.99945  25852850.9074   25852851.9274
      2463.9224
  28647990.41745  22303567.17645  26098279.3924   26098280.5174
     -4611.6564
   -887381.30345   -515210.98145  26291169.8924   26291171.4274
      2955.9064
   2826900.89648   2218239.91847  22632956.5874   22632958.2864
     -2737.8594
 -10348836.70747  -7897771.70246  23331366.6344   23331369.4464
      1725.7344
  -6762321.08148  -5240735.89047  22825020.7824   22825023.3024
     -1728.0004
  -5006126.73946  -3798389.72046  24708523.9154   24708527.3254
       776.7664
  -9651185.06948  -7492595.68947  22256684.4314   22256688.0404
      -794.4844
 06  4 21 12 14  0.0050000  0  9G 1G23G11G 2G17G 4G20G 5G24
  -1783392.75146  -1303952.14046  24885618.2434   24885622.0874
     -1757.6874
  -2223021.83945  -1575905.85546  25838808.2594   25838809.2554
      2455.9844
  28786386.33745  22411408.06845  26124616.4934   26124617.1614
     -4614.6874
   -976019.06445   -584279.40745  26274301.6264   26274303.8294
      2953.3284
   2909293.80548   2282442.17047  22648635.1654   22648636.8994
     -2754.9224
 -10400420.46647  -7937966.82946  23321550.7044   23321553.1424
      1713.1884
  -6710176.15848  -5200103.48847  22834943.3924   22834945.9234
     -1748.2814
  -5029149.61046  -3816329.51046  24704141.7904   24704146.4544
       758.1254
  -9627098.74548  -7473827.13747  22261267.5484   22261271.1344
      -811.2194
 06  4 21 12 14 30.0050000  0  9G 1G23G11G 2G17G 4G20G 5G24
  -1730364.22146  -1262631.19946  24895708.4934   24895712.7944
     -1777.4534
  -2296582.26146  -1633225.60246  25824810.3454   25824811.0364
      2448.1094
  28924869.40445  22519316.88145  26150969.3214   26150973.8454
     -4617.4374
  -1064581.25345   -653288.94345  26257448.7124   26257449.7314
      2950.8754
   2992196.02248   2347041.28947  22664411.0794   22664412.6734
     -2771.7814
 -10451628.77147  -7977869.39846  23311805.6884   23311808.3254
      1700.7504
  -6657426.06948  -5158999.52647  22844981.6034   22844984.0054
     -1768.3284
  -5051612.79846  -3833833.26946  24699867.3844   24699871.0994
       739.5314
  -9602512.56248  -7454669.08747  22265946.3294   22265950.0444
      -827.7814
 06  4 21 12 15  0.0050000  0  9G 1G23G11G 2G17G 4G20G 5G24
  -1676739.15746  -1220845.48946  24905913.0874   24905916.5444
     -1797.5164
  -2369901.22346  -1690357.21946  25810858.2674   25810858.4784
      2439.8284
  29063439.18845  22627293.21645  26177337.3844   26177339.2474
     -4620.5164
  -1153065.00645   -722237.33345  26240609.3214   26240610.8804
      2948.0474
   3075607.43648   2412037.19847  22680283.9384   22680285.5204
     -2788.9534
 -10502459.05047  -8017477.37846  23302133.0484   23302135.7904
      1687.9534
  -6604070.79648  -5117423.97747  22855134.6344   22855137.0244
     -1788.6724
  -5073513.56246  -3850898.74346  24695700.1184   24695703.0134
       720.5634
  -9577425.47348  -7435120.70047  22270720.1734   22270723.8764
      -844.6724
 06  4 21 12 15 30.0050000  0  9G 1G23G11G 2G17G 4G20G 5G24
  -1622517.09046  -1178594.53946  24916232.4784   24916235.7594
     -1817.5004
  -2442974.33645  -1747297.25446  25796951.8214   25796952.0324
      2431.4844
  29202095.38045  22735336.95145  26203723.4784   26203726.0204
     -4623.4374
  -1241467.06145   -791121.90045  26223787.8214   26223789.7434
      2945.2194
   3159527.90748   2477429.77847  22696253.3064   22696254.7594
     -2805.9844
 -10552908.18648  -8056788.38646  23292533.3294   23292536.0134
      1675.1254
  -6550110.05848  -5075376.62647  22865402.6344   22865405.2004
     -1808.8914
  -5094848.31246  -3867523.03346  24691640.0874   24691643.8604
       701.5474
  -9551836.16548  -7415180.97447  22275589.8134   22275593.4464
      -861.4694
 06  4 21 12 16  0.0050000  0  9G 1G23G11G 2G17G 4G20G 5G24
  -1567696.35546  -1135877.13346  24926662.9544   24926667.4074
     -1837.2974
  -2515795.71445  -1804041.14546  25783093.9234   25783092.7744
      2423.1884
  29340839.03945  22843448.84945  26230125.4464   26230129.8414
     -4626.2034
  -1329783.40245   -859939.80145  26206981.3134   26206982.8024
      2942.4844
   3243958.92848   2543220.17847  22712320.1814   22712321.7164
     -2822.8284
 -10602971.74047  -8095798.93546  23283005.8994   23283008.8644
      1662.3594
  -6495542.36648  -5032856.34447  22875786.9784   22875789.4384
     -1828.9844
  -5115613.18746  -3883703.38146  24687688.4314   24687692.5094
       682.7034
  -9525742.29248  -7394848.08647  22280555.3214   22280558.7784
      -878.1724
 06  4 21 12 16 30.0050000  0  9G 1G23G11G 2G17G 4G20G 5G24
  -1512286.31846  -1092700.44846  24937207.0874   24937211.3764
     -1856.8914
  -2588370.87745  -1860593.19246  25769283.3994   25769282.2514
      2414.9694
  29479659.77144  22951620.78345  26256541.0244   26256542.8644
     -4628.7194
  -1418020.37045   -928695.79245  26190190.1654   26190189.9194
      2939.8284
   3328890.69448   2609400.77547  22728482.2744   22728483.6924
     -2839.4694
 -10652656.70848  -8134514.46046  23273551.7514   23273554.2474
      1649.7664
  -6440377.27048  -4989870.54147  22886284.3134   22886286.6694
     -1848.8594
  -5135814.65846  -3899444.71546  24683844.7204   24683848.6454
       663.9064
  -9499152.48048  -7374128.76247  22285614.9624   22285618.3954
      -894.6564
 06  4 21 12 17  0.0050000  0  9G 1G23G11G 2G17G 4G20G 5G24
  -1456283.76346  -1049062.05346  24947863.7514   24947867.5364
     -1876.8594
  -2660692.65945  -1916947.77846  25755521.5404   25755522.1034
      2406.2194
  29618560.16244  23059854.77145  26282973.4464   26282977.1034
     -4631.5624
  -1506172.11645   -997385.39245  26173416.2284   26173417.3534
      2936.7194
   3414325.86348   2675973.63947  22744739.9854   22744741.6384
     -2856.4534
 -10701957.10548  -8172930.37046  23264170.3454   23264172.4784
      1636.6724
  -6384611.75348  -4946416.89247  22896896.1654   22896898.9074
     -1869.0944
  -5155447.01246  -3914742.64146  24680109.6184   24680113.7904
       644.6564
  -9472062.67348  -7353019.79947  22290770.0874   22290773.3454
      -911.5784
 06  4 21 12 17 30.0050000  0  9G 1G23G11G 2G17G 4G20G 5G24
  -1399683.12546  -1004957.68746  24958634.1264   24958638.2394
     -1896.6874
  -2732751.39245  -1973097.37846  25741809.7594   25741810.7084
      2397.5004
  29757545.42044  23168154.90345  26309422.3684   26309426.9504
     -4634.2814
  -1594230.47345  -1066002.24545  26156658.5874   26156661.5994
      2933.6724
   3500269.52148   2742942.72447  22761094.1964   22761095.9664
     -2873.2814
 -10750864.44648  -8211039.96647  23254863.5014   23254866.0914
      1623.6414
  -6328240.40548  -4902491.17047  22907623.8374   22907626.1454
     -1889.1564
  -5174501.74246  -3929590.52446  24676482.2434   24676485.7124
       625.4534
  -9444466.32448  -7331516.15447  22296021.5174   22296024.9274
      -928.3594
 06  4 21 12 18  0.0050000  0  9G 1G23G11G 2G17G 4G20G 5G24
  -1342487.32046   -960389.55246  24969520.7044   24969524.9114
     -1916.4844
  -2804545.98645  -2029041.17346  25728146.4544   25728146.9114
      2388.6564
  29896612.16145  23276518.46945  26335886.4854   26335892.3564
     -4636.9374
  -1682195.33145  -1134546.22645  26139918.9234   26139921.5134
      2930.5164
   3586718.43948   2810305.50247  22777544.7434   22777546.6774
     -2890.0944
 -10799379.09948  -8248843.56247  23245631.2434   23245633.6454
      1610.5314
  -6271266.16748  -4858095.66647  22918465.1344   22918467.6184
     -1909.2344
  -5192979.10746  -3943988.50346  24672965.7904   24672969.6344
       606.2344
  -9416365.51548  -7309619.43847  22301369.1574   22301372.3804
      -945.1414
 06  4 21 12 18 30.0050000  0  9G 1G23G11G 2G17G 4G20G 5G24
  -1284700.16046   -915360.59746  24980516.1734   24980520.6614
     -1936.0944
  -2876075.96745  -2084778.77146  25714535.3764   25714536.4544
      2379.8914
  30035755.56844  23384941.90645  26362363.7824   26362366.5834
     -4639.3754
  -1770067.80545  -1203018.18745  26123197.8994   26123200.2784
      2927.5314
   3673668.54048   2878058.83547  22794090.7434   22794092.6534
     -2906.6724
 -10847502.37448  -8286342.19847  23236473.7204   23236476.1814
      1597.5474
  -6213693.18848  -4813233.60147  22929421.0634   22929423.4424
     -1929.0784
  -5210879.62946  -3957936.79546  24669560.1574   24669563.8254
       587.0784
  -9387763.25748  -7287331.94947  22306812.3134   22306815.5134
      -961.7664
 06  4 21 12 19  0.0050000  0  9G 1G23G11G 2G17G 4G20G 5G24
  -1226324.59346   -869873.19046  24991623.8374   24991628.8414
     -1955.7344
  -2947340.72045  -2140309.70646  25700974.2284   25700975.1884
      2370.9534
  30174972.32343  23493422.50345  26388855.8294   26388858.9234
     -4641.8284
  -1857848.31045  -1271418.63645  26106495.5244   26106497.9744
      2924.3594
   3761116.32548   2946199.96247  22810731.7124   22810733.4934
     -2923.2814
 -10895234.22048  -8323535.85747  23227390.6184   23227393.3954
      1584.4534
  -6155524.21048  -4767907.11947  22940490.3294   22940492.6614
     -1948.9534
  -5228204.33546  -3971436.69946  24666262.8294   24666266.1104
       567.8134
  -9358661.75848  -7264655.46647  22312349.9154   22312353.0444
      -978.4374
 06  4 21 12 19 30.0050000  0  9G 1G23G11G 2G17G 4G20G 5G24
  -1167359.33846   -823926.32746  25002845.3604   25002849.5324
     -1975.3594
  -3018333.89346  -2195629.02746  25687465.2044   25687465.5324
      2361.8754
  30314263.06744  23601960.57645  26415362.8764   26415366.1104
     -4644.2664
  -1945532.08045  -1339743.59945  26089809.0794   26089811.0954
      2921.1414
   3849062.93948   3014729.77947  22827467.5324   22827469.1854
     -2939.8914
 -10942570.63848  -8360421.34147  23218382.8764   23218385.5954
      1571.2344
  -6096758.39448  -4722115.57847  22951672.8994   22951675.0324
     -1968.8284
  -5244948.91246  -3984484.43646  24663077.1344   24663079.8884
       548.4534
  -9329059.14648  -7241588.51047  22317983.0954   22317986.0364
      -995.1414
 06  4 21 12 20  0.0050000  0  9G 1G23G11G 2G17G 4G20G 5G24
  -1107805.69146   -777520.85446  25014178.0954   25014182.0094
     -1994.9224
  -3089053.30746  -2250734.99746  25674007.6424   25674007.4894
      2352.7034
  30453625.92144  23710554.98945  26441882.7904   26441884.5364
     -4646.6254
  -2033118.07445  -1407992.29345  26073143.4234   26073144.4894
      2917.8594
   3937506.62248   3083646.94047  22844297.5564   22844299.1854
     -2956.4064
 -10989510.63548  -8396997.95947  23209450.4074   23209452.8334
      1558.0164
  -6037397.11448  -4675860.02947  22962969.1264   22962971.4584
     -1988.6254
  -5261112.80446  -3997080.10346  24660001.4154   24660004.8254
       529.0474
  -9298955.42848  -7218131.04547  22323711.3764   22323714.5404
     -1011.8124
 06  4 21 12 20 30.0050000  0  9G 1G23G11G 2G17G 4G20G 5G24
  -1047665.68846   -730658.52046  25025621.5954   25025626.1304
     -2014.3284
  -3159496.82545  -2305625.97046  25660602.1034   25660602.0094
      2343.5944
  30593058.33443  23819203.56445  26468414.9314   26468415.1184
     -4648.7664
  -2120605.44045  -1476164.28045  26056492.8924   26056493.9464
      2914.6884
   4026444.84147   3152949.44247  22861221.8214   22861223.6264
     -2972.7194
 -11036053.16848  -8433264.89247  23200593.7124   23200596.3494
      1544.8914
  -5977442.79048  -4629142.37847  22974378.0324   22974380.1654
     -2008.2504
  -5276693.07046  -4009220.22146  24657035.7124   24657039.0994
       509.7664
  -9268351.63148  -7194283.93147  22329535.1734   22329538.3254
     -1028.3594
 06  4 21 12 21  0.0050000  0  9G 1G23G11G 2G17G 4G20G 5G24
   -986943.35746   -683342.42946  25037175.5174   25037179.7474
     -2033.7974
  -3229664.21845  -2360301.81446  25647248.9854   25647249.9584
      2334.2664
  30732556.01343  23927902.99145  26494960.5794   26494960.8724
     -4650.9844
  -2207994.98245  -1544260.04445  26039863.2594   26039863.2244
      2911.3284
   4115873.28148   3222633.93447  22878239.6884   22878241.6224
     -2989.1094
 -11082199.39948  -8469222.97447  23191812.2434   23191814.9974
      1531.5784
  -5916899.29648  -4581965.63647  22985898.7674   22985901.1574
     -2027.9374
  -5291692.51446  -4020908.01546  24654180.9154   24654184.7704
       490.2814
  -9237251.11348  -7170049.77947  22335453.4544   22335456.6884
     -1044.9694
 06  4 21 12 21 30.0050000  0  9G 1G23G11G 2G17G 4G20G 5G24
   -925635.34446   -635570.06646  25048843.1264   25048846.9464
     -2053.1874
  -3299547.45545  -2414756.22846  25633951.4854   25633951.6854
      2324.8444
  30872121.90743  24036655.57845  26521519.3134   26521519.8644
     -4653.1254
  -2295280.12245  -1612274.34045  26023253.7354   26023254.8494
      2907.9384
   4205795.27948   3292703.02247  22895351.5794   22895353.2904
     -3005.4374
 -11127943.03848  -8504867.36547  23183107.3214   23183110.0994
      1518.2504
  -5855763.23948  -4534327.16747  22997533.0014   22997535.1814
     -2047.5624
  -5306105.06946  -4032138.63546  24651439.6034   24651443.3294
       470.7974
  -9205649.24348  -7145424.94647  22341467.1574   22341470.4034
     -1061.5624
 06  4 21 12 22  0.0050000  0  8G 1G23G 2G17G 4G20G 5G24
   -863747.61246   -587345.82146  25060620.4624   25060624.6574
     -2072.7194
  -3369149.06045  -2468991.17346  25620707.0484   25620707.0834
      2315.1884
  -2382464.37445  -1680210.05845  26006662.3844   26006663.6964
      2904.2814
   4296204.60948   3363151.85147  22912556.0094   22912557.6854
     -3021.8914
 -11173287.47348  -8540200.68147  23174478.9234   23174481.4194
      1504.6724
  -5794041.14548  -4486232.01147  23009278.0714   23009280.5094
     -2067.2974
  -5319934.04646  -4042914.60546  24648807.7204   24648811.1424
       451.0634
  -9173551.60448  -7120413.80047  22347575.1184   22347578.3414
     -1078.3284
 06  4 21 12 22 30.0050000  0  8G 1G23G 2G17G 4G20G 5G24
   -801275.14146   -538666.02946  25072509.0564   25072513.4744
     -2092.2664
  -3438459.32445  -2522999.08246  25607517.1574   25607516.6424
      2305.3284
  -2469539.39845  -1748060.72245  25990093.4464   25990095.0404
      2900.5314
   4387105.98547   3433984.09547  22929853.4464   22929855.2044
     -3038.3594
 -11218224.54148  -8575216.58847  23165927.4314   23165930.1614
      1490.9534
  -5731727.53448  -4437675.96847  23021135.9234   23021138.4664
     -2087.0944
  -5333170.94446  -4053229.08846  24646289.6574   24646293.5244
       431.2194
  -9140951.87948  -7095011.42447  22353778.6964   22353781.9784
     -1095.1564
 06  4 21 12 23  0.0050000  0  9G 1G23G30G 2G17G 4G20G 5G24
   -738221.54746   -489533.39346  25084506.5244   25084510.4744
     -2111.3914
  -3507477.41845  -2576779.36246  25594383.2124   25594382.8954
      2295.7814
    -23987.40245                  26212422.7044
      2178.6724
  -2556505.68545  -1815826.61745  25973544.3924   25973547.0754
      2897.1254
   4478495.17947   3505196.46047  22947244.0484   22947246.0054
     -3054.3444
 -11262755.30048  -8609915.87947  23157453.8534   23157456.5364
      1477.6414
  -5668826.49648  -4388662.19047  23033105.8454   23033107.9784
     -2106.3914
  -5345817.17446  -4063083.42746  24643882.3924   24643886.2704
       411.7344
  -9107852.55048  -7069219.74047  22360076.9154   22360080.2434
     -1111.5474
 06  4 21 12 23 30.0050000  0  9G 1G23G30G 2G17G 4G20G 5G24
   -674585.88346   -439947.16046  25096616.8214   25096620.1144
     -2131.0004
  -3576198.29045  -2630328.03946  25581305.1964   25581306.4504
      2285.5944
    -89163.59045                  26200020.0014
      2166.4064
  -2643359.23746  -1883504.56345  25957016.3684   25957018.3604
      2893.1254
   4570373.00647   3576789.57347  22964728.0244   22964730.0054
     -3070.8444
 -11306875.69348  -8644295.39147  23149057.9234   23149060.4314
      1463.7194
  -5605337.25048  -4339190.06847  23045187.2824   23045189.7674
     -2126.2194
  -5357868.77546  -4072474.22246  24641589.0794   24641593.0874
       391.6884
  -9074252.18048  -7043037.63947  22366471.2204   22366474.4894
     -1128.4844
 06  4 21 12 24  0.0050000  0  9G 1G23G30G 2G17G 4G20G 5G24
   -610371.62746   -389909.90546  25108836.3134   25108840.3104
     -2150.1254
  -3644621.34845  -2683644.64246  25568285.3454   25568286.5404
      2275.7504
   -153981.19445    -21850.01945  26187686.4234   26187690.8414
      2154.5634
  -2730101.08546  -1951095.59945  25940509.9384   25940512.1184
      2889.4694
   4662735.50747   3648760.35347  22982304.1184   22982305.9354
     -3086.8444
 -11350586.71648  -8678355.92847  23140739.7674   23140742.4974
      1450.1724
  -5541263.50948  -4289262.46747  23057380.5484   23057382.9034
     -2145.5314
  -5369326.47246  -4081402.17546  24639408.3684   24639411.5914
       372.0004
  -9040153.30748  -7016467.08347  22372959.8294   22372963.2864
     -1144.9534
 06  4 21 12 24 30.0060000  0  9G 1G23G30G 2G17G 4G20G 5G24
   -545579.23846   -339422.36946  25121165.9824   25121169.5684
     -2169.1254
  -3712746.69945  -2736729.24946  25555321.6624   25555322.0724
      2265.8754
   -218440.19145    -72077.79445  26175419.8264   26175423.3304
      2142.6564
  -2816732.56746  -2018600.61046  25924023.6864   25924025.0924
      2885.8444
   4755583.47448   3721109.40947  22999972.5064   22999974.3464
     -3102.7194
 -11393888.82048  -8712097.81147  23132499.8184   23132502.5374
      1436.6414
  -5476605.40248  -4238879.54947  23069684.3504   23069686.7994
     -2164.7504
  -5380190.48646  -4089867.61946  24637341.8814   24637344.6584
       352.3444
  -9005555.98948  -6989508.12747  22379543.6154   22379547.1894
     -1161.3754
 06  4 21 12 25  0.0060000  0  9G 1G23G30G 2G17G 4G20G 5G24
   -480214.59946   -288488.84246  25133605.4904   25133608.9594
     -2188.3914
  -3780567.22345  -2789576.34946  25542415.8504   25542415.7684
      2255.5784
   -282533.88245   -122020.79645  26163223.7404   26163227.1974
      2130.3444
  -2903246.95746  -2086014.37846  25907560.5844   25907561.5684
      2881.8594
   4848908.58147   3793830.27947  23017731.4904   23017733.2954
     -3118.8594
 -11436778.12348  -8745518.03147  23124338.2794   23124340.8574
      1422.7194
  -5411368.96348  -4188045.96947  23082098.2094   23082100.5764
     -2184.2344
  -5390459.22546  -4097869.25046  24635387.4594   24635390.2134
       332.3284
  -8970463.24648  -6962163.10947  22386221.2644   22386224.8264
     -1178.0624
 06  4 21 12 25 30.0060000  0  9G 1G23G30G 2G17G 4G20G 5G24
   -414275.67246   -237107.97246  25146152.1624   25146155.8534
     -2207.7504
  -3848081.16745  -2842184.55746  25529568.4284   25529567.9124
      2245.0784
   -346260.39145   -171677.75245  26151096.4204   26151101.2134
      2117.8134
  -2989643.84446  -2153336.63546  25891120.8034   25891122.7484
      2877.6564
   4942713.66048   3866925.14047  23035582.2644   23035584.1394
     -3135.0474
 -11479253.26048  -8778615.52647  23116255.2954   23116258.0254
      1408.6884
  -5345552.09848  -4136760.13747  23094622.9824   23094625.5024
     -2203.7814
  -5400130.27046  -4105405.29846  24633546.6314   24633549.7604
       312.1564
  -8934872.94148  -6934430.41147  22392993.9824   22392997.6744
     -1194.8594
 06  4 21 12 26  0.0060000  0  9G 1G23G30G 2G17G 4G20G 5G24
   -347763.46846   -185280.28146  25158809.1394   25158813.3574
     -2226.5784
  -3915284.97245  -2894551.11346  25516779.3344   25516779.9434
      2234.9384
   -409616.97045   -221046.56045  26139040.4204   26139044.9324
      2105.7344
  -3075921.11446  -2220565.59846  25874702.2094   25874703.7684
      2873.9224
   5036997.17348   3940392.80947  23053524.1074   23053525.7364
     -3150.7034
 -11521312.52648  -8811388.97447  23108251.7564   23108254.5334
      1395.0634
  -5279156.50948  -4085023.32447  23107257.5144   23107259.9284
     -2222.7814
  -5409201.95146  -4112474.24446  24631820.7484   24631824.1584
       292.4064
  -8898785.57748  -6906310.37547  22399861.2094   22399864.7254
     -1211.1724
 06  4 21 12 26 30.0060000  0  9G 1G23G30G 2G17G 4G20G 5G24
   -280679.52146   -133007.00046  25171574.6004   25171578.2444
     -2245.7504
  -3982175.76145  -2946673.74546  25504050.9824   25504051.1704
      2224.3284
   -472600.52345   -270124.66345  26127054.7014   26127055.9674
      2093.0944
  -3162077.29546  -2287700.23246  25858307.2094   25858308.9904
      2869.7194
   5131757.34348   4014231.89847  23071556.4824   23071558.2054
     -3166.7194
 -11562954.46748  -8843837.22147  23100327.4434   23100330.2914
      1380.9694
  -5212183.95748  -4032836.92647  23120002.2404   23120004.6314
     -2242.1254
  -5417672.87246  -4119074.98446  24630209.2014   24630212.9284
       272.2194
  -8862201.25448  -6877803.09647  22406823.0064   22406826.3344
     -1227.8594
 06  4 21 12 27  0.0060000  0  9G 1G23G30G 2G17G 4G20G 5G24
   -213020.81046    -80285.87846  25184449.4674   25184453.5684
     -2264.8284
  -4048746.13146  -2998546.69146  25491383.4434   25491383.7364
      2213.6884
   -535203.68645   -318906.23945  26115141.1074   26115145.3264
      2080.4384
  -3248105.91546  -2354735.50246  25841936.0454   25841937.7444
      2865.5004
   5226997.24548   4088444.81347  23089679.7094   23089681.5144
     -3182.6094
 -11604173.16648  -8875955.67647  23092483.9284   23092486.8814
      1366.9224
  -5144631.31348  -3980198.52447  23132857.0064   23132859.4784
     -2261.3754
  -5425537.26746  -4125203.02546  24628712.2404   24628716.1894
       252.0634
  -8825116.24348  -6848905.67347  22413879.9044   22413883.3854
     -1244.4694
 06  4 21 12 27 30.0060000  0  9G 1G23G30G 2G17G 4G20G 5G24
   -144795.66346    -27123.35846  25197432.1544   25197437.0294
     -2283.3914
  -4115000.01046  -3050173.01546  25478775.9514   25478776.0924
      2203.3594
   -597430.76045   -367394.79845  26103300.1934   26103303.3114
      2068.1414
  -3334012.38446  -2421675.53646  25825588.2794   25825590.6824
      2861.7034
   5322708.22547   4163024.79247  23107892.4594   23107894.2174
     -3198.0004
 -11644973.58848  -8907748.20747  23084719.7174   23084722.4124
      1353.2344
  -5076506.59548  -3927114.34147  23145820.5764   23145823.1544
     -2280.1414
  -5432800.85146  -4130862.95146  24627330.7014   24627334.3814
       232.2664
  -8787537.80948  -6819623.77047  22421031.1864   22421034.5144
     -1260.6414
 06  4 21 12 28  0.0060000  0  9G 1G23G30G 2G17G 4G20G 5G24
    -76005.58746     26479.29646  25210522.7324   25210527.5254
     -2302.3444
  -4180934.76145  -3101550.66746  25466227.8184   25466227.7254
      2192.5004
   -659278.53945   -415587.65145  26091530.7874   26091535.0414
      2055.2974
  -3419794.64346  -2488518.79546  25809265.1464   25809266.6824
      2857.3754
   5418888.40047   4237970.36247  23126195.1624   23126196.9204
     -3213.7664
 -11685354.52348  -8939213.86447  23077035.3654   23077038.0724
      1339.0634
  -5007811.66948  -3873585.84747  23158893.1074   23158895.4634
     -2299.2664
  -5439462.30746  -4136053.67446  24626062.4284   24626066.2134
       212.0474
  -8749466.36148  -6789957.70747  22428275.7874   22428279.0104
     -1277.2194
 06  4 21 12 28 30.0060000  0  9G 1G23G30G 2G17G 4G20G 5G24
     -6651.47446     80521.40546  25223720.6464   25223724.7364
     -2321.1094
  -4246546.36646  -3152676.53746  25453742.8894   25453743.4284
      2181.7194
   -720744.33445   -463482.99145  26079834.2014   26079838.7484
      2042.5314
  -3505450.56146  -2555263.64646  25792965.6234   25792966.3734
      2853.1564
   5515536.91147   4313280.86047  23144586.9124   23144588.5064
     -3229.3124
 -11725313.74948  -8970350.90847  23069431.6004   23069433.8964
      1325.0314
  -4938547.50348  -3819613.81147  23172073.5764   23172076.0724
     -2318.1874
  -5445519.98946  -4140773.96146  24624909.7564   24624913.1544
       191.9224
  -8710901.83448  -6759907.44247  22435614.4754   22435617.6274
     -1293.6094
 06  4 21 12 29  0.0060000  0  9G 1G23G30G 2G17G 4G20G 5G24
     63267.19646    135003.57346  25237025.5064   25237030.2644
     -2340.1254
  -4311829.99146  -3203546.82746  25441319.6464   25441319.7284
      2170.5164
   -781822.72245   -511076.40145  26068211.3964   26068214.8424
      2029.3444
  -3590976.13446  -2621906.96446  25776689.7324   25776691.3144
      2848.5474
   5612653.85747   4388956.38847  23163067.9434   23163069.5964
     -3245.1414
 -11764847.89648  -9001156.71947  23061908.3964   23061910.8814
      1310.5944
  -4868713.70548  -3765197.88547  23185362.5684   23185365.0414
     -2337.3754
  -5450970.43646  -4145020.98446  24623872.4204   24623875.4904
       171.4224
  -8671842.65148  -6729471.71647  22443047.2174   22443050.3574
     -1310.3284
 06  4 21 12 29 30.0060000  0  9G 1G23G30G 2G17G 4G20G 5G24
    133749.29846                  25250438.3184
     -2358.6874
  -4376782.16446  -3254158.85046  25428960.0844   25428959.7094
      2159.5784
   -842510.87445   -558365.81945  26056662.7564   26056665.8034
      2016.4534
  -3676368.70846  -2688446.57446  25760441.1704   25760442.8464
      2844.2664
   5710238.32047   4464996.22047  23181637.0924   23181638.8854
     -3260.5164
 -11803954.77348  -9031629.61247  23054466.7094   23054469.3814
      1296.5004
  -4798311.20948  -3710338.81747  23198759.6624   23198761.9474
     -2356.1414
  -5455812.16246  -4148793.77246  24622950.8814   24622953.8344
       151.2814
  -8632288.84748  -6698650.56047  22450574.1154   22450577.1624
     -1326.6414
 06  4 21 12 30  0.0060000  0  9G 1G23G30G 2G17G 4G20G 5G24
    204795.23546                  25263958.3814
     -2377.8284
  -4441397.90446  -3304508.71746  25416663.9514   25416664.7954
      2147.9694
   -902803.56645   -605347.14345  26045189.4434   26045193.3224
      2002.9064
  -3761624.52846  -2754879.60946  25744217.3814   25744219.1154
      2839.3134
   5808290.41547   4541400.43547  23200295.9824   23200297.6824
     -3276.4224
 -11842631.00548  -9061766.92947  23047106.9674   23047109.3224
      1281.7664
  -4727339.85048  -3655036.45047  23212264.5764   23212266.7564
     -2375.4224
  -5460041.78646  -4152089.55346  24622145.6784   24622148.7604
       130.5314
  -8592238.75148  -6667442.70047  22458195.5064   22458198.6114
     -1343.5314
 06  4 21 12 30 30.0060000  0  9G 1G23G30G 2G17G 4G20G 5G24
    276402.98446                  25277583.7794
     -2396.1414
  -4505674.98546  -3354594.69546  25404432.1314   25404432.7284
      2137.0314
   -962698.56445   -652018.55245  26033791.9754   26033793.7914
      1989.9694
  -3846742.50946  -2821205.28546  25728019.6864   25728021.6894
      2835.0944
   5906807.93347   4618167.30547  23219043.3654   23219044.9824
     -3291.5164
 -11880875.61648  -9091567.92347  23039829.0294   23039831.5724
      1267.7344
  -4655801.75048  -3599292.51647  23225878.3184   23225880.7324
     -2393.8914
  -5463658.71546  -4154907.98346  24621457.6934   24621461.5964
       110.4694
  -8551693.10748  -6635848.71247  22465910.7874   22465914.0214
     -1359.6254
 06  4 21 12 31  0.0060000  0  9G 1G23G30G 2G17G 4G20G 5G24
    348567.95246                  25291317.2794
     -2414.8124
  -4569613.28246  -3404416.70446  25392264.5614   25392264.9474
      2125.5314
  -1022196.27946   -698380.32245  26022470.2324   26022473.3384
      1976.5784
  -3931723.94746  -2887424.53146  25711848.3114   25711849.7054
      2830.3444
   6005786.07247   4695293.12047  23237878.4044   23237879.9864
     -3306.9844
 -11918690.11648  -9121033.76947  23032633.2644   23032635.8894
      1253.2344
  -4583701.23248  -3543110.32647  23239598.9984   23239601.2484
     -2412.7664
  -5466664.91846  -4157250.50946  24620884.9594   24620889.1894
        89.9694
  -8510655.83148  -6603871.60547  22473720.1544   22473723.2364
     -1376.1564
 06  4 21 12 31 30.0060000  0  9G 1G23G30G 2G17G 4G20G 5G24
    421289.23146                  25305155.3184
     -2433.2034
  -4633209.66646  -3453972.27746  25380163.4044   25380162.6194
      2114.2194
  -1081293.37345   -744429.95845  26011223.2644   26011226.0414
      1963.2664
  -4016566.06746  -2953535.19746  25695702.8504   25695703.9754
      2825.8134
   6105223.38347   4772776.72947  23256800.5534   23256802.2994
     -3322.1254
 -11956072.50848  -9150162.86847  23025519.5684   23025522.1234
      1238.9384
  -4511039.87648  -3486491.09447  23253425.5454   23253427.6664
     -2431.2974
  -5469058.87246  -4159116.04546  24620430.3504   24620434.4044
        69.6724
  -8469126.94648  -6571511.42847  22481622.7644   22481625.7174
     -1392.4064
 06  4 21 12 32  0.0060000  0  9G 1G23G30G 2G17G 4G20G 5G24
    494564.56946                  25319098.0924
     -2451.6724
  -4696461.01946  -3503258.99546  25368127.0294   25368126.7604
      2102.6724
  -1139987.54045   -790165.59845  26000055.2644   26000057.8304
      1949.7814
  -4101267.82146  -3019536.58946  25679584.8114   25679585.3964
      2821.1254
   6205118.08547   4850616.73147  23275810.1074   23275812.0644
     -3337.3444
 -11993021.62548  -9178954.37247  23018488.3114   23018491.0534
      1224.4844
  -4437819.79648  -3429436.49047  23267359.1464   23267361.4324
     -2449.8914
  -5470839.67247  -4160503.75846  24620092.3034   24620096.2174
        49.2034
  -8427107.23148  -6538768.81347  22489618.7714   22489622.0644
     -1408.7664
 06  4 21 12 32 30.0060000  0  9G 1G23G30G 2G17G 4G20G 5G24
    568392.87846                  25333148.7014
     -2470.2504
  -4759363.88346  -3552274.18346  25356155.8114   25356156.1504
      2090.8134
  -1198275.35145   -835584.57745  25988962.6784   25988966.3574
      1936.0164
  -4185826.81046  -3085426.70946  25663493.8264   25663495.1154
      2816.1094
   6305468.78747   4928812.08047  23294906.1934   23294908.1034
     -3352.7194
 -12029535.83148  -9207407.01347  23011539.9594   23011542.6314
      1209.7344
  -4364042.17048  -3371947.45547  23281398.1784   23281400.5924
     -2468.6564
  -5472005.78747  -4161412.51646  24619870.5924   24619874.0724
        28.4844
  -8384596.64648  -6505643.67747  22497708.1624   22497711.4084
     -1425.3124
 06  4 21 12 33  0.0060000  0  9G 1G23G30G 2G17G 4G20G 5G24
    642780.37846                  25347305.0374
     -2488.7504
  -4821908.26346  -3601010.03646  25344253.6154   25344255.2564
      2078.8914
  -1256146.36346   -880678.72245  25977950.3964   25977954.4394
      1922.1724
  -4270233.22146  -3151197.82546  25647432.2404   25647432.6034
      2811.0944
   6406281.53047   5007367.44947  23314090.2484   23314092.0064
     -3368.0004
 -12065605.67148  -9235513.37047  23004676.0764   23004678.8184
      1195.0164
  -4289700.81248  -3314019.13447  23295545.0214   23295547.3894
     -2487.3284
  -5472548.40847  -4161835.39146  24619766.8654   24619770.2874
         7.7974
  -8341588.24348  -6472130.62647  22505892.5684   22505895.8964
     -1441.8124
 06  4 21 12 33 30.0060000  0  9G 1G23G30G 2G17G 4G20G 5G24
    717718.18146                  25361563.6624
     -2506.9844
  -4884097.92246  -3649469.50746  25332419.5214   25332420.8574
      2067.1414
  -1313605.12745   -925451.82645  25967015.5144   25967018.6784
      1908.5004
  -4354492.26546  -3216854.23346  25631398.1234   25631399.7754
      2806.2504
   6507547.29947   5086275.81747  23333359.8964   23333361.7134
     -3382.9534
 -12101236.62948  -9263277.74047  22997895.6934   22997898.0724
      1180.4844
  -4214804.39348  -3255658.29947  23309797.3894   23309799.8144
     -2505.6724
  -5472473.29747  -4161776.87246  24619781.0764   24619784.2874
       -12.7034
  -8298089.48448  -6438235.49647  22514169.9204   22514173.1434
     -1458.0314
 06  4 21 12 34  0.0060000  0  9G 1G23G30G 2G17G 4G20G 5G24
    793205.86146                  25375927.7174
     -2525.3914
  -4945928.85746  -3697649.46246  25320654.0844   25320654.5064
      2055.0314
  -1370647.86145   -969900.88245  25956161.2014   25956165.2564
      1894.4534
  -4438601.05746  -3282393.55046  25615391.9904   25615392.7754
      2801.1094
   6609265.15947   5165536.46047  23352716.6704   23352718.7794
     -3398.0944
 -12136426.47348  -9290698.38447  22991199.1464   22991201.9244
      1165.6254
  -4139353.94148  -3196865.74147  23324155.0924   23324157.6464
     -2524.2194
  -5471778.79246  -4161235.68246  24619912.7794   24619916.1664
       -33.4694
  -8254100.04948  -6403958.02247  22522540.8424   22522544.1824
     -1474.4694
 06  4 21 12 34 30.0060000  0  9G 1G23G30G 2G17G 4G20G 5G24
    869243.61446                  25390397.1704
     -2543.6254
  -5007395.99046  -3745545.91846  25308957.4514   25308957.0414
      2042.9534
  -1427268.66645  -1014020.75145  25945386.5534   25945389.8344
      1880.4844
  -4522555.75146  -3347812.68746  25599415.5374   25599416.5334
      2796.0634
   6711435.79447   5245149.92047  23372158.5924   23372160.7014
     -3413.0624
 -12171171.61548  -9317772.52647  22984587.5214   22984590.1464
      1150.8914
  -4063348.91548  -3137641.07247  23338618.1314   23338620.8144
     -2542.5784
  -5470461.56646  -4160209.18746  24620163.9514   24620167.1394
       -54.1094
  -8209618.25648  -6369296.89247  22531005.4204   22531008.8184
     -1490.7814
 06  4 21 12 35  0.0060000  0  9G 1G23G30G 2G17G 4G20G 5G24
    945822.67446                  25404971.7564
     -2561.8444
  -5068503.49046  -3793162.10746  25297329.4124   25297329.2134
      2030.6884
  -1483472.97745  -1057816.24245  25934691.3654   25934695.9594
      1866.2974
  -4606361.87946  -3413116.12546  25583467.8114   25583469.2284
      2790.8134
   6814050.18047   5325109.15447  23391685.7794   23391687.8654
     -3428.0624
 -12205477.50448  -9344504.36247  22978059.3114   22978062.0294
      1136.0314
  -3986797.99948  -3077991.01247  23353185.6464   23353188.0844
     -2560.9844
  -5468527.84847  -4158702.35446  24620531.9674   24620535.2834
       -74.9224
  -8164651.62348  -6334257.96447  22539562.3814   22539565.8384
     -1507.1564
 06  4 21 12 35 30.0060000  0 10G 1G23G30G 2G17G 4G20G 5G24G25
   1022949.27746                  25419648.3894
     -2580.0624
  -5129240.47946  -3840489.63546  25285770.7954   25285771.2174
      2018.2814
  -1539250.18245  -1101278.99445  25924077.9044   25924081.4554
      1851.9844
  -4690008.91046  -3478295.63146  25567551.0294   25567552.4364
      2785.4694
   6917114.52647   5405419.00247  23411298.1154   23411300.2364
     -3443.0474
 -12239335.04348  -9370886.85547  22971616.2714   22971619.0374
      1121.0004
  -3909695.19148  -3017910.90647  23367857.3114   23367860.0764
     -2579.3754
  -5465968.98346  -4156708.54046  24621018.5684   24621021.4284
       -95.7974
  -8119193.00548  -6298835.68547  22548213.0064   22548216.2174
     -1523.5784
                                  26777791.5454
      1155.9384
 06  4 21 12 36  0.0060000  0 10G 1G23G30G 2G17G 4G20G 5G24G25
   1100619.27746                  25434427.7324
     -2598.0944
  -5189606.52446  -3887528.10546  25274283.9364   25274284.6744
      2005.9384
  -1594599.23845  -1144408.05845  25913545.4284   25913548.1114
      1837.7504
  -4773497.57846  -3543351.67046  25551663.4434   25551665.1434
      2780.2504
   7020624.64847   5486076.22147  23430996.0924   23430998.2254
     -3457.7974
 -12272744.87548  -9396920.48847  22965258.7174   22965261.4364
      1106.1254
  -3832044.49548  -2957403.88647  23382633.9674   23382636.7214
     -2597.5004
  -5462785.76146  -4154227.97746  24621624.4674   24621627.0454
      -116.5314
  -8073245.30448  -6263032.28147  22556956.3574   22556959.6974
     -1539.7814
    -33325.35445                  26771231.0064
      1142.6564
 06  4 21 12 36 30.0060000  0 10G 1G23G30G 2G17G 4G20G 5G24G25
   1178827.55246                  25449309.9044
     -2615.9844
  -5249602.03546  -3934277.84046  25262866.9514   25262867.9474
      1993.5784
  -1649521.26145  -1187204.47345  25903093.8894   25903098.2364
      1823.4534
  -4856829.45346  -3608285.62446  25535805.9904   25535807.0684
      2775.0164
   7124575.08847   5567076.54247  23450776.9124   23450778.7994
     -3472.4064
 -12305709.11048  -9422606.90147  22958985.7954   22958988.4204
      1091.3134
  -3753851.44948  -2896474.24347  23397514.1704   23397516.4674
     -2615.5164
  -5458981.25347  -4151263.42646  24622348.5844   24622351.3504
      -137.2664
  -8026812.50148  -6226850.88147  22565792.4754   22565795.8964
     -1555.9064
    -67408.18145         0.37255  26764743.5764   26764746.6824
      1129.3594
 06  4 21 12 37  0.0060000  0 10G 1G23G30G 2G17G 4G20G 5G24G25
   1257578.76446     26640.76946  25464294.5454   25464297.7794
     -2634.0944
  -5309217.70146  -3980731.59046  25251522.9594   25251523.6744
      1980.8134
  -1704006.63046  -1229660.37945  25892725.7014   25892728.1034
      1808.8594
  -4939995.98746  -3673090.62946  25519979.6004   25519980.6664
      2769.4384
   7228970.44747   5648423.54447  23470642.6624   23470644.6544
     -3487.2664
 -12338220.19748  -9447940.19847  22952799.3034   22952801.8934
      1076.1094
  -3675111.30748  -2835118.30647  23412497.7324   23412500.1584
     -2633.7814
  -5454548.40947  -4147809.37846  24623192.3734   24623196.0644
      -158.2814
  -7979889.01848  -6190287.14547  22574721.5294   22574724.9044
     -1572.3124
   -101083.61745    -26240.09445  26758335.6624   26758340.7134
      1115.7034
 06  4 21 12 37 30.0060000  0 10G 1G23G30G 2G17G 4G20G 5G24G25
   1336868.96146                  25479382.5454
     -2651.9224
  -5368452.73146  -4026888.75446  25240250.8344   25240250.9044
      1968.1884
  -1758055.30246  -1271776.17045  25882440.4824   25882443.0844
      1794.3594
  -5022997.69546  -3737767.22646  25504184.7484   25504185.8034
      2764.0004
   7333806.81547   5730114.19347  23490592.5294   23490594.3934
     -3501.8124
 -12370278.73848  -9472920.87147  22946698.8574   22946701.3894
      1061.1094
  -3595827.98348  -2773339.08447  23427584.9754   23427587.3774
     -2651.7504
  -5449487.64046  -4143865.84446  24624154.8964   24624158.4124
      -179.1094
  -7932477.32548  -6153342.98347  22583743.9364   22583747.1934
     -1588.4534
   -134351.62345    -52163.19445  26752005.6544   26752008.4084
      1102.1724
 06  4 21 12 38  0.0060000  0 10G 1G23G30G 2G17G 4G20G 5G24G25
   1416691.26046                  25494574.1074
     -2669.7194
  -5427309.39646  -4072751.07646  25229051.2954   25229050.9204
      1955.4064
  -1811669.62246  -1313553.58545  25872237.1074   25872239.5684
      1779.7034
  -5105837.64846  -3802317.79946  25488421.1704   25488422.5534
      2758.4844
   7439077.38447   5812143.18747  23510624.9824   23510626.8344
     -3516.3754
 -12401888.33248  -9497551.69947  22940683.6784   22940686.3264
      1046.0004
  -3516008.57948  -2711142.16347  23442774.1234   23442776.4674
     -2669.7034
  -5443803.85146  -4139436.87846  24625236.1784   24625240.0924
      -199.9844
  -7884583.29248  -6116022.97447  22592857.7404   22592861.0214
     -1604.6414
   -167215.00245    -77770.94645  26745750.9044   26745754.8534
      1088.5634
 06  4 21 12 38 30.0060000  0 10G 1G23G30G 2G17G 4G20G 5G24G25
   1497045.06146                  25509864.4904
     -2687.4224
  -5485783.40946  -4118315.21946  25217923.7014   25217923.3614
      1942.6094
  -1864845.31746  -1354989.23545  25862118.2404   25862120.7834
      1765.0474
  -5188512.58546  -3866739.77246  25472688.6234   25472689.8654
      2752.9694
   7544781.33347   5894509.87947  23530739.6544   23530741.7174
     -3530.7814
 -12433046.36548  -9521830.68047  22934754.6314   22934757.2214
      1030.9534
  -3435653.20448  -2648527.61246  23458064.7794   23458067.1464
     -2687.5314
  -5437494.71946  -4134520.73146  24626436.4044   24626439.9904
      -220.8754
  -7836206.07548  -6078326.43947  22602063.7174   22602066.9394
     -1620.7194
   -199670.37645   -103060.76745  26739574.9434   26739579.1864
      1074.9384
 06  4 21 12 39  0.0060000  0 10G 1G23G30G 2G17G 4G20G 5G24G25
   1577929.18146                  25525255.8894
     -2704.9534
  -5543871.43346  -4163578.60146  25206869.3574   25206869.2994
      1929.7974
  -1917579.33746  -1396080.71045  25852083.7484   25852087.0884
      1750.4384
  -5271020.28146  -3931031.47046  25456988.1394   25456988.6314
      2747.4384
   7650917.50447   5977213.36847  23550936.2794   23550938.2484
     -3545.0474
 -12463750.90648  -9545756.31247  22928911.6394   22928914.1464
      1015.9224
  -3354763.53448  -2585496.70547  23473457.5764   23473460.1664
     -2705.2034
  -5430558.72446  -4129115.87846  24627756.3734   24627760.1464
      -241.6254
  -7787345.93548  -6040253.59747  22611361.3654   22611364.8114
     -1636.7034
   -231714.97545   -128030.44345  26733477.0924   26733481.5804
      1061.3134
 06  4 21 12 39 30.0060000  0 10G 1G23G30G 2G17G 4G20G 5G24G25
   1659336.61446                  25540747.9044
     -2722.3284
  -5601575.39446  -4208542.73246  25195888.5064   25195889.1154
      1916.9844
  -1969873.61746  -1436829.37045  25842132.6544   25842134.9984
      1735.7344
  -5353363.61546  -3995195.09646  25441318.3734   25441319.1114
      2741.9534
   7757478.98147   6060248.26147  23571214.6784   23571216.7284
     -3559.1724
 -12494005.57248  -9569331.37547  22923154.3504   22923156.8814
      1000.9384
  -3273346.57748  -2522054.93147  23488951.0764   23488953.4554
     -2722.7194
  -5423000.85846  -4123226.84246  24629194.3034   24629197.7364
      -262.3754
  -7738008.73348  -6001809.02247  22620750.1004   22620753.3344
     -1652.5784
   -263351.79445   -152682.47445  26727455.6004   26727457.9904
      1047.7194
 06  4 21 12 40  0.0060000  0 10G 1G23G30G 2G17G 4G20G 5G24G25
   1741265.34046                  25556339.1074
     -2739.6254
  -5658893.18346  -4253205.94346  25184981.1464   25184981.2874
      1904.0944
  -2021726.24646  -1477233.99145  25832264.5144   25832267.7604
      1721.0314
  -5435540.98646  -4059229.41646  25425679.7874   25425681.4164
      2736.4384
   7864463.49147   6143612.78747  23591572.9514   23591574.8614
     -3573.2034
 -12523809.26448  -9592555.02347  22917482.7404   22917485.2364
       985.9064
  -3191404.36648  -2458203.87947  23504544.1464   23504546.3144
     -2740.1564
  -5414819.88046  -4116851.95546  24630751.0844   24630754.7644
      -283.1254
  -7688195.26748  -5962993.34047  22630229.2094   22630232.4904
     -1668.4064
   -294579.14845   -177015.47645  26721514.0614   26721517.9984
      1034.0314
 06  4 21 12 40 30.0060000  0 10G 1G23G30G 2G17G 4G20G 5G24G25
   1823717.26046                  25572027.2714
     -2756.8914
  -5715817.46146  -4297562.50446  25174148.7174   25174149.2094
      1891.0944
  -2073130.90146  -1517289.72945  25822482.9824   25822486.9434
      1706.1724
  -5517546.53246  -4123129.82446  25410075.0374   25410076.0334
      2730.8284
   7971873.14847   6227308.59547  23612012.1934   23612014.1744
     -3587.1874
 -12553156.75848  -9615423.18947  22911898.2254   22911900.7794
       970.8284
  -3108934.79548  -2393941.89847  23520237.6004   23520239.8264
     -2757.5474
  -5406011.29446  -4109987.96346  24632427.8184   24632431.7444
      -303.8594
  -7637902.35948  -5923804.07147  22639799.6544   22639802.9124
     -1684.2194
   -325390.82344   -201024.48045  26715649.4904   26715653.9674
      1020.3134
 06  4 21 12 41  0.0060000  0 10G 1G23G30G 2G17G 4G20G 5G24G25
   1906685.97346                  25587817.9904
     -2774.0944
  -5772350.23246  -4341614.00546  25163392.1624   25163392.5144
      1877.9844
  -2124088.71546  -1556997.15145  25812785.3964   25812788.9004
      1691.2504
  -5599382.87346  -4186898.35246  25394502.3264   25394503.8734
      2725.1414
   8079701.36247   6311330.56347  23632531.4434   23632533.3074
     -3601.1094
 -12582051.29748  -9637938.41447  22906399.6394   22906402.3464
       955.7034
  -3025944.32348  -2329274.01447  23536029.8114   23536032.0964
     -2774.8754
  -5396579.18946  -4102638.25746  24634222.6314   24634225.9124
      -324.7034
  -7587134.76048  -5884244.90647  22649460.1544   22649463.4474
     -1700.0314
   -355788.99045   -224711.30645  26709866.5684   26709869.9904
      1006.4694
 06  4 21 12 41 30.0060000  0 10G 1G23G30G 2G17G 4G20G 5G24G25
   1990171.11946                  25603703.2564
     -2791.3444
  -5828487.53746  -4385357.34846  25152708.2324   25152708.9244
      1864.6884
  -2174595.56046  -1596353.03045  25803174.7324   25803177.7444
      1676.0784
  -5681046.43946  -4250532.25946  25378962.9204   25378963.7404
      2719.2974
   8187947.65447   6395678.30147  23653130.1864   23653132.3074
     -3615.0784
 -12610489.96048  -9660098.38447  22900988.1074   22900990.8504
       940.4384
  -2942433.59448  -2264200.72847  23551921.5924   23551923.7714
     -2792.2814
  -5386521.53746  -4094801.21646  24636136.6784   24636140.2404
      -345.5944
  -7535892.22748  -5844315.66347  22659211.2564   22659214.5254
     -1715.9224
   -385770.33345   -248073.27045  26704160.6934   26704164.5024
       992.4844
 06  4 21 12 42  0.0060000  0 10G 1G23G30G 2G17G 4G20G 5G24G25
   2074169.66446                  25619687.1624
     -2808.4224
  -5884226.65446  -4428790.41846  25142101.7484   25142102.8854
      1851.3754
  -2224650.11346  -1635356.51845  25793649.3424   25793652.0254
      1660.9534
  -5762536.32646  -4314030.88846  25363455.6784   25363456.3934
      2713.4844
   8296609.34647   6480349.72847  23673807.6234   23673809.4984
     -3628.8914
 -12638472.37548  -9681902.85547  22895663.2094   22895665.7524
       925.1724
  -2858405.06048  -2198723.94847  23567911.7254   23567914.0334
     -2809.4694
  -5375838.29446  -4086476.65546  24638169.2404   24638172.6154
      -366.4844
  -7484176.09748  -5804017.37347  22669052.5924   22669056.0144
     -1731.6724
   -415333.63145   -271109.52445  26698535.4434   26698538.8074
       978.5164
 06  4 21 12 42 30.0060000  0 10G 1G23G30G 2G17G 4G20G 5G24G25
   2158674.68346                  25635769.1934
     -2825.2974
  -5939570.10346  -4471915.16846  25131570.3654   25131570.7754
      1838.1414
  -2274254.65846  -1674009.37845  25784211.0294   25784214.2174
      1645.9694
  -5843855.86046  -4377396.71546  25347980.7484   25347981.8504
      2707.7814
   8405679.50647   6565339.44847  23694563.1394   23694565.0374
     -3642.4694
 -12666002.36248  -9703354.76547  22890424.3504   22890426.9284
       910.0944
  -2773866.09648  -2132849.43447  23583998.4904   23584001.0334
     -2826.4694
  -5364534.11146  -4077668.29346  24640320.4284   24640323.9784
      -387.1724
  -7431992.42748  -5763354.77447  22678982.7794   22678986.2364
     -1747.2504
   -444481.96145   -293822.46645  26692988.0064   26692991.8964
       964.6564
 06  4 21 12 43  0.0060000  0 10G 1G23G30G 2G17G 4G20G 5G24G25
   2243692.30946                  25651947.1704
     -2842.6254
  -5994506.99646  -4514723.11346  25121116.3734   25121116.3614
      1824.2504
  -2323398.60946  -1712303.47945  25774859.1074   25774862.7404
      1630.2814
  -5924994.88346  -4440621.85946  25332540.8964   25332541.6824
      2701.4224
   8515164.14047   6650652.12547  23715397.9674   23715399.7364
     -3656.5474
 -12693070.37148  -9724446.69447  22885273.5684   22885276.1464
       894.3914
  -2688810.43648  -2066572.31647  23600184.7324   23600186.7834
     -2843.9534
  -5352599.93646  -4068368.86646  24642592.1624   24642595.8424
      -408.4844
  -7379333.97048  -5722322.21947  22689003.4514   22689006.6034
     -1763.3594
   -473205.19845   -316204.15645  26687521.8894   26687525.6034
       950.1564
 06  4 21 12 43 30.0060000  0 10G 1G23G30G 2G17G 4G20G 5G24G25
   2329219.66746                  25668222.7484
     -2859.3754
  -6049035.57046  -4557212.89246  25110739.9754   25110739.6464
      1810.7974
  -2372080.06746  -1750237.00545  25765595.2094   25765598.8184
      1615.0314
  -6005952.34946  -4503705.53346  25317134.8964   25317135.6584
      2695.5474
   8625060.27347   6736285.45047  23736310.0214   23736311.8384
     -3670.0314
 -12719676.26348  -9745178.55247  22880210.5064   22880213.0144
       879.1724
  -2603241.03148  -1999894.85947  23616467.7874   23616469.9674
     -2860.8444
  -5340036.50946  -4058579.19046  24644982.8034   24644986.9754
      -429.2664
  -7326202.32148  -5680920.92947  22699113.8264   22699117.2014
     -1778.9374
   -501502.16844   -338253.66645  26682135.8424   26682141.1624
       936.1094
 06  4 21 12 44  0.0060000  0 10G 1G23G30G 2G17G 4G20G 5G24G25
   2415255.54046                  25684594.8504
     -2876.2814
  -6103151.98146  -4599381.49746  25100441.9364   25100442.3114
      1797.0164
  -2420295.95846  -1787807.81545  25756420.2794   25756423.3034
      1599.4694
  -6086725.43846  -4566645.59346  25301764.8184   25301765.7094
      2689.3444
   8735366.94147   6822238.66947  23757301.0454   23757302.7324
     -3683.6874
 -12745817.69148  -9765548.48847  22875236.1004   22875238.6544
       863.6564
  -2517158.99648  -1932817.95047  23632848.6234   23632851.1434
     -2877.9064
  -5326842.14946  -4048297.75746  24647492.7714   24647496.4864
      -450.2974
  -7272597.12748  -5639150.65747  22709314.5534   22709317.9284
     -1794.6874
   -529369.88545   -359968.70745  26676832.1394   26676836.4284
       921.8134
 06  4 21 12 44 30.0060000  0 10G 1G23G30G 2G17G 4G20G 5G24G25
   2501795.23146                  25701061.5294
     -2893.0004
  -6156856.45346  -4641229.11946  25090221.8424   25090222.5214
      1783.2974
  -2468045.89246  -1825015.36246  25747332.7564   25747335.9324
      1583.9224
  -6167314.60046  -4629442.32246  25286428.7874   25286429.6434
      2683.2974
   8846079.34147   6908508.04847  23778368.5374   23778370.4824
     -3697.1094
 -12771496.44148  -9785557.90947  22870349.3814   22870351.9944
       848.2664
  -2430569.24748  -1865345.43747  23649326.3814   23649328.6544
     -2894.7194
  -5313019.46546  -4037526.83546  24650123.0764   24650127.1314
      -471.2034
  -7218522.15348  -5597014.31947  22719604.6314   22719608.2284
     -1810.2814
   -556809.26645   -381350.00745  26671611.8504   26671616.2214
       907.5474
 06  4 21 12 45  0.0060000  0 10G 1G23G30G 2G17G 4G20G 5G24G25
   2588836.44646                  25717626.5064
     -2909.7034
  -6210146.37346  -4682753.70846  25080080.9674   25080081.5884
      1769.3914
  -2515328.32546  -1861858.83346  25738336.1314   25738338.9904
      1568.2504
  -6247718.73446  -4692094.89446  25271127.6934   25271129.1234
      2677.0164
   8957194.89547   6995091.58347  23799513.7404   23799515.5804
     -3710.5624
 -12796711.31948  -9805205.87547  22865551.2644   22865553.6784
       832.7664
  -2343473.95748  -1797478.98747  23665900.1074   23665902.5334
     -2911.5944
  -5298568.20447  -4026266.13746  24652874.1234   24652878.1074
      -492.2194
  -7163978.56748  -5554512.82647  22729984.1704   22729987.7094
     -1825.9224
   -583818.61145   -402396.21445  26666473.9364   26666477.5334
       893.1254
 06  4 21 12 45 30.0060000  0 10G 1G23G30G 2G17G 4G20G 5G24G25
   2676378.13746                  25734285.0844
     -2926.3754
  -6263017.70746  -4723952.11546  25070020.9594   25070020.3734
      1755.3914
  -2562138.85846  -1898334.65746  25729427.8894   25729431.0064
      1552.4694
  -6327934.29346  -4754600.43646  25255862.7174   25255863.9004
      2670.7194
   9068713.32847   7081989.03947  23820734.6074   23820736.4244
     -3723.9534
 -12821459.82648  -9824490.40147  22860841.9434   22860844.4284
       817.1564
  -2255873.69948  -1729219.05446  23682569.2094   23682571.7524
     -2928.3914
  -5283486.41446  -4014514.03146  24655743.5924   24655747.1894
      -513.2194
  -7108965.66848  -5511645.63547  22740452.8184   22740455.9944
     -1841.5624
   -610394.53345   -423104.66345  26661417.6544   26661421.4634
       878.6254
 06  4 21 12 46  0.0060000  0 10G 1G23G30G 2G17G 4G20G 5G24G25
   2764419.49546                  25751039.0844
     -2943.0474
  -6315466.65846  -4764821.39546  25060039.4204   25060038.3184
      1741.1884
  -2608474.02646  -1934440.00246  25720610.8734   25720612.7254
      1536.5164
  -6407958.69746  -4816957.11546  25240635.5064   25240636.8534
      2664.2194
   9180633.39347   7169199.46947  23842032.2644   23842034.0214
     -3737.3754
 -12845739.65148  -9843409.74447  22856221.4204   22856224.0104
       801.4534
  -2167769.85348  -1660566.70847  23699335.3424   23699337.4754
     -2945.2034
  -5267772.93346  -4002269.82746  24658732.9044   24658736.9244
      -534.3444
  -7053483.13348  -5468412.49047  22751010.6074   22751014.0294
     -1857.2814
   -636534.13345   -443473.12245  26656442.5214   26656445.6394
       864.0004
 06  4 21 12 46 30.0060000  0 10G 1G23G30G 2G17G 4G20G 5G24G25
   2852958.57446                  25767887.8184
     -2959.4224
  -6367490.22246  -4805359.19946  25050139.5374   25050139.4324
      1727.1254
  -2654331.08046  -1970172.65546  25711884.3264   25711887.3264
      1520.7194
  -6487789.37746  -4879162.76846  25225444.4904   25225445.4514
      2657.9224
   9292953.38847   7256721.52147  23863406.1864   23863408.0024
     -3750.5004
 -12869549.33048  -9861962.71647  22851690.3504   22851692.9164
       785.9384
  -2079164.14147  -1591523.29946  23716196.1464   23716198.7834
     -2961.7194
  -5251426.82246  -3989532.64146  24661844.5924   24661848.7404
      -555.2814
  -6997531.52148  -5424813.83847  22761657.9674   22761661.2254
     -1872.7194
   -662235.11545   -463499.85845  26651551.6004   26651555.8184
       849.5164
 06  4 21 12 47  0.0060000  0 10G 1G23G30G 2G17G 4G20G 5G24G25
   2941991.28346                  25784829.4984
     -2975.8284
  -6419087.42946  -4845564.79546  25040321.4284   25040321.8034
      1712.9224
  -2699709.79146  -2005532.73846  25703248.9044   25703251.2484
      1504.7664
  -6567426.72046  -4941217.81546  25210289.7874   25210291.0644
      2651.4694
   9405669.34647   7344552.11647  23884855.4904   23884857.2714
     -3763.6254
 -12892889.96548  -9880150.21047  22847248.8654   22847251.5844
       770.3444
  -1990060.82948  -1522092.17446  23733152.2644   23733154.8424
     -2978.2504
  -5234449.85546  -3976303.83246  24665074.9824   24665078.7564
      -576.2814
  -6941113.87148  -5380852.03347  22772394.0534   22772397.2874
     -1888.2034
   -687497.87145   -483185.15345  26646744.7794   26646747.3114
       834.8914
 06  4 21 12 47 30.0060000  0 10G 1G23G30G 2G17G 4G20G 5G24G25
   3031510.25846                  25801865.4984
     -2992.1254
  -6470261.15046  -4885440.37746  25030582.8114   25030583.1744
      1698.6254
  -2744612.69846  -2040522.05646  25694704.3574   25694707.1704
      1488.6884
  -6646873.50946  -5003124.35546  25195171.0214   25195172.4864
      2644.9384
   9518773.89547   7432685.50447  23906378.4044   23906380.0454
     -3776.7034
 -12915765.30948  -9897975.14047  22842895.7644   22842898.2714
       754.6254
  -1900466.85448  -1452278.69246  23750201.3734   23750203.6584
     -2994.7194
  -5216846.92046  -3962587.30646  24668424.9674   24668428.5534
      -597.2664
  -6884236.35648  -5336531.90447  22783217.3964   22783220.6074
     -1903.6724
   -712325.39445   -502531.32045  26642021.4514   26642025.0844
       820.2194
 06  4 21 12 48  0.0060000  0 10G 1G23G30G 2G17G 4G20G 5G24G25
   3121522.30946     32776.37546  25818994.2014   25819001.2954
     -3008.5474
  -6520999.66246  -4924976.83146  25020927.5764   25020927.8574
      1684.0164
  -2789028.16446  -2075131.46746  25686252.2644   25686256.1664
      1472.4064
  -6726119.03846  -5064874.11346  25180091.2404   25180092.8574
      2638.1724
   9632274.27747   7521127.33847  23927977.2564   23927978.5684
     -3789.8914
 -12938165.28648  -9915429.66947  22838633.3814   22838635.9364
       738.7504
  -1810375.48747  -1382077.62846  23767344.9284   23767347.4714
     -3011.2814
  -5198608.73546  -3948375.71546  24671895.5294   24671899.3144
      -618.5164
  -6826890.78248  -5291847.05047  22794130.0214   22794133.1394
     -1919.2814
   -736706.89445   -521529.90445  26637378.6704   26637381.7524
       805.2814
 06  4 21 12 48 30.0060000  0 10G 1G23G30G 2G17G 4G20G 5G24G25
   3212023.21746    103296.50546  25836215.7564   25836220.9004
     -3024.8124
  -6571302.55446  -4964173.83646  25011355.1154   25011355.2094
      1669.4534
  -2832956.25046  -2109361.20746  25677893.3964   25677896.3614
      1456.1094
  -6805163.63646  -5126467.28446  25165049.6784   25165050.9084
      2631.4384
   9746165.53847   7609873.74947  23949649.8814   23949651.6394
     -3802.8754
 -12960091.07048  -9932514.69047  22834461.0144   22834463.2524
       722.9224
  -1719791.06947  -1311492.38446  23784582.6464   23784585.1434
     -3027.6874
  -5179737.14546  -3933670.44346  24675485.8184   24675489.6154
      -639.6094
  -6769080.31948  -5246799.93547  22805130.8574   22805134.1624
     -1934.7664
   -760642.74445   -540181.17645  26632824.3734   26632828.1824
       790.4224
 06  4 21 12 49  0.0060000  0 10G 1G23G30G 2G17G 4G20G 5G24G25
   3303005.56046    174191.75245  25853528.0144   25853534.3894
     -3040.7194
  -6621171.94146  -5003033.04446  25001865.3964   25001865.0684
      1655.0784
  -2876399.37046  -2143213.04946  25669626.2714   25669629.6354
      1440.0634
  -6884010.53146  -5187906.37446  25150045.8424   25150046.7794
      2624.9534
   9860440.72047   7698919.32647  23971395.4984   23971397.3854
     -3815.5164
 -12981546.42548  -9949233.14147  22830378.4434   22830380.5184
       707.3754
  -1628720.73847  -1240528.49946  23801912.8344   23801915.3774
     -3043.7194
  -5160237.34347  -3918475.82246  24679197.3184   24679201.7714
      -660.4374
  -6710810.95848  -5201395.24447  22816219.0534   22816222.1114
     -1949.9224
   -784136.07345   -558487.61545  26628354.1934   26628358.4824
       775.7344
 06  4 21 12 49 30.0060000  0 10G 1G23G30G 2G17G 4G20G 5G24G25
   3394474.09646    245465.85746  25870934.9754   25870940.1194
     -3057.2344
  -6670598.70446  -5041547.34846  24992460.6234   24992459.9784
      1639.9384
  -2919348.03946  -2176679.53446  25661453.9434   25661456.8854
      1423.1254
  -6962650.93446  -5249184.62546  25135080.6704   25135081.5024
      2617.6884
   9975104.70847   7788267.86747  23993214.9904   23993217.2524
     -3828.7974
 -13002523.49248  -9965578.91547  22826386.3814   22826388.5374
       691.0314
  -1537160.01247  -1169182.48246  23819336.0844   23819338.4984
     -3060.3754
  -5140101.83046  -3902785.81246  24683028.2014   24683032.1154
      -681.9844
  -6652076.54648  -5155628.17547  22827396.0454   22827399.3614
     -1965.7664
   -807178.37445   -576442.66545  26623969.5614   26623972.7834
       760.3284
 06  4 21 12 50  0.0060000  0 10G 1G23G30G 2G17G 4G20G 5G24G25
   3486425.34046    317116.16446  25888433.3344   25888438.4784
     -3073.0314
  -6719581.21646  -5079715.48646  24983139.0064   24983139.1464
      1625.3444
  -2961801.61946  -2209760.20245  25653374.9754   25653378.2794
      1406.8444
  -7041083.90446  -5310301.16646  25120155.4044   25120156.5534
      2610.9844
  10090154.32447   7877916.89047  24015108.4674   24015110.6464
     -3841.3594
 -13023022.39848  -9981552.08047  22822485.3114   22822487.7014
       675.3134
  -1445112.64147  -1097457.28146  23836852.4044   23836855.0414
     -3076.3284
  -5119331.73747  -3886601.25846  24686981.1394   24686985.0414
      -702.8914
  -6592879.32948  -5109500.48047  22838660.7874   22838664.1274
     -1980.9224
   -829768.97445   -594045.69245  26619671.1784   26619675.5844
       745.4844
 06  4 21 12 50 30.0060000  0 10G 1G23G30G 2G17G 4G20G 5G24G25
   3578853.45346    389138.08145  25906020.4824   25906026.7524
     -3088.8914
  -6768120.30946  -5117538.09446  24973902.1314   24973902.2364
      1610.5474
  -3003761.03146  -2242455.88746  25645388.8964   25645392.3184
      1390.3754
  -7119311.72546  -5371257.89146  25105269.3504   25105270.8034
      2604.1094
  10205583.51547   7967861.68247  24037074.1234   24037076.3144
     -3853.9694
 -13043045.58848  -9997154.58447  22818675.2404   22818677.8774
       659.5164
  -1352583.65347  -1025356.80046  23854460.0614   23854462.5574
     -3092.3124
  -5097930.99546  -3869925.42946  24691053.4984   24691057.4714
      -723.8914
  -6533224.03848  -5063015.85847  22850012.8814   22850016.2444
     -1996.1564
   -851909.78945   -611298.33145  26615457.3504   26615461.4164
       730.5004
 06  4 21 12 51  0.0060000  0 10G 1G23G30G 2G17G 4G20G 5G24G25
   3671758.97246    461531.94046  25923700.1784   25923705.1824
     -3104.8444
  -6816210.57146  -5155010.97646  24964749.9284   24964750.3264
      1595.4384
  -3045221.02646  -2274762.46546  25637499.3184   25637503.0334
      1373.6094
  -7197329.02346  -5432050.62946  25090422.8264   25090423.6584
      2597.0004
  10321393.37947   8058103.11647  24059111.7874   24059113.8264
     -3866.7034
 -13062589.10148 -10012383.29447  22814956.4364   22814958.8964
       643.4064
  -1259572.78147   -952880.79046  23872159.4204   23872161.8224
     -3108.4224
  -5075896.16746  -3852755.47946  24695246.0534   24695249.9674
      -745.1254
  -6473108.58148  -5016172.65147  22861452.4984   22861456.1664
     -2011.5624
   -873596.08045   -628196.81045  26611330.5064   26611335.9324
       715.2194
 06  4 21 12 51 30.0060000  0 10G 1G23G30G 2G17G 4G20G 5G24G25
   3765140.02546    534296.35346  25941469.8734   25941474.0214
     -3120.7664
  -6863849.38646  -5192132.07046  24955685.6544   24955685.3144
      1580.2664
  -3086179.34946  -2306678.09246  25629705.6314   25629708.5374
      1356.7344
  -7275133.33946  -5492677.31346  25075617.2254   25075617.7754
      2589.7664
  10437581.66747   8148639.42247  24081221.8114   24081223.7444
     -3879.3754
 -13081651.64848 -10027237.21247  22811328.6704   22811330.9784
       627.2194
  -1166082.08247   -880030.90546  23889949.9594   23889952.4904
     -3124.4844
  -5053226.80146  -3835091.01746  24699560.7954   24699564.6394
      -766.3754
  -6412533.67048  -4968971.42047  22872979.1394   22872982.7834
     -2026.9534
   -894825.80245   -644739.44045  26607291.1864   26607294.5724
       699.8914
 06  4 21 12 52  0.0060000  0 10G 1G23G30G 2G17G 4G20G 5G24G25
   3858998.61746    607432.89546  25959330.6314   25959334.5924
     -3136.4064
  -6911029.81146  -5228895.98346  24946707.4434   24946706.7054
      1565.1884
  -3126628.83546  -2338197.19046  25622008.3574   25622011.2754
      1340.0004
  -7352719.14746  -5553133.80546  25060852.8344   25060854.0064
      2582.6884
  10554151.06347   8239472.69547  24103403.8184   24103406.0454
     -3891.7974
 -13100227.77648 -10041712.10947  22807793.6154   22807795.9944
       611.2344
  -1072109.12647   -806805.24746  23907832.6544   23907835.3504
     -3140.2814
  -5029918.86446  -3816929.02846  24703995.8184   24703999.8614
      -787.4374
  -6351496.02248  -4921409.63847  22884594.2714   22884598.0454
     -2042.1094
   -915592.83945   -660921.53745  26603338.4754   26603342.2014
       684.6724
 06  4 21 12 52 30.0070000  0 11G 1G23G30G 2G17G 4G20G 5G24G25G13
   3953327.94646    680936.31646  25977281.8544   25977286.8114
     -3151.9844
  -6957758.31246  -5265307.74846  24937815.4794   24937814.8474
      1549.9694
  -3166576.30546  -2369325.11946  25614407.7764   25614411.5154
      1323.1094
  -7430094.34946  -5613426.14546  25046129.2764   25046130.4954
      2575.5004
  10671094.81447   8330597.68147  24125657.7224   24125659.9604
     -3904.1564
 -13118324.86248 -10055813.72447  22804349.9484   22804352.4094
       595.1884
   -977660.70747   -733209.09146  23925805.5974   23925808.0344
     -3156.0314
  -5005978.89846  -3798274.56446  24708551.4874   24708555.5424
      -808.5004
  -6290002.25848  -4873492.43347  22896296.0654   22896299.7104
     -2057.2974
   -935903.82945   -676748.28345  26599474.8004   26599477.5074
       669.3754
                                  26639725.6984
      2895.3134
 06  4 21 12 53  0.0070000  0 11G 1G23G30G 2G17G 4G20G 5G24G25G13
   4048124.97446    754804.09845  25995321.2224   25995326.6474
     -3167.5164
  -7004023.63646  -5301358.60146  24929010.7614   24929010.9954
      1534.6564
  -3206010.77746  -2400053.19646  25606902.8544   25606905.7144
      1306.1564
  -7507245.99746  -5673544.29746  25031447.6984   25031448.5304
      2568.2344
  10788409.13147   8422011.41047  24147981.8784   24147984.1514
     -3916.4844
 -13135934.67548 -10069535.67147  22800999.0734   22801001.4174
       579.0944
   -882739.73547   -659244.71546  23943868.5424   23943870.8514
     -3171.7344
  -4981402.81346  -3779124.42946  24713227.6754   24713231.6364
      -829.6254
  -6228051.54548  -4825219.15747  22908085.3314   22908089.0464
     -2072.4694
   -955749.89545   -692212.77145  26595697.9874   26595700.7294
       653.9694
    -83889.36042                  26623208.3004
      2890.7344
 06  4 21 12 53 30.0070000  0 11G 1G23G30G 2G17G 4G20G 5G24G25G13
   4143382.31146    829030.57646  26013447.5814   26013451.1794
     -3183.0474
  -7049832.92646  -5337054.10046  24920293.6044   24920294.0614
      1519.2034
  -3244940.23446  -2430387.97346  25599494.8154   25599497.8624
      1289.0634
  -7584183.39246  -5733495.46246  25016806.9334   25016808.0814
      2560.8134
  10906087.45547   8513708.78547  24170375.6674   24170377.9644
     -3928.8124
 -13153065.29348 -10082884.19447  22797739.1444   22797741.6514
       562.8444
   -787353.67047   -584917.90846  23962020.0584   23962022.3314
     -3187.4374
  -4956198.17746  -3759484.45046  24718024.8544   24718028.5464
      -850.7974
  -6165651.31848  -4776595.60147  22919959.4724   22919963.1164
     -2087.6414
   -975138.42245   -707320.65445  26592007.8624   26592012.4444
       638.4694
   -170542.73543                  26606718.3704
      2886.0474
 06  4 21 12 54  0.0070000  0 11G 1G23G30G 2G17G 4G20G 5G24G25G13
   4239101.32646    903616.82946  26031661.5114   26031666.0814
     -3198.1564
  -7095180.31346  -5372389.68446  24911664.5974   24911664.7494
      1504.0004
  -3283358.38046  -2460324.21446  25592183.5894   25592186.8114
      1272.2034
  -7660900.88147  -5793275.28046  25002208.4014   25002209.3394
      2553.7194
  11024131.13647   8605690.84547  24192838.3944   24192840.3394
     -3940.7194
 -13169712.11548 -10095855.73347  22794571.2764   22794573.8084
       546.9534
   -691500.87047   -510227.42546  23980259.6904   23980262.2694
     -3202.7034
  -4930361.48247  -3739352.05046  24722941.3784   24722944.8354
      -871.6254
  -6102799.05048  -4727619.81047  22931920.0034   22931923.4254
     -2102.4534
   -994064.05845   -722067.84645  26588406.8154   26588409.5464
       623.2504
   -257056.29944                  26590256.0974
      2881.5634
 06  4 21 12 54 30.0070000  0 11G 1G23G30G 2G17G 4G20G 5G24G25G13
   4335278.32746    978559.89645  26049963.9874   26049968.5464
     -3213.4534
  -7140064.26746  -5407364.15046  24903123.1594   24903122.4444
      1488.4224
  -3321264.17246  -2489861.19946  25584970.9564   25584975.1404
      1255.0474
  -7737397.57147  -5852883.04346  24987651.3314   24987652.3864
      2546.2344
  11142536.86847   8697955.03446  24215370.4174   24215372.5614
     -3952.8284
 -13185875.08148 -10108450.24347  22791495.7064   22791498.3544
       530.7504
   -595185.11447   -435176.18446  23998588.1284   23998590.6364
     -3218.1564
  -4903893.67747  -3718727.73746  24727978.7144   24727982.2764
      -892.7194
  -6039496.79248  -4678293.37847  22943966.0264   22943969.4134
     -2117.5164
  -1012526.42145   -736454.05245  26584892.9644   26584896.8084
       607.7194
   -343427.90244    -31392.47845  26573820.3864   26573821.8974
      2876.7194
 06  4 21 12 55  0.0070000  0 11G 1G23G30G 2G17G 4G20G 5G24G25G13
   4431916.11646   1053862.08146  26068353.8084   26068358.4724
     -3228.8594
  -7184477.29346  -5441971.65646  24894671.2694   24894671.3044
      1472.6094
  -3358650.04846  -2518992.98846  25577856.7374   25577860.1944
      1237.5944
  -7813666.57347  -5912313.41146  24973138.7224   24973139.5544
      2538.5314
  11261307.72147   8790503.72446  24237971.5734   24237973.8354
     -3965.0474
 -13201548.51948 -10120663.30547  22788513.0974   22788515.6984
       514.3444
   -498403.75547   -359762.14546  24017005.1044   24017007.4724
     -3233.7344
  -4876790.07347  -3697608.05046  24733135.5344   24733138.8624
      -913.9844
  -5975740.32448  -4628613.01447  22956098.6834   22956101.9994
     -2132.7194
  -1030518.61845   -750473.87445  26581469.3004   26581473.5304
       591.9534
   -429649.84644    -98578.33145  26557413.9174   26557414.6554
      2871.5784
 06  4 21 12 55 30.0070000  0 11G 1G23G30G 2G17G 4G20G 5G24G25G13
   4529008.22546   1129518.24346  26086829.1044   26086834.0734
     -3243.9224
  -7228420.76546  -5476213.28346  24886309.5034   24886309.5734
      1456.9384
  -3395518.10146  -2547721.34246  25570841.4254   25570844.9174
      1220.3134
  -7889709.98247  -5971567.99546  24958667.4564   24958668.3114
      2531.0164
  11380437.19547   8883331.86846  24260640.9954   24260643.1634
     -3976.9064
 -13216735.26048 -10132497.13147  22785623.0264   22785625.6404
       498.1254
   -401162.87147   -283990.04346  24035509.2454   24035511.8584
     -3248.9694
  -4849054.79947  -3675996.16346  24738413.8314   24738417.1834
      -935.0164
  -5911534.95248  -4578582.86847  22968316.4404   22968319.7804
     -2147.6254
  -1048043.27545   -764129.44745  26578134.6364   26578138.1984
       576.3444
   -515722.98545   -165648.26945  26541034.3544   26541037.1324
      2866.6094
 06  4 21 12 56  0.0070000  0 11G 1G23G30G 2G17G 4G20G 5G24G25G13
   4626549.70945   1205524.62745  26105391.3944   26105395.7764
     -3258.8754
  -7271895.04546  -5510089.32246  24878036.2764   24878036.1474
      1441.2504
  -3431869.14946  -2576046.99746  25563923.4794   25563926.8784
      1202.9844
  -7965528.29447  -6030647.18246  24944239.2844   24944240.2694
      2523.4534
  11499920.37047   8976435.62046  24283378.2764   24283380.4094
     -3988.7034
 -13231436.89548 -10143952.94847  22782825.5734   22782828.1404
       481.9384
   -303467.43347   -207863.75046  24054100.1284   24054102.6244
     -3264.1094
  -4820690.65447  -3653894.28246  24743810.9644   24743814.3514
      -956.0164
  -5846884.60248  -4528205.96847  22980619.0424   22980622.1124
     -2162.4694
  -1065101.37445   -777421.42745  26574888.8784   26574892.5814
       560.7664
   -601646.94645   -232601.93145  26524683.6754   26524686.4644
      2861.5634
 06  4 21 12 56 30.0070000  0 11G 1G23G30G 2G17G 4G20G 5G24G25G13
   4724531.71546   1281874.27545  26124036.1364   26124040.7764
     -3273.4224
  -7314903.96846  -5543602.74746  24869851.5974   24869851.3154
      1425.8134
  -3467706.42346  -2603972.11346  25557103.8944   25557106.8114
      1185.9534
  -8041126.08847  -6089554.54546  24929853.6444   24929854.4174
      2516.2034
  11619748.90947   9069808.48746  24306180.5264   24306182.4484
     -4000.0474
 -13245658.99748 -10155035.09347  22780118.9874   22780121.7184
       466.0314
   -205326.05347   -131389.96546  24072775.7614   24072778.2924
     -3278.8284
  -4791703.88347  -3631307.19446  24749327.0194   24749330.4994
      -976.6254
  -5781796.38848  -4477487.88947  22993004.9404   22993008.1514
     -2176.9374
  -1081697.52945   -790353.52345  26571730.5734   26571733.8194
       545.4534
   -687425.18745   -299442.02045  26508359.9644   26508362.2844
      2856.7814
 06  4 21 12 57  0.0070000  0 11G 1G23G30G 2G17G 4G20G 5G24G25G13
   4822954.35846   1358567.20445  26142765.1284   26142770.1554
     -3288.2034
  -7357442.54546  -5576749.65146  24861757.2924   24861756.9644
      1409.9694
  -3503025.76346  -2631493.62546  25550382.7064   25550387.0544
      1168.5004
  -8116499.13647  -6148286.78646  24915510.4794   24915511.0544
      2508.5474
  11739922.82747   9163450.46646  24329049.2924   24329051.2964
     -4011.6564
 -13259397.92848 -10165740.75047  22777504.4954   22777507.0504
       449.7664
   -106738.60147    -54568.59246  24091536.2294   24091538.9014
     -3293.7814
  -4762092.38446  -3608233.24646  24754960.5194   24754964.1514
      -997.5944
  -5716268.80448  -4426427.44947  23005474.4334   23005477.7494
     -2191.6874
  -1097827.63545   -802922.38845  26568659.6124   26568664.3114
       529.7814
   -773052.03745   -366164.18645  26492065.4794   26492069.9444
      2851.5474
 06  4 21 12 57 30.0070000  0 11G 1G23G30G 2G17G 4G20G 5G24G25G13
   4921821.27446   1435606.30745  26161580.1984   26161585.3784
     -3302.9694
  -7399502.05846  -5609523.26946  24853753.6284   24853753.4874
      1393.9224
  -3537818.79646  -2658605.17046  25543762.0424   25543765.9444
      1150.9534
  -8191639.05347  -6206837.33446  24901211.8084   24901212.4174
      2500.7194
  11860446.28447   9257364.82346  24351984.0734   24351986.2184
     -4023.2814
 -13272646.89848 -10176064.62147  22774983.3544   22774985.9914
       433.4224
     -7701.29547     22603.30446  24110382.6754   24110385.5464
     -3308.7664
  -4731850.21746  -3584667.88746  24760716.2374   24760720.0814
     -1018.6414
  -5650296.84848  -4375020.74547  23018028.3474   23018031.8274
     -2206.5004
  -1113484.00345   -815122.09145  26565681.1204   26565684.0734
       513.9384
   -858517.80845   -432760.82645  26475801.9794   26475805.4604
      2846.0944
 06  4 21 12 58  0.0070000  0 11G 1G23G30G 2G17G 4G20G 5G24G25G13
   5021134.56045   1512993.33345  26180477.4874   26180481.1324
     -3317.6724
  -7441075.87046  -5641918.41946  24845842.4724   24845842.5894
      1377.8444
  -3572079.10046  -2685301.48246  25537242.1444   25537246.0934
      1133.2664
  -8266539.56747  -6265201.34546  24886958.4724   24886959.6084
      2492.8444
  11981321.19447   9351553.03546  24374985.9564   24374988.1834
     -4034.8284
 -13285400.60348 -10186002.57647  22772556.6514   22772559.2064
       417.0314
     91787.84047    100127.29346  24129314.8474   24129317.7064
     -3323.6414
  -4700973.33746  -3560607.92346  24766591.8544   24766595.3474
     -1039.6254
  -5583877.62648  -4323265.52447  23030667.5194   23030671.0344
     -2221.2504
  -1128660.85145   -826948.15845  26562793.4094   26562797.7804
       498.0784
   -943816.13645   -499227.01945  26459571.3314   26459575.1634
      2840.6254
 06  4 21 12 58 30.0070000  0 11G 1G23G30G 2G17G 4G20G 5G24G25G13
   5120885.59145   1590721.33945  26199460.6044   26199464.5774
     -3332.3284
  -7482167.85546  -5673938.12646  24838023.4794   24838023.3044
      1361.6564
  -3605810.29846  -2711585.45146  25530824.1984   25530827.7024
      1115.5314
  -8341204.85047  -6323382.11546  24872750.3154   24872751.4174
      2484.8914
  12102539.09447   9446008.51146  24398052.9174   24398055.0974
     -4046.2974
 -13297664.19848 -10195558.62747  22770223.0424   22770225.4914
       400.5944
    191720.40847    177996.78046  24148331.3704   24148333.9134
     -3338.4694
  -4669468.26746  -3536058.51946  24772586.5194   24772590.5384
     -1060.6564
  -5517018.24448  -4271167.31347  23043390.2764   23043393.8394
     -2235.9844
  -1143362.94846   -838404.33945  26559996.7924   26559999.5224
       482.1094
  -1028949.69045   -565564.83445  26443370.7064   26443372.6984
      2835.0004
 06  4 21 12 59  0.0070000  0 11G 1G23G30G 2G17G 4G20G 5G24G25G13
   5221077.82246   1668793.17945  26218526.6364   26218530.9254
     -3346.8594
  -7522769.73747  -5705575.92746  24830297.4484   24830296.9444
      1345.3754
  -3639004.66546  -2737451.18846  25524508.3704   25524511.1124
      1097.6884
  -8415626.99847  -6381373.34746  24858588.6984   24858588.9094
      2476.8444
  12224103.92647   9540734.32746  24421186.1904   24421188.3944
     -4057.7344
 -13309430.77948 -10204727.38247  22767983.5894   22767986.1674
       384.0944
    292100.25947    256214.85346  24167433.2844   24167436.0264
     -3353.2344
  -4637329.27346  -3511015.18246  24778703.5814   24778707.1204
     -1081.6724
  -5449713.70448  -4218722.22847  23056198.0424   23056201.6044
     -2250.7194
  -1157582.50345   -849484.47245  26557288.4954   26557290.5114
       466.1094
  -1113909.84245   -631767.46745  26427203.6674   26427206.1864
      2829.2504
 06  4 21 12 59 30.0070000  0 11G 1G23G30G 2G17G 4G20G 5G24G25G13
   5321702.41446   1747201.80645  26237675.1204   26237679.3744
     -3361.1254
  -7562885.06347  -5736834.59846  24822663.4404   24822662.7144
      1329.2504
  -3671666.15046  -2762901.60246  25518292.4094   25518294.6124
      1080.0314
  -8489810.34147  -6439178.51346  24844471.4724   24844472.1754
      2468.9694
  12346007.15647   9635723.82146  24444383.2374   24444385.2294
     -4068.8594
 -13320705.76348 -10213513.07847  22765838.1284   22765840.7064
       367.8134
    392918.48647    334774.50446  24186618.2924   24186620.9994
     -3367.6874
  -4604562.84446  -3485482.88046  24784938.4404   24784942.1794
     -1102.4694
  -5381971.41147  -4165936.03447  23069088.6594   23069092.3744
     -2265.1564
  -1171324.54945   -860192.59645  26554674.6124   26554677.7764
       450.2814
  -1198699.52545   -697837.37745  26411067.2694   26411070.5264
      2823.6414
 06  4 21 13  0  0.0070000  0 11G 1G23G30G 2G17G 4G20G 5G24G25G13
   5422759.95245   1825947.97045  26256904.1514   26256909.4954
     -3375.7814
  -7602508.88247  -5767710.27646  24815122.6204   24815122.0934
      1312.5784
  -3703790.48646  -2787933.60946  25512179.9174   25512182.5304
      1061.8444
  -8563750.18647  -6496793.96746  24830401.2534   24830402.3084
      2460.5784
  12468248.90647   9730977.10146  24467645.3944   24467647.3624
     -4080.3594
 -13331485.78048 -10221913.08247  22763786.8154   22763789.3824
       351.0784
    494175.45947    413676.01646  24205886.9094   24205889.6864
     -3382.5164
  -4571166.91046  -3459460.11046  24791293.3084   24791296.4254
     -1123.7034
  -5313789.65548  -4112807.39347  23082063.5734   23082067.2414
     -2280.0474
  -1184584.72445   -870525.18045  26552149.5344   26552152.7574
       433.9694
  -1283312.89145   -763769.86645  26394964.9334   26394967.5224
      2817.4694
 06  4 21 13  0 30.0070000  0 11G 1G23G30G 2G17G 4G20G 5G24G25G13
   5524245.32146   1905027.40045  26276216.9724   26276221.0974
     -3389.9694
  -7641641.01547  -5798202.82546  24807676.2844   24807675.5344
      1296.1564
  -3735377.45146  -2812546.87146  25506169.4094   25506171.8944
      1043.8754
  -8637447.10847  -6554220.11846  24816377.4724   24816378.3744
      2452.4534
  12590824.98147   9826490.89246  24490970.3004   24490972.3624
     -4091.4534
 -13341772.02448 -10229928.33347  22761829.5264   22761832.1284
       334.5784
    595866.68447    492915.90646  24225238.0034   24225240.6284
     -3396.9374
  -4537143.90746  -3432948.66946  24797768.2374   24797772.1164
     -1144.5944
  -5245172.05448  -4059339.14047  23095120.9404   23095124.4794
     -2294.5314
  -1197363.83645   -880482.90845  26549717.7224   26549721.6714
       417.9064
  -1367749.39145   -829564.52045  26378897.2294   26378899.6904
      2811.5474
 06  4 21 13  1  0.0070000  0 11G 1G23G30G 2G17G 4G20G 5G24G25G13
   5626157.00646   1984438.97545  26295610.4724   26295614.6204
     -3404.0944
  -7680278.41347  -5828309.87046  24800323.5504   24800323.3864
      1279.6724
  -3766423.79446  -2836738.79546  25500260.3544   25500264.0694
      1025.8914
  -8710897.94547  -6611454.52046  24802400.2064   24802401.2374
      2444.2814
  12713733.95347   9922264.08946  24514359.2844   24514361.1714
     -4102.4374
 -13351562.76548 -10237557.48247  22759966.2374   22759968.8044
       318.1414
    697990.43147    572492.83546  24244671.6284   24244673.9484
     -3411.2664
  -4502493.08446  -3405947.95846  24804361.5424   24804365.1514
     -1165.4374
  -5176118.66748  -4005531.31947  23108261.3314   23108264.8234
     -2308.9844
  -1209659.54745   -890064.03445  26547378.3394   26547382.8514
       401.8444
  -1452005.18545   -895218.37645  26362865.4254   26362869.1634
      2805.5314
 06  4 21 13  1 30.0070000  0 11G 1G23G30G 2G17G 4G20G 5G24G25G13
   5728495.97945   2064183.54445  26315083.9094   26315088.5734
     -3418.4224
  -7718415.29246  -5858026.89946  24793066.0584   24793066.1984
      1262.8284
  -3796924.71046  -2860505.89646  25494455.7144   25494458.7024
      1007.5634
  -8784097.58447  -6668493.17946  24788470.6904   24788471.4174
      2435.7344
  12836976.80647  10018297.44346  24537811.3004   24537813.4914
     -4113.6724
 -13360853.82848 -10244797.27247  22758198.0034   22758200.8864
       301.3134
    800547.67347    652407.53946  24264187.6444   24264190.2334
     -3425.8124
  -4467212.00147  -3378456.21746  24811075.6674   24811079.3704
     -1186.5784
  -5106627.58548  -3951382.43847  23121485.3394   23121488.6444
     -2323.7034
  -1221467.12446   -899264.76945  26545133.2294   26545136.8744
       385.3914
  -1536073.69245   -960726.27945  26346867.3004   26346870.0304
      2799.0784
 06  4 21 13  2  0.0070000  0 11G 1G23G30G 2G17G 4G20G 5G24G25G13
   5831257.55645   2144257.44945  26334640.0734   26334646.0734
     -3432.4064
  -7756051.67346  -5887353.92846  24785903.8234   24785903.9524
      1246.1724
  -3826880.37246  -2883848.03646  25488755.8154   25488759.0264
       989.3914
  -8857046.36947  -6725336.41846  24774588.8864   24774589.2964
      2427.4064
  12960549.00947  10114587.44346  24561326.7064   24561328.9794
     -4124.5624
 -13369646.73448 -10251648.89947  22756525.1444   22756527.9094
       284.7814
    903534.02847    732656.63446  24283785.3314   24283787.9334
     -3440.0004
  -4431303.32146  -3350475.49346  24817908.6594   24817912.3514
     -1207.4374
  -5036701.95747  -3896894.94247  23134791.5034   23134794.9364
     -2338.0944
  -1232787.24345   -908085.58945  26542978.1904   26542982.2694
       369.1884
  -1619954.18045  -1026087.72445  26330906.2694   26330909.1864
      2792.8444
 06  4 21 13  2 30.0070000  0 11G 1G23G30G 2G17G 4G20G 5G24G25G13
   5934444.56245   2224662.84145  26354275.7924   26354280.2104
     -3446.7344
  -7793179.63447  -5916284.78746  24778839.2924   24778839.1044
      1228.9844
  -3856282.62346  -2906758.89246  25483161.2534   25483164.4174
       970.7344
  -8929736.63047  -6781978.16646  24760756.9874   24760757.6794
      2418.5634
  13084453.79647  10211136.58846  24584904.5894   24584906.7924
     -4135.7974
 -13377935.27148 -10258107.48447  22754947.5974   22754950.1864
       267.7344
   1006952.39347    813242.34246  24303464.9564   24303467.8394
     -3454.5624
  -4394761.90246  -3322001.73646  24824862.4404   24824865.8744
     -1228.7034
  -4966337.56548  -3842065.56047  23148181.5504   23148184.8084
     -2352.9064
  -1243613.23545   -916521.44345  26540918.8004   26540922.4564
       352.5164
  -1703638.19445  -1091296.06145  26314980.9014   26314982.9174
      2786.0474
 06  4 21 13  3  0.0070000  0 11G 1G23G30G 2G17G 4G20G 5G24G25G13
   6038053.81745   2305397.20645  26373992.1834   26373996.8234
     -3460.6724
  -7829797.82647  -5944818.40946  24771871.0814   24771870.5894
      1212.0784
  -3885130.82846  -2929238.14146  25477671.7294   25477674.2024
       952.3754
  -9002167.04647  -6838417.41946  24746973.5424   24746974.3864
      2410.0004
  13208688.18047  10307942.56146  24608546.3864   24608548.1794
     -4146.6094
 -13385719.14048 -10264172.84847  22753466.5814   22753469.1364
       251.0634
   1110799.70447    894162.30746  24323226.7924   24323229.5464
     -3468.6874
  -4357588.78646  -3293035.66346  24831935.9404   24831939.6554
     -1249.6254
  -4895535.90048  -3786895.44247  23161654.6834   23161658.0934
     -2367.3284
  -1253944.33445   -924571.72145  26538950.6754   26538954.2844
       336.1094
  -1787123.25845  -1156349.32945  26299094.8544   26299098.8394
      2779.5004
 06  4 21 13  3 30.0070000  0 11G 1G23G30G 2G17G 4G20G 5G24G25G13
   6142082.03645   2386458.15645  26393787.9644   26393791.8784
     -3474.4534
  -7865904.88147  -5972953.75446  24765000.4174   24764999.6674
      1195.1094
  -3913423.26646  -2951283.96446  25472286.8704   25472289.6944
       933.9064
  -9074336.53247  -6894653.34646  24733239.7224   24733240.6474
      2401.3754
  13333249.19247  10405003.05146  24632249.3394   24632251.3904
     -4157.3444
 -13392998.50448 -10269845.07647  22752081.4334   22752084.0224
       234.3284
   1215072.66047    975413.93846  24343069.2454   24343071.4484
     -3482.7344
  -4319785.63946  -3263578.66246  24839130.1204   24839133.6594
     -1270.5004
  -4824299.33848  -3731386.44347  23175210.4254   23175213.7414
     -2381.6874
  -1263779.92845   -932235.75345  26537081.0814   26537085.2534
       319.6564
  -1870407.27745  -1221245.99345  26283245.9564   26283249.8824
      2772.8594
 06  4 21 13  4  0.0070000  0 11G 1G23G30G 2G17G 4G20G 5G24G25G13
   6246522.56945   2467840.33645  26413661.9404   26413666.1364
     -3488.2344
  -7901502.27047  -6000691.95546  24758226.3544   24758226.2494
      1178.0164
  -3941162.82246  -2972899.30346  25467008.1984   25467011.7144
       915.4064
  -9146247.42347  -6950687.81046  24719556.0114   24719556.8314
      2392.6564
  13458130.23747  10502312.92646  24656013.4564   24656015.3904
     -4168.0314
 -13399776.51748 -10275126.63647  22750791.5114   22750794.2414
       217.5314
   1319765.14347   1056992.48746  24362991.3944   24362993.6554
     -3496.7504
  -4281356.90046  -3233634.24146  24846442.4014   24846445.9764
     -1291.4224
  -4752633.05348  -3675542.59847  23188848.0194   23188851.4294
     -2396.0624
  -1273122.62045   -939515.71645  26535301.7614   26535306.2844
       303.1564
  -1953491.15045  -1285986.64645  26267435.8474   26267438.7414
      2766.0634
 06  4 21 13  4 30.0070000  0 11G 1G23G30G 2G17G 4G20G 5G24G25G13
   6351374.89645   2549543.38145  26433615.2844   26433620.1834
     -3502.0004
  -7936585.57947  -6028029.59246  24751549.8704   24751549.6594
      1160.7814
  -3968344.83346  -2994080.11646  25461836.2064   25461839.8394
       896.6724
  -9217895.21647  -7006517.24446  24705921.1904   24705922.1404
      2383.7814
  13583331.13547  10599872.03146  24679838.6834   24679840.7334
     -4178.7504
 -13406050.37548 -10280015.35147  22749597.6444   22749600.2924
       200.6414
   1424876.74247   1138897.61646  24382993.4644   24382996.3234
     -3510.7504
  -4242300.90546  -3203200.96546  24853874.8704   24853878.7374
     -1312.3754
  -4680536.30048  -3619363.31747  23202567.7614   23202571.2064
     -2410.4694
  -1281969.19345   -946409.12145  26533619.6984   26533622.4054
       286.5314
  -2036369.81645  -1350567.38345  26251663.7924   26251665.8544
      2759.0944
 06  4 21 13  5  0.0070000  0 11G 1G23G30G 2G17G 4G20G 5G24G25G13
   6456636.87945   2631565.63345  26453645.6514   26453648.1364
     -3515.5784
  -7971152.27047  -6054964.65246  24744971.9094   24744971.4764
      1143.5314
  -3994967.04446  -3014824.71446  25456769.7924   25456773.2844
       878.0164
  -9289277.61047  -7062139.85346  24692337.7614   24692338.7454
      2374.9224
  13708850.26047  10697679.10746  24703724.4334   24703726.3904
     -4189.3124
 -13411818.75148 -10284510.18447  22748499.9404   22748502.4134
       183.7664
   1530405.53147   1221127.82546  24403074.5194   24403077.0384
     -3524.6094
  -4202617.95946  -3172279.18646  24861426.0424   24861430.1904
     -1333.2664
  -4608009.33148  -3562848.80347  23216369.1674   23216372.3084
     -2424.7814
  -1290317.66045   -952914.37445  26532031.3624   26532033.6714
       269.9064
  -2119039.42245  -1414985.16045  26235931.7294   26235933.0544
      2752.0784
 06  4 21 13  5 30.0070000  0 11G 1G23G30G 2G17G 4G20G 5G24G25G13
   6562305.52845   2713904.69445  26473753.0734   26473756.7764
     -3529.0004
  -8005200.81347  -6081495.96846  24738492.9564   24738492.2414
      1126.3594
  -4021028.24646  -3035132.16646  25451812.0734   25451815.3434
       859.3754
  -9360393.18947  -7117554.56746  24678805.2614   24678805.9404
      2366.0944
  13834684.53847  10795731.75546  24727670.0584   24727671.9914
     -4199.6414
 -13417081.65048 -10288611.14547  22747498.2764   22747500.9724
       167.0634
   1636348.23247   1303680.56346  24423235.0424   24423237.6794
     -3538.2344
  -4162309.24646  -3140869.85346  24869096.5344   24869100.5774
     -1353.9844
  -4535054.23748  -3506000.68647  23230252.1044   23230255.4914
     -2438.8914
  -1298167.44245   -959031.11745  26530536.7534   26530539.7184
       253.3914
  -2201498.10645  -1479238.62445  26220241.3544   26220244.0264
      2745.1254
 06  4 21 13  6  0.0070000  0 11G 1G23G30G 2G17G 4G20G 5G24G25G13
   6668376.03145   2796557.07945  26493937.9484   26493942.4134
     -3542.3284
  -8038731.22647  -6107623.54646  24732112.5344   24732111.7964
      1109.0474
  -4046528.75146  -3055002.69246  25446958.5344   25446961.8274
       840.6884
  -9431242.28547  -7172761.62846  24665323.4644   24665323.9564
      2357.2034
  13960829.30747  10894026.34546  24751674.4564   24751676.5894
     -4209.9374
 -13421840.77248 -10292319.55247  22746592.9874   22746595.5424
       150.2344
   1742700.16847   1386552.17246  24443473.4874   24443475.8194
     -3551.8284
  -4121377.81446  -3108975.22446  24876884.6124   24876888.0814
     -1374.7194
  -4461674.59748  -3448821.75547  23244215.5894   23244218.8944
     -2453.0164
  -1305519.59145   -964760.02245  26529136.6834   26529140.4214
       236.7974
  -2283744.78345  -1543326.87545  26204589.4334   26204593.2884
      2738.0004
 06  4 21 13  6 30.0070000  0 11G 1G23G30G 2G17G 4G20G 5G24G25G13
   6774844.37745   2879519.50345  26514198.9724   26514203.1084
     -3555.7504
  -8071742.60247  -6133346.68646  24725830.1364   24725829.9724
      1091.4844
  -4071467.96346  -3074435.87746  25442212.4404   25442216.1554
       821.7034
  -9501824.47147  -7227760.70746  24651891.3784   24651891.9174
      2348.0474
  14087280.87747  10992560.00446  24775737.5114   24775739.8194
     -4220.3754
 -13426096.37448 -10295635.60847  22745783.2534   22745785.6794
       133.2034
   1849457.75647   1469739.88446  24463788.6834   24463790.4054
     -3565.5474
  -4079825.67846  -3076596.94546  24884792.0894   24884796.4604
     -1395.6414
  -4387873.05348  -3391314.07247  23258259.6204   23258263.1594
     -2467.3124
  -1312374.10746   -970101.22945  26527834.6674   26527839.2374
       219.9534
  -2365777.86045  -1607248.67245  26188979.0264   26188981.0774
      2730.6094
 06  4 21 13  7  0.0070000  0 11G 1G23G30G 2G17G 4G20G 5G24G25G13
   6881717.96545   2962797.46445  26534536.3704   26534542.1244
     -3569.2664
  -8104222.47847  -6158655.67746  24719649.7224   24719649.6514
      1073.6884
  -4095833.86746  -3093422.32046  25437575.4954   25437579.2574
       802.5314
  -9572127.17047  -7282542.00846  24638513.0114   24638514.0304
      2338.6564
  14214047.49447  11091339.14146  24799860.1444   24799862.5224
     -4230.8594
 -13429837.62448 -10298550.87547  22745071.1984   22745073.6944
       116.0314
   1956628.89547   1553249.82546  24484182.5424   24484184.5694
     -3579.3284
  -4037642.98746  -3043727.34646  24892819.9174   24892823.6794
     -1416.6724
  -4313640.26248  -3333470.37247  23272385.8544   23272389.3004
     -2481.6874
  -1318719.31746   -975045.58645  26526627.9954   26526631.6514
       202.9224
  -2447583.79345  -1670993.46245  26173412.2064   26173415.7454
      2722.9534
 06  4 21 13  7 30.0070000  0 11G 1G23G30G 2G17G 4G20G 5G24G25G13
   6988995.37645   3046390.31545  26554950.1044   26554954.8744
     -3582.6254
  -8136168.35047  -6183548.54246  24713570.6444   24713570.5154
      1055.9064
  -4119623.72246  -3111959.86246  25433049.0034   25433052.3314
       783.3754
  -9642148.11947  -7337103.81246  24625188.8544   24625189.7334
      2329.2814
  14341127.26047  11190362.30046  24824042.3784   24824044.4874
     -4241.2194
 -13433063.39148 -10301064.46547  22744457.5504   22744459.8114
        98.8914
   2064211.48047   1637080.38946  24504654.9484   24504657.6674
     -3592.9534
  -3994830.25846  -3010366.79346  24900966.6904   24900970.5934
     -1437.6094
  -4238976.88448  -3275291.11847  23286593.7224   23286597.2724
     -2495.9694
  -1324553.58546   -979591.80245  26525517.4174   26525520.8154
       185.9064
  -2529159.10245  -1734558.49945  26157890.0814   26157894.1364
      2715.2664
 06  4 21 13  8  0.0070000  0 11G 1G23G30G 2G17G 4G20G 5G24G25G13
   7096667.94645   3130290.95345  26575439.8154   26575444.2574
     -3595.5624
  -8167583.48947  -6208027.85846  24707592.6514   24707592.3114
      1038.3754
  -4142841.65046  -3130051.80646  25428630.8784   25428633.0114
       764.4384
  -9711890.55347  -7391448.53046  24611917.5034   24611918.0894
      2320.1564
  14468512.52347  11289623.51646  24848283.3544   24848285.7694
     -4251.1874
 -13435778.20348 -10303179.90747  22743940.6514   22743942.9954
        82.0634
   2172197.58347   1721225.38246  24525204.0584   24525206.2374
     -3606.1724
  -3951393.53547  -2976520.03346  24909232.3624   24909236.0544
     -1458.2034
  -4163889.59148  -3216781.54547  23300882.5654   23300885.9764
     -2509.8754
  -1329881.10345   -983743.12445  26524500.9794   26524504.4254
       169.2034
  -2610506.38845  -1797945.87945  26142409.8084   26142412.1044
      2707.8134
